[[{"header":{"parameterUnit":"m.s-1","parameterCategory":1,"la1":30.6,"la2":29.2853,"lo1":-89.7004,"lo2":-87.6739,"dy":0.0162,"dx":0.0183,"nx":112,"ny":82,"refTime":"2024-09-11T00:00:00:Z","depth":0,"parameterNumber":2,"parameterNumberName":"U-component_of_WINDS"},"data":[0.0,0.0,0.0,0.0,0.0,0.0,0.0,0.0,0.0,0.0,0.0,0.0,0.0,0.0,0.0,0.0,0.0,0.0,0.0,0.0,0.0,0.0,0.0,0.0,0.0,0.0,0.0,0.0,0.0,0.0,0.0,0.0,0.0,0.0,0.0,0.0,0.0,0.0,0.0,0.0,0.0,0.0,0.0,0.0,0.0,0.0,0.0,0.0,0.0,0.0,0.0,0.0,0.0,0.0,0.0,0.0,0.0,0.0,0.0,0.0,0.0,0.0,0.0,0.0,0.0,0.0,0.0,0.0,0.0,0.0,0.0,0.0,0.0,0.0,0.0,0.0,0.0,0.0,0.0,0.0,0.0,0.0,0.0,0.0,0.0,0.0,0.0,0.0,0.0,0.0,0.0,0.6068,0.6586,0.6689,0.6227,0.54,0.4646,0.3976,0.0,0.0,0.0,0.0,0.0,0.0,0.0,0.0,0.0,0.0,0.0,0.0,0.0,0.0,0.0,0.0,0.0,0.0,0.0,0.0,0.0,0.0,0.0,0.0,0.0,0.0,0.0,0.0,0.0,0.0,0.0,0.0,0.0,0.0,0.0,0.0,0.0,0.0,0.0,0.0,0.0,0.0,0.0,0.0,0.0,0.0,0.0,0.0,0.0,0.0,0.0,0.0,0.0,0.0,0.0,0.0,0.0,0.0,0.0,0.0,0.0,0.0,0.0,0.0,0.0,0.0,0.0,0.0,0.0,0.0,0.0,0.0,0.0,0.0,0.0,0.0,0.0,0.0,0.0,0.0,0.0,0.0,0.0,0.0,0.0,0.0,0.0,0.0,0.0,0.0,0.0,0.0,0.0,0.0,0.0,0.0,0.0,0.0,0.0,0.0,0.0,0.0,0.0,0.0,0.5456,0.6415,0.6385,0.6307,0.6227,0.4934,0.4012,0.3587,0.0,0.0,0.0,0.0,0.0,0.0,0.0,0.0,0.0,0.0,0.0,0.0,0.0,0.0,0.0,0.0,0.0,0.0,0.0,0.0,0.0,0.0,0.0,0.0,0.0,0.0,0.0,0.0,0.0,0.0,0.0,0.0,0.0,0.0,0.0,0.0,0.0,0.0,0.0,0.0,0.0,0.0,0.0,0.0,0.0,0.0,0.0,0.0,0.0,0.0,0.0,0.0,0.0,0.0,0.0,0.0,0.0,0.0,0.0,0.0,0.0,0.0,0.0,0.0,0.0,0.0,0.0,0.0,0.0,0.0,0.0,0.0,0.0,0.0,0.0,0.0,0.0,0.0,0.0,0.0,0.0,0.0,0.0,0.0,0.0,0.0,0.0,0.0,0.0,0.0,0.0,0.0,0.0,0.0,0.0,0.0,0.0,0.0,0.0,0.0,0.0,0.0,0.0,0.4976,0.5589,0.585,0.606,0.5916,0.526,0.4597,0.3888,0.3129,0.2476,0.0,0.0,0.0,0.0,0.0,0.0,0.0,0.0,0.0,0.0,0.0,0.0,0.0,0.0,0.0,0.0,0.0,0.0,0.0,0.0,0.0,0.0,0.0,0.0,0.0,0.0,0.0,0.0,0.0,0.0,0.0,0.0,0.0,0.0,0.0,0.0,0.0,0.0,0.0,0.0,0.0,0.0,0.0,0.0,0.0,0.0,0.0,0.0,0.0,0.0,0.0,0.0,0.0,0.0,0.0,0.0,0.0,0.0,0.0,0.0,0.0,0.0,0.0,0.0,0.0,0.0,0.0,0.0,0.0,0.0,0.0,0.0,0.0,0.0,0.0,0.0,0.0,0.0,0.0,0.0,0.0,0.0,0.0,0.0,0.0,0.0,0.0,0.0,0.0,0.0,0.0,0.0,0.0,0.0,0.0,0.0,0.0,0.0,0.0,0.0,0.0,0.0,0.4952,0.5411,0.5322,0.5567,0.5437,0.4526,0.4284,0.3671,0.2563,0.2066,0.0,0.0,0.0,0.0,0.0,0.0,0.0,0.0,0.0,0.0,0.0,0.0,0.0,0.0,0.0,0.0,0.0,0.0,0.0,0.0,0.0,0.0,0.0,0.0,0.0,0.0,0.0,0.0,0.0,0.0,0.0,0.0,0.0,0.0,0.0,0.0,0.0,0.0,0.0,0.0,0.0,0.0,0.0,0.0,0.0,0.0,0.0,0.0,0.0,0.0,0.0,0.0,0.0,0.0,0.0,0.0,0.0,0.0,0.0,0.0,0.0,0.0,0.0,0.0,0.0,0.0,0.0,0.0,0.0,0.0,0.0,0.0,0.0,0.0,0.0,0.0,0.0,0.0,0.0,0.0,0.0,0.0,0.0,0.0,0.0,0.0,0.0,0.0,0.0,0.0,0.0,0.0,0.0,0.0,0.0,0.0,0.0,0.0,0.0,0.0,0.0,0.0,0.457,0.4826,0.5252,0.4826,0.457,0.4683,0.3891,0.2933,0.1919,0.1816,0.0,0.0,0.0,0.0,0.0,0.0,0.0,0.0,0.0,0.0,0.0,0.0,0.0,0.0,0.0,0.0,0.0,0.0,0.0,0.0,0.0,0.0,0.0,0.0,0.0,0.0,0.0,0.0,0.0,0.0,0.0,0.0,0.0,0.0,0.0,0.0,0.0,0.0,0.0,0.0,0.0,0.0,0.0,0.0,0.0,0.0,0.0,0.0,0.0,0.0,0.0,0.0,0.0,0.0,0.0,0.0,0.0,0.0,0.0,0.0,0.0,0.0,0.0,0.0,0.0,0.0,0.0,0.0,0.0,0.0,0.0,0.0,0.0,0.0,0.0,0.0,0.0,0.0,0.0,0.0,0.0,0.0,0.0,0.0,0.0,0.0,0.0,0.0,0.0,0.0,0.0,0.0,0.0,0.0,0.0,0.0,0.0,0.0,0.0,0.0,0.0,0.0,0.3986,0.4262,0.0,0.438,0.4413,0.4057,0.3699,0.2992,0.1858,0.0,0.0,0.0,0.0,0.0,0.0,0.0,0.0,0.0,0.0,0.0,0.0,0.0,0.0,0.0,0.0,0.0,0.0,0.0,0.0,0.0,0.0,0.0,0.0,0.0,0.0,0.0,0.0,0.0,0.0,0.0,0.0,0.0,0.0,0.0,0.0,0.0,0.0,0.0,0.0,0.0,0.0,0.0,0.0,0.0,0.0,0.0,0.0,0.0,0.0,0.0,0.0,0.0,0.0,0.0,0.0,0.0,0.0,0.0,0.0,0.0,0.0,0.0,0.0,0.0,0.0,0.0,0.0,0.0,0.0,0.0,0.0,0.0,0.0,0.0,0.0,0.0,0.0,0.0,0.0,0.0,0.0,0.0,0.0,0.0,0.0,0.0,0.0,0.0,0.0,0.0,0.0,0.0,0.0,0.0,0.0,0.0,0.0,0.0,0.0,0.0,0.0,0.2871,0.3428,0.3684,0.0,0.3929,0.4142,0.3648,0.3593,0.2989,0.1612,0.0,0.0,0.0,0.0,0.0,0.0,0.0,0.0,0.0,0.0,0.0,0.0,0.0,0.0,0.0,0.0,0.0,0.0,0.0,0.0,0.0,0.0,0.0,0.0,0.0,0.0,0.0,0.0,0.0,0.0,0.0,0.0,0.0,0.0,0.0,0.0,0.0,0.0,0.0,0.0,0.0,0.0,0.0,0.0,0.0,0.0,0.0,0.0,0.0,0.0,0.0,0.0,0.0,0.0,0.0,0.0,0.0,0.0,0.0,0.0,0.0,0.0,0.0,0.0,0.0,0.0,0.0,0.0,0.0,0.0,0.0,0.0,0.0,0.0,0.0,0.0,0.0,0.0,0.0,0.0,0.0,0.0,0.0,0.0,0.0,0.0,0.0,0.0,0.0,0.0,0.0,0.0,0.0,0.0,0.0,0.0,0.0,0.0,0.0,0.0,0.0,0.0,0.2824,0.2955,0.3056,0.3257,0.3482,0.3604,0.3609,0.356,0.2804,0.0,0.0,0.0,0.0,0.0,0.0,0.0,0.0,0.0,0.0,0.0,0.0,0.0,0.0,0.0,0.0,0.0,0.0,0.0,0.0,0.0,0.0,0.0,0.0,0.0,0.0,0.0,0.0,0.0,0.0,0.0,0.0,0.0,0.0,0.0,0.0,0.0,0.0,0.0,0.0,0.0,0.0,0.0,0.0,0.0,0.0,0.0,0.0,0.0,0.0,0.0,0.0,0.0,0.0,0.0,0.0,0.0,0.0,0.0,0.0,0.0,0.0,0.0,0.0,0.0,0.0,0.0,0.0,0.0,0.0,0.0,0.0,0.0,0.0,0.0,0.0,0.0,0.0,0.0,0.0,0.0,0.0,0.0,0.0,0.0,0.0,0.0,0.0,0.0,0.0,0.0,0.0,0.0,0.0,0.0,0.0,0.0,0.0,0.0,0.0,0.0,0.0,0.0,0.2287,0.2599,0.2572,0.1969,0.2927,0.3602,0.3589,0.2041,0.0824,0.0291,0.0,0.0,0.0,0.0,0.0,0.0,0.0,0.0,0.0,0.0,0.0,0.0,0.0,0.0,0.0,0.0,0.0,0.0,0.0,0.0,0.0,0.0,0.0,0.0,0.0,0.0,0.0,0.0,0.0,0.0,0.0,0.0,0.0,0.0,0.0,0.0,0.0,0.0,0.0,0.0,0.0,0.0,0.0,0.0,0.0,0.0,0.0,0.0,0.0,0.0,0.0,0.0,0.0,0.0,0.0,0.0,0.0,0.0,0.0,0.0,0.0,0.0,0.0,0.0,0.0,0.0,0.0,0.0,0.0,0.0,0.0,0.0,0.0,0.0,0.0,0.0,0.0,0.0,0.0,0.0,0.0,0.0,0.0,0.0,0.0,0.0,0.0,0.0,0.0,0.0,0.0,0.0,0.0,0.0,0.0,0.0,0.0,0.0,0.0,0.0,0.0,0.0,0.2062,0.2456,0.2483,0.1917,0.2036,0.218,0.2172,0.0839,-0.0,-0.0,0.0,0.0,0.0,0.0,0.0,0.0,0.0,0.0,0.0,0.0,0.0,0.0,0.0,0.0,0.0,0.0,0.0,0.0,0.0,0.0,0.0,0.0,0.0,0.0,0.0,0.0,0.0,0.0,0.0,0.0,0.0,0.0,0.0,0.0,0.0,0.0,0.0,0.0,0.0,0.0,0.0,0.0,0.0,0.0,0.0,0.0,0.0,0.0,0.0,0.0,0.0,0.0,0.0,0.0,0.0,0.0,0.0,0.0,0.0,0.0,0.0,0.0,0.0,0.0,0.0,0.0,0.0,0.0,0.0,0.0,0.0,0.0,0.0,0.0,0.0,0.0,0.0,0.0,0.0,0.0,0.0,0.0,0.0,0.0,0.0,0.0,0.0,0.0,0.0,0.0,0.0,0.0,0.0,0.0,0.0,0.0,0.0,0.0,0.0,0.0,0.0,0.0,0.194,0.2247,0.2462,0.2433,0.0964,-0.0,-0.0,-0.0,-0.0,-0.0,0.0,0.0,0.0,0.0,0.0,0.0,0.0,0.0,0.0,0.0,0.0,0.0,0.0,0.0,0.0,0.0,0.0,0.0,0.0,0.0,0.0,0.0,0.0,0.0,0.0,0.0,0.0,0.0,0.0,0.0,0.0,0.0,0.0,0.0,0.0,0.0,0.0,0.0,0.0,0.0,0.0,0.0,0.0,0.0,0.0,0.0,0.0,0.0,0.0,0.0,0.0,0.0,0.0,0.0,0.0,0.0,0.0,0.0,0.0,0.0,-0.5655,0.0,0.0,0.0,0.0,0.0,0.0,0.0,0.0,0.0,0.0,0.0,0.0,0.0,0.0,0.0,0.0,0.0,0.0,0.0,0.0,0.0,0.0,0.0,0.0,0.0,0.0,0.0,0.0,0.0,0.0,0.0,0.0,0.0,0.0,0.0,0.0,0.0,0.0,0.0,0.0,0.0,0.1159,0.082,0.0559,0.057,0.0225,-0.0,-0.0,-0.0,-0.0,-0.0,0.0,0.0,0.0,0.0,0.0,0.0,0.0,0.0,0.0,0.0,0.0,0.0,0.0,0.0,0.0,0.0,0.0,0.0,0.0,0.0,0.0,0.0,0.0,0.0,0.0,0.0,0.0,0.0,0.0,0.0,0.0,0.0,0.0,0.0,0.0,0.0,0.0,0.0,0.0,0.0,0.0,0.0,0.0,0.0,0.0,0.0,0.0,0.0,0.0,0.0,0.0,0.0,0.0,0.0,0.0,0.0,0.0,0.0,0.0,0.0,0.0,-0.4967,0.0,0.0,0.0,0.0,0.0,0.0,0.0,0.0,0.0,0.0,0.0,0.0,0.0,0.0,0.0,0.0,0.0,0.0,0.0,0.0,0.0,0.0,0.0,0.0,0.0,0.0,0.0,0.0,0.0,0.0,0.0,0.0,0.0,0.0,0.0,0.0,0.0,0.0,0.0,0.0,0.1306,0.0558,-0.0,-0.0,-0.0,-0.0,-0.0,-0.0,-0.0381,-0.1236,-0.1889,0.0,0.0,0.0,0.0,0.0,0.0,0.0,0.0,0.0,0.0,0.0,0.0,0.0,0.0,0.0,0.0,0.0,0.0,0.0,0.0,0.0,0.0,0.0,0.0,0.0,0.0,0.0,0.0,0.0,0.0,0.0,0.0,0.0,0.0,0.0,0.0,0.0,0.0,0.0,0.0,0.0,0.0,0.0,0.0,0.0,0.0,0.0,0.0,0.0,0.0,0.0,0.0,0.0,-0.7454,-0.7228,-0.7031,-0.6467,-0.6508,-0.6888,-0.6076,-0.6187,-0.6604,0.0,0.0,0.0,0.0,0.0,0.0,0.0,0.0,0.0,0.0,0.0,0.0,0.0,0.0,0.0,0.0,0.0,0.0,0.0,0.0,0.0,0.0,0.0,0.0,0.0,-0.4602,-0.3671,0.0,0.0,0.0,0.0,0.0,0.0,0.0,0.0,0.0,0.0,0.0,0.0,0.1314,0.04,-0.0274,-0.0225,-0.0077,-0.0,-0.0,-0.0304,-0.1122,-0.26,-0.2658,-0.2431,0.0,0.0,0.0,0.0,0.0,0.0,0.0,0.0,0.0,0.0,0.0,0.0,0.0,0.0,0.0,0.0,0.0,0.0,0.0,0.0,0.0,0.0,0.0,0.0,0.0,0.0,0.0,0.0,0.0,0.0,0.0,0.0,-0.5914,-0.4456,0.0,0.0,0.0,0.0,0.0,0.0,0.0,0.0,0.0,0.0,0.0,0.0,0.0,-0.6617,-0.7423,-0.9063,-0.9726,-0.9414,-1.0788,-1.0945,-1.0031,-0.9403,-0.8565,-0.7458,-0.6856,0.0,-0.7565,-0.548,0.0,0.0,0.0,0.0,0.0,0.0,0.0,0.0,0.0,0.0,0.0,0.0,0.0,0.0,0.0,0.0,0.0,0.0,0.0,0.0,0.0,0.0,-0.3716,-0.4524,-0.4363,-0.3838,0.0,-0.3899,-0.464,-0.4453,-0.3488,0.0,0.0,0.0,0.0,0.0,0.0,0.0,-0.0314,-0.105,-0.1448,-0.1154,-0.0439,-0.0,-0.0,-0.1455,-0.2432,-0.2686,-0.255,-0.2476,-0.2565,-0.2103,0.0,0.0,0.0,0.0,0.0,0.0,0.0,0.0,0.0,0.0,0.0,0.0,0.0,0.0,0.0,0.0,0.0,0.0,0.0,0.0,0.0,0.0,0.0,0.0,0.0,0.0,0.0,0.0,0.0,-0.4594,-0.5171,-0.4435,-0.3613,-0.2699,0.0,0.0,0.0,0.0,0.0,0.0,0.0,0.0,0.0,-0.6719,-0.7776,-0.8699,-0.9554,-1.075,-1.1425,-1.149,-1.1798,-1.1529,-1.0689,-1.0059,-0.8969,-0.7625,-0.7422,-0.7259,-0.7121,-0.6425,-0.4503,-0.1881,0.0,0.0,0.0,0.0,-0.1687,-0.2866,-0.3541,-0.4164,0.0,-0.379,0.0,0.0,0.0,0.0,0.0,0.0,0.0,0.0,0.0,0.0,-0.3905,-0.4641,-0.465,-0.4542,-0.472,-0.5096,-0.5068,0.0,-0.3746,-0.3285,-0.1825,0.0,0.0,0.0,0.0,0.0,-0.2286,-0.2574,-0.2772,-0.2605,-0.2099,-0.146,-0.0805,-0.146,-0.2125,-0.2676,-0.2606,-0.2589,-0.2588,-0.2392,-0.1899,0.0,0.0,0.0,0.0,0.0,0.0,0.0,0.0,0.0,0.0,0.0,0.0,0.0,0.0,0.0,0.0,0.0,0.0,0.0,0.0,0.0,0.0,0.0,0.0,0.0,0.0,0.0,0.0,-0.4849,-0.5129,-0.4766,-0.5023,-0.4628,0.0,0.0,0.0,0.0,0.0,0.0,-0.5646,-0.6322,-0.7056,-0.7903,-0.9093,-1.0177,-1.1085,-1.1599,-1.2005,-1.2363,-1.1823,-1.1216,-1.0517,-1.0012,-0.9026,-0.7723,-0.7723,-0.7176,-0.6328,-0.6376,-0.5504,-0.4003,-0.2849,-0.2286,-0.2058,-0.149,-0.187,-0.2843,-0.4443,-0.459,-0.4219,-0.4459,0.0,-0.3933,-0.3754,0.0,0.0,0.0,0.0,-0.405,-0.4401,-0.4215,-0.4129,-0.5089,-0.5123,-0.5155,-0.5785,-0.5916,-0.5362,0.0,-0.3905,-0.3967,-0.263,0.0,0.0,0.0,0.0,-0.3305,-0.3499,-0.3581,-0.3581,-0.3538,-0.3364,-0.2834,-0.1831,-0.1741,-0.2025,-0.2673,-0.2693,-0.2671,-0.2548,-0.2609,-0.2456,-0.2026,0.0,0.0,0.0,0.0,0.0,0.0,0.0,0.0,0.0,0.0,0.0,0.0,0.0,0.0,0.0,0.0,0.0,0.0,0.0,0.0,0.0,0.0,0.0,0.0,0.0,0.0,0.0,0.0,0.0,-0.6836,-0.76,0.0,0.0,0.0,0.0,-0.5426,-0.5454,-0.5832,-0.669,-0.7068,-0.7908,-0.9246,-0.9617,-1.0105,-1.0788,-1.0839,-1.0897,-1.0914,-1.0864,-1.0517,-0.9865,-0.9814,-0.9026,-0.7723,-0.7723,-0.6902,-0.5525,-0.544,-0.5517,-0.5585,-0.3334,-0.3251,-0.4178,-0.2913,-0.3133,-0.4105,-0.4058,-0.4058,-0.4033,-0.4161,-0.4218,-0.417,-0.3951,-0.388,0.0,0.0,-0.4159,-0.4336,-0.5047,-0.4732,-0.4536,-0.5981,-0.5775,-0.5468,-0.6059,-0.6159,-0.5823,0.0,-0.4357,-0.4152,-0.3363,0.0,-0.2782,-0.3171,-0.3406,-0.3503,-0.3324,-0.3473,-0.3514,-0.3323,-0.3489,-0.341,-0.2937,-0.291,-0.2849,-0.2706,-0.2686,-0.2709,-0.2702,-0.2561,-0.257,-0.2653,-0.2068,0.0,0.0,0.0,0.0,0.0,0.0,0.0,0.0,0.0,0.0,0.0,0.0,0.0,0.0,0.0,0.0,0.0,0.0,0.0,0.0,0.0,0.0,0.0,0.0,0.0,0.0,0.0,0.0,-0.8356,-0.885,0.0,-0.7609,-0.7586,-0.7714,-0.7932,-0.7989,-0.8205,-0.8721,-0.9232,-0.96,-0.9634,-1.1073,-1.1817,-1.1912,-1.2086,-1.2286,-1.2536,-1.179,-1.1116,-1.0415,-1.0012,-0.8758,-0.6966,-0.6966,-0.6204,-0.4835,-0.4779,-0.4892,-0.4945,-0.4591,-0.4476,-0.4449,-0.3955,-0.4042,-0.4364,-0.4361,-0.4304,-0.4297,-0.4207,-0.4462,-0.467,-0.4139,-0.4042,-0.4255,-0.4761,-0.497,-0.5188,-0.5951,-0.594,-0.5882,-0.6415,-0.6308,-0.6183,-0.642,-0.6452,-0.6309,-0.581,-0.5638,-0.534,-0.4709,-0.4613,-0.4569,-0.4342,-0.4218,-0.4105,-0.4034,-0.376,-0.3558,-0.3503,-0.3547,-0.3507,-0.3212,-0.3103,-0.2985,-0.2842,-0.2737,-0.2668,-0.2568,-0.2513,-0.2422,-0.2262,-0.204,-0.1887,0.0,0.0,0.0,0.0,0.0,0.0,0.0,0.0,0.0,0.0,0.0,0.0,0.0,0.0,0.0,0.0,0.0,0.0,0.0,0.0,0.0,0.0,0.0,0.0,0.0,0.0,-0.9761,-0.9275,-0.9935,-1.0013,-0.9004,-0.9088,-0.9276,-0.9454,-0.9316,-0.9293,-0.9451,-0.9865,-1.0118,-1.0031,-1.1379,-1.2196,-1.2378,-1.2547,-1.2763,-1.3013,-1.2118,-1.1455,-1.0995,-1.0169,-0.902,-0.7646,-0.7444,-0.6529,-0.5226,-0.5496,-0.5171,-0.4519,-0.5003,-0.4893,-0.4515,-0.4732,-0.4842,-0.4842,-0.4842,-0.4842,-0.4824,-0.4667,-0.492,-0.5178,-0.4931,-0.4916,-0.5112,-0.558,-0.5828,-0.5982,-0.6475,-0.6421,-0.6367,-0.6858,-0.6804,-0.675,-0.7235,-0.7128,-0.7026,-0.7182,-0.6688,-0.6107,-0.5662,-0.5668,-0.5529,-0.4968,-0.4613,-0.4347,-0.4132,-0.384,-0.3581,-0.3581,-0.3581,-0.3517,-0.3319,-0.3169,-0.3059,-0.2917,-0.2764,-0.2668,-0.2565,-0.251,-0.239,-0.2164,-0.2113,-0.1943,-0.1695,0.0,0.0,0.0,0.0,0.0,0.0,0.0,0.0,0.0,0.0,0.0,0.0,0.0,0.0,0.0,0.0,0.0,0.0,0.0,0.0,0.0,0.0,0.0,-0.8543,-1.0165,-1.0949,-0.9769,-1.0933,-1.1372,-1.0114,-0.9927,-0.9917,-0.9917,-0.9256,-0.891,-0.8923,-0.8923,-0.9418,-1.0524,-1.0593,-1.1138,-1.2167,-1.2159,-1.2159,-1.2159,-1.1718,-1.1489,-1.1472,-1.0285,-0.9777,-0.9725,-0.9061,-0.7937,-0.6642,-0.7343,-0.6421,-0.457,-0.4519,-0.4515,-0.4625,-0.5273,-0.5487,-0.5487,-0.5487,-0.5542,-0.5538,-0.5538,-0.5542,-0.5706,-0.6367,-0.6588,-0.6588,-0.6642,-0.6642,-0.6642,-0.6642,-0.6145,-0.5973,-0.7396,-0.7182,-0.7074,-0.848,-0.8262,-0.7937,-0.8646,-0.7518,-0.6446,-0.6309,-0.5982,-0.5595,-0.5079,-0.4683,0.0,-0.3711,-0.3622,-0.3581,-0.3581,-0.3581,-0.352,-0.3326,-0.3172,-0.3063,-0.2924,-0.2768,-0.2712,-0.2706,-0.2561,-0.2513,-0.2506,-0.231,-0.1973,-0.1532,0.0,0.0,0.0,0.0,0.0,0.0,0.0,0.0,0.0,0.0,0.0,0.0,0.0,0.0,0.0,0.0,0.0,0.0,0.0,0.0,0.0,0.0,-1.1459,-1.0345,-1.1213,-1.1973,-1.1968,-1.2349,-1.2473,-1.2091,-1.2076,-1.2058,-1.2058,-1.1384,-1.1141,-1.1479,-1.1496,-1.1771,-1.2356,-1.286,-1.344,-1.4035,-1.3734,-1.3734,-1.4035,-1.2538,-1.1801,-1.1729,-1.0104,-0.9105,-0.8593,-0.8183,-0.745,-0.6588,-0.6804,-0.6529,-0.5991,-0.5437,-0.5218,-0.5273,-0.5433,-0.5487,-0.5487,-0.5487,-0.5873,-0.6312,-0.6312,-0.6637,-0.7015,-0.6696,-0.6588,-0.6696,-0.7235,-0.7396,-0.7509,-0.8049,-0.8043,-0.799,-0.8421,-0.8315,-0.8315,-0.8699,-0.8646,-0.854,-0.8752,-0.8416,-0.8061,-0.7835,-0.7509,-0.7158,-0.685,-0.5793,0.0,-0.4831,-0.41,-0.3581,-0.3581,-0.3581,-0.3561,-0.352,-0.3273,-0.3065,-0.3063,-0.2822,-0.2664,-0.2551,-0.2506,-0.2434,-0.2299,-0.2318,-0.2276,0.0,0.0,0.0,0.0,0.0,0.0,0.0,0.0,0.0,0.0,0.0,0.0,0.0,0.0,0.0,0.0,0.0,0.0,0.0,0.0,0.0,0.0,-1.2385,-1.3139,-1.2572,-1.2695,-1.2862,-1.29,-1.2881,-1.2881,-1.2881,-1.279,-1.2736,-1.2736,-1.2247,-1.2061,-1.2307,-1.2324,-1.2653,-1.3377,-1.3783,-1.4332,-1.5039,-1.4795,-1.4795,-1.5049,-1.3746,-1.309,-1.3072,-1.1542,-1.0446,0.0,-0.9126,-0.825,-0.7269,-0.7117,-0.6858,0.0,0.0,0.0,0.0,0.0,-0.6627,-0.6843,-0.6519,-0.6686,-0.7074,-0.7074,-0.7348,-0.767,-0.7563,-0.7509,-0.7616,-0.8049,-0.8156,-0.8262,-0.8699,-0.8586,-0.8427,-0.8752,-0.8586,-0.8427,-0.8752,-0.854,-0.8427,-0.8752,-0.8533,0.0,-0.8532,-0.831,-0.7913,-0.7418,-0.6496,-0.5722,-0.5361,-0.4705,-0.4228,-0.3965,-0.3921,-0.3836,-0.3622,-0.3358,0.0,0.0,0.0,-0.2712,-0.2523,-0.2513,0.0,0.0,0.0,0.0,0.0,0.0,0.0,0.0,-0.2044,-0.216,0.0,0.0,0.0,0.0,0.0,0.0,0.0,0.0,0.0,0.0,0.0,0.0,0.0,0.0,0.0,0.0,-1.37,-1.4393,-1.4733,-1.4283,-1.3684,-1.3065,-1.2929,-1.29,-1.2949,-1.2767,-1.2629,-1.2675,-1.2455,-1.2334,-1.2376,0.0,0.0,0.0,0.0,-1.4611,-1.5633,-1.5633,-1.5633,-1.5623,-1.5133,-1.4844,-1.4824,-1.3617,-1.2645,-1.1944,-1.1044,-0.9914,-0.8633,-0.8196,-0.758,-0.6858,-0.675,-0.6696,-0.6804,-0.7456,-0.8103,-0.8593,-0.7943,0.0,0.0,-0.7777,-0.783,-0.7937,-0.8586,-0.8804,-0.8804,-0.8804,-0.8804,-0.8804,-0.8804,-0.8315,-0.7996,-0.8646,-0.8321,-0.7996,-0.8646,-0.8262,-0.799,-0.8699,-0.8262,-0.8049,-0.8699,-0.8564,-0.8128,-0.7376,-0.6888,-0.6343,-0.5543,-0.5366,-0.5087,-0.4561,0.0,0.0,-0.384,-0.3602,-0.3449,-0.3345,-0.3198,-0.302,-0.2788,-0.2714,-0.2751,-0.2929,-0.2798,-0.2894,-0.3197,-0.312,-0.3092,-0.3137,-0.3116,-0.3111,0.0,0.0,0.0,0.0,0.0,0.0,0.0,0.0,0.0,0.0,0.0,0.0,0.0,0.0,0.0,-1.3949,-1.4755,-1.5348,-1.5398,-1.4926,-1.4283,-1.3695,-1.32,-1.3018,-1.335,-1.3355,-1.3436,-1.3772,-1.3762,-1.3898,-1.424,-1.4259,-1.4778,-1.594,-1.595,-1.6377,-1.7191,-1.7191,-1.7191,-1.7191,0.0,0.0,-1.5128,-1.3433,-1.2596,-1.2464,-1.1985,-1.1598,-1.1281,-1.0337,-0.9314,-0.8315,-0.7723,-0.7509,-0.7503,-0.767,-0.7777,-0.7883,-0.7723,-0.7723,-0.7777,-0.8374,-0.8593,-0.8593,-0.8752,-0.8804,0.0,-0.8804,-0.8804,-0.8804,-0.8804,-0.8699,-0.8646,-0.8752,-0.8699,-0.8646,-0.8752,-0.8699,-0.8646,-0.8752,-0.8699,-0.8646,-0.8752,-0.8564,-0.8357,-0.8197,-0.7251,-0.6543,-0.6355,-0.5727,-0.526,-0.513,-0.513,-0.5087,-0.4961,-0.4851,-0.4747,-0.4708,-0.4591,-0.4475,-0.4427,-0.398,-0.3962,-0.4446,-0.3518,-0.329,-0.3808,-0.3352,-0.3145,-0.3259,-0.3131,-0.317,0.0,0.0,0.0,0.0,0.0,0.0,0.0,0.0,0.0,0.0,0.0,-1.2316,-1.2806,0.0,-1.4844,-1.5336,-1.5752,-1.6149,-1.6475,-1.5721,-1.4915,-1.4329,-1.4227,-1.4268,-1.45,-1.4942,-1.5311,-1.5542,-1.5406,-1.5567,-1.6171,-1.5869,-1.6084,-1.7024,-1.7034,-1.7246,-1.7578,-1.7578,-1.7578,-1.7578,-1.6813,-1.6249,-1.5861,-1.4965,-1.4139,-1.3371,-1.3103,-1.2711,-1.2289,-1.1582,-1.095,-1.0408,-0.9838,-0.9051,-0.8262,-0.8262,-0.8262,-0.8262,-0.8262,-0.8262,-0.8315,-0.8699,-0.8804,-0.8804,-0.8804,-0.8804,-0.8804,-0.8804,-0.8804,-0.8804,-0.8804,-0.8804,-0.8804,-0.8804,-0.8804,-0.8804,-0.8804,-0.8804,-0.8804,-0.8804,-0.8804,-0.8804,-0.8804,-0.8691,-0.8544,-0.8397,-0.7749,-0.7222,-0.7077,-0.6506,-0.6039,-0.5787,-0.5744,-0.561,-0.5346,-0.5178,-0.509,-0.509,-0.4961,-0.492,-0.492,-0.4613,-0.4471,-0.4542,-0.3949,-0.3713,-0.3802,-0.3517,-0.3388,-0.3463,-0.3385,-0.3392,0.0,0.0,0.0,0.0,0.0,0.0,0.0,0.0,-1.1711,-1.233,-1.3324,-1.424,-1.4817,-1.55,-1.6208,-1.676,-1.6848,-1.7011,-1.7476,-1.6622,-1.5754,-1.5268,-1.53,-1.5418,-1.5609,-1.6351,-1.6901,-1.7092,-1.6873,-1.6978,-1.7578,-1.7034,-1.7034,-1.7797,-1.7786,-1.7895,-1.8015,-1.8015,-1.8015,-1.8015,-1.7895,-1.7523,-1.6922,-1.6765,-1.6063,-1.4817,-1.4506,-1.3747,-1.2796,-1.2547,-1.2329,-1.2069,-1.1751,-1.0676,-0.9295,-0.9232,-0.9211,-0.9211,-0.9211,-0.9113,-0.9008,-0.9008,-0.891,-0.8804,-0.8956,-0.9008,-0.9008,-0.9159,-0.9106,-0.9008,-0.9008,-0.891,-0.8804,-0.8804,-0.8804,-0.8804,-0.8804,-0.891,-0.8956,-0.8804,-0.9008,-0.9159,-0.9008,-0.9113,-0.903,-0.8541,-0.821,-0.7929,-0.7721,-0.7328,-0.6937,-0.6514,-0.6379,-0.6173,-0.569,-0.5511,-0.5484,-0.5484,-0.5347,-0.5248,-0.517,-0.517,-0.4987,-0.4592,-0.4348,-0.4215,-0.41,-0.3755,-0.3667,-0.3751,-0.3694,-0.3622,-1.2061,-1.1957,-1.2446,-1.3816,-1.354,-1.3504,0.0,0.0,-1.4712,-1.5707,-1.6061,-1.6366,-1.6942,-1.7149,-1.7375,-1.7928,-1.8016,-1.8041,-1.8103,-1.7581,-1.7185,-1.7095,-1.5728,-1.5135,-1.602,-1.6199,-1.6625,-1.7487,-1.749,-1.7523,-1.7578,-1.7523,-1.7786,-1.8555,-1.8555,-1.8874,-1.9527,-1.9527,-1.9527,-1.9527,-1.8874,-1.8555,-1.8447,-1.7797,-1.7401,-1.718,-1.6476,-1.5212,-1.3684,-1.3639,-1.3011,-1.2095,-1.2044,-1.1685,-1.1162,-1.0732,-1.0568,-1.0568,-1.0568,-1.0167,-0.9666,-0.9666,-0.9263,-0.8903,-0.9517,-0.9666,-0.9814,-1.0415,-1.0167,-0.9666,-0.9666,-0.9263,-0.8804,-0.8804,-0.8804,-0.8804,-0.8804,-0.9263,-0.951,-0.891,-0.9762,-1.0364,-0.9814,-1.0167,-1.0151,-0.8915,-0.851,-0.831,-0.8326,-0.7815,-0.7415,-0.737,-0.7095,-0.6894,-0.6803,-0.6778,-0.68,-0.68,-0.6774,-0.6552,-0.6054,-0.6054,-0.6023,-0.5967,-0.4923,-0.489,-0.5922,-0.4364,-0.3836,-0.4308,-0.3929,-0.3768,-1.5494,-1.4881,-1.4547,0.0,-1.5673,-1.5429,-1.6573,-1.6863,-1.693,-1.6979,-1.7857,-1.8445,-1.7943,-1.8131,-1.8448,0.0,-1.8415,-1.8447,-1.9132,-1.8193,-1.7501,-1.7827,-1.6602,-1.6164,-1.7243,-1.7676,-1.8106,-1.8826,-1.8501,-1.8447,-1.8886,-1.8489,-1.8555,-1.9307,-1.9679,-2.0023,-2.03,-2.0627,-2.0627,-2.03,-2.0023,-1.9466,-1.8715,-1.8382,-1.8004,-1.7578,-1.7246,-1.6682,-1.5991,-1.5991,-1.5487,-1.4637,-1.4385,-1.3965,-1.3268,-1.1773,-1.1046,-1.0813,-1.0813,-1.0618,-1.0364,-1.0364,-1.021,-1.0012,-1.0312,-1.0115,-0.9865,-1.0167,-0.971,-0.9316,-0.971,-0.9614,-0.9465,-0.9865,-0.9969,-0.9969,-0.9969,-1.0167,-1.0312,-1.0012,-1.0415,-1.0568,-0.9917,-1.0364,-1.0364,-0.9008,-0.8901,-0.8997,-0.8997,-0.8228,-0.7669,-0.7527,-0.7355,-0.7208,-0.7034,-0.6979,-0.6979,-0.6979,-0.6979,-0.6894,-0.6683,-0.6647,-0.652,-0.6227,-0.5701,-0.5524,-0.5658,-0.4961,-0.4803,-0.5136,-0.4997,-0.5065,-1.7427,-1.6952,-1.6519,-1.7452,-1.7432,-1.7229,-1.7406,-1.7985,-1.8385,-1.7957,-1.8919,-1.9513,-1.8578,-1.8745,-1.9148,-1.9528,-1.9194,-1.9295,-2.0307,-1.9081,-1.8216,-1.8629,-1.7661,-1.7402,-1.8564,-1.8735,-1.9083,-1.9748,-1.9319,-1.9254,-1.9747,-1.9307,-1.9328,-2.0037,-2.0451,-2.0794,-2.0945,-2.1292,-2.1292,-2.0945,-2.0794,-2.0159,-1.9262,-1.9052,-1.8608,-1.7895,-1.7895,-1.7797,-1.7578,-1.7578,-1.7302,-1.6778,-1.6481,-1.5951,-1.5174,-1.3373,-1.2201,-1.1523,-1.1418,-1.1275,-1.1065,-1.1065,-1.0965,-1.0813,-1.1015,-1.0762,-1.0364,-1.0576,-1.0174,-0.9762,-1.0218,-1.021,-1.0218,-1.0661,-1.0813,-1.0813,-1.0813,-1.0965,-1.1015,-1.0864,-1.1124,-1.1174,-1.0466,-1.0922,-1.1032,-1.0079,-1.0015,-0.9852,-0.932,-0.8518,-0.7936,-0.7629,-0.756,-0.7419,-0.7161,-0.7068,-0.6979,-0.6979,-0.6979,-0.6937,-0.6768,-0.6937,-0.6768,-0.6227,-0.6184,-0.6044,-0.5776,-0.5538,-0.5613,-0.5962,-0.5903,-0.6088,-1.6875,-1.7525,-1.8362,-1.8604,-1.876,-1.8999,-1.9631,-1.944,-1.9058,-1.9031,-1.91,-1.9073,-1.892,-1.8892,-1.9333,-2.056,-2.0722,-2.0928,-2.1553,-2.0588,-1.983,-1.9858,-1.8797,-1.8535,0.0,-1.8852,-1.8668,-1.9723,-1.9798,-1.9798,-1.9798,-1.9798,-2.0062,-2.0668,-2.0706,-2.097,-2.1455,-2.1481,-2.1481,-2.1455,-2.097,-2.0652,-2.0614,-2.0049,-1.9371,-1.8661,-1.8661,-1.8286,-1.7578,-1.7578,-1.7578,-1.7578,-1.7556,-1.733,-1.6863,-1.6063,-1.4755,-1.3377,-1.2968,-1.2353,-1.1765,-1.1765,-1.1316,-1.0914,-1.1566,-1.1765,-1.1873,-1.2618,-1.2295,-1.1715,-1.1715,-1.1266,-1.0762,-1.0813,-1.0813,-1.0813,-1.0813,-1.1316,-1.1566,-1.0914,-1.19,-1.2608,-1.1873,-1.2353,-1.2822,-1.2774,-1.2178,-1.0998,-0.9047,-0.8588,-0.8243,-0.7902,-0.7642,-0.7506,-0.75,-0.7188,-0.6979,-0.6979,-0.6979,-0.6768,-0.6264,-0.6725,-0.6768,-0.6227,-0.6184,-0.6435,-0.6937,-0.6097,-0.5997,-0.6572,-0.6432,-0.6391,-1.9599,-1.9453,-1.9267,-2.061,-2.0142,-1.9546,-2.0287,-2.0288,-1.9937,-1.9127,-1.9971,-2.0524,-1.962,-1.9793,-2.0385,-2.1249,-2.1036,-2.1153,-2.2215,-2.1307,-2.0581,-2.0581,-1.9905,0.0,0.0,0.0,0.0,-2.0419,-2.0446,-2.0258,-1.9798,-1.9798,-2.0075,-2.0706,-2.1071,-2.1481,-2.2033,-2.2397,-2.2397,-2.2033,-2.1481,-2.1016,-2.0706,-2.0464,-2.0057,-1.9423,-1.9423,-1.9307,-1.9044,-1.9044,-1.8768,-1.834,-1.834,-1.7966,-1.7353,-1.6815,-1.6284,-1.5592,-1.3882,-1.313,-1.2862,-1.2645,-1.2353,-1.2255,-1.2461,-1.2187,-1.1864,-1.208,-1.1674,-1.1266,-1.1665,-1.1616,-1.1566,-1.2098,-1.2206,-1.2206,-1.2206,-1.2353,-1.2461,-1.2255,-1.2569,-1.2666,-1.1922,-1.2403,-1.2715,-1.2236,-1.1972,-1.1416,-1.0261,-1.0066,-0.9864,-0.9579,-0.9479,-0.9175,-0.8509,-0.815,-0.7795,-0.7358,-0.7315,-0.7141,-0.6738,-0.7128,-0.7141,-0.6732,-0.6961,-0.7139,-0.7315,-0.7203,-0.7389,-0.7779,-0.7766,-0.7846,-2.0678,-2.0539,-2.0353,-2.151,-2.1186,-2.0667,-2.0986,-2.106,-2.0807,-1.9962,-2.0421,-2.0789,-2.0055,-1.9938,-2.0372,-2.1496,-2.1378,-2.1584,-2.2848,-2.2147,-2.1539,-2.1539,-2.1026,-2.0884,0.0,0.0,0.0,-2.1081,-2.1113,-2.1059,-2.082,-2.0833,-2.1199,-2.2047,-2.2111,-2.2431,-2.2994,-2.3069,-2.2862,-2.2309,-2.2216,-2.1759,-2.0953,-2.0806,-2.0517,-2.01,-1.9886,-1.9798,-1.9798,-1.9798,-1.9527,-1.9097,-1.9097,-1.8821,-1.8293,-1.782,-1.7599,-1.7292,-1.4935,-1.4013,-1.3801,-1.3283,-1.2998,-1.2881,-1.2881,-1.2559,-1.2187,-1.2187,-1.1882,-1.1633,-1.208,-1.2187,-1.2295,-1.2774,-1.2881,-1.2881,-1.2881,-1.2881,-1.2881,-1.2881,-1.2881,-1.2764,-1.2295,-1.2608,-1.2725,-1.2236,-1.2187,-1.1882,-1.0914,-1.061,-1.0378,-1.0204,-0.988,-0.944,-0.875,-0.8446,-0.8084,-0.7674,-0.7629,-0.7548,-0.7355,-0.7528,-0.7542,-0.7304,-0.7535,-0.7629,-0.7635,-0.7943,-0.8183,-0.8377,-0.8477,-0.8631,-2.0243,-2.0912,-2.1658,-2.156,-2.1973,-2.2329,-2.1901,-2.1753,-2.1575,-2.1275,-2.0396,-1.9778,-2.0073,0.0,-1.9346,-2.1276,-2.165,-2.2143,-2.3415,-2.3131,-2.2787,0.0,0.0,0.0,0.0,0.0,0.0,-2.1941,0.0,-2.2076,-2.2713,-2.274,-2.328,-2.4457,-2.381,-2.3728,-2.4337,-2.359,-2.298,-2.2463,-2.3111,-2.2812,-2.1562,-2.1008,-2.0743,-2.0693,-2.0049,-1.9798,-1.9798,-1.9798,-1.9798,-1.9798,-1.9798,-1.9798,-1.9695,-1.898,-1.8768,-1.8413,-1.6173,-1.5105,-1.4574,-1.3811,-1.3332,-1.3008,-1.2939,-1.2929,-1.2929,-1.2929,-1.2881,-1.2881,-1.2881,-1.2881,-1.2881,-1.2881,-1.2881,-1.2881,-1.2881,-1.2881,-1.2881,-1.2881,-1.2881,-1.2881,-1.2881,-1.2881,-1.2881,-1.2881,-1.2881,-1.2412,-1.1074,-1.0364,-0.9969,-0.9969,-0.9155,-0.8591,-0.8591,-0.8262,-0.8044,-0.7997,-0.7997,-0.7949,-0.7882,-0.7895,-0.7895,-0.7882,-0.7895,-0.7908,-0.7908,-0.825,-0.8397,-0.8404,-0.8677,-0.8804,-2.2266,-2.2731,-2.3184,-2.4248,-2.3556,-2.2768,-2.325,-2.22,-2.0944,-2.0055,-1.9659,-1.9111,-1.7847,0.0,0.0,-2.0034,-2.1036,0.0,-2.3415,-2.3909,0.0,-2.4133,0.0,-2.4672,-2.4837,-2.4866,0.0,0.0,-2.3753,-2.3263,-2.3437,-2.3428,-2.3775,-2.4484,-2.4338,-2.4491,-2.5119,-2.4894,-2.4757,-2.4608,-2.4226,-2.3695,-2.288,-2.1784,-2.1054,-2.0693,-2.0049,-1.9798,-1.9798,-1.9798,-1.9798,-1.9798,-1.9798,-1.9798,-1.9798,-1.9579,-1.9527,-1.9374,-1.8184,-1.719,-1.6155,-1.4792,-1.4535,-1.4569,-1.33,-1.319,-1.3457,-1.3017,-1.2881,-1.2881,-1.2881,-1.2881,-1.2881,-1.2881,-1.2881,-1.2881,-1.2881,-1.2881,-1.2881,-1.2881,-1.2881,-1.2881,-1.2881,-1.2881,-1.2881,-1.2881,-1.2881,-1.2774,-1.2412,-1.2206,-1.2107,-1.2107,-1.1917,-1.155,-1.098,-1.0689,-1.0097,-0.9063,-0.9021,-0.8678,-0.7936,-0.8143,-0.8156,-0.7888,-0.815,-0.8263,-0.8263,-0.8557,-0.8697,-0.8697,-0.8771,-0.8804,-2.3173,-2.3866,-2.4498,-2.5096,-2.4415,-2.3506,-2.3144,-2.1857,-2.0319,-1.9011,-1.8237,0.0,-1.687,-1.7318,0.0,0.0,0.0,0.0,-2.3056,-2.426,-2.4982,0.0,-2.5828,0.0,-2.6406,-2.6406,-2.6395,0.0,-2.5235,-2.4674,-2.4955,-2.4984,-2.5236,-2.5854,-2.5568,-2.5364,-2.5398,-2.5728,-2.5728,-2.5398,-2.5287,-2.4942,-2.4242,-2.2974,-2.2098,-2.1493,0.0,-2.0055,-1.9798,-1.9798,-1.9798,-1.9798,-1.9798,-1.9798,-1.9798,-1.9798,-1.9798,-1.9747,-1.9307,-1.8746,-1.7937,-1.622,-1.5742,-1.5635,-1.4084,-1.39,-1.3993,-1.3163,-1.2881,-1.2881,-1.2881,-1.2881,-1.2881,-1.2881,-1.2881,-1.2881,-1.2881,-1.2881,-1.2881,-1.2881,-1.2881,-1.2881,-1.2881,-1.2881,-1.2881,-1.2881,-1.2881,-1.2881,-1.2881,-1.2608,-1.2403,-1.2403,-1.2147,-1.1792,-1.1416,-1.1225,-1.081,-1.0079,-1.0029,-0.9604,-0.875,-0.8912,-0.8774,-0.8317,-0.8484,-0.8564,-0.8564,-0.8731,-0.8804,-0.8804,-0.8804,-0.8804,-2.36,-2.4591,-2.5511,-2.5144,-2.4891,-2.4329,-2.2571,-2.1178,-1.9767,-1.8166,0.0,-1.5924,-1.6305,-1.6552,-1.7151,-1.86,0.0,-2.1868,-2.2671,-2.4425,-2.5628,-2.5706,-2.6862,-2.7676,-2.7676,-2.7676,-2.7678,-2.7642,-2.6626,-2.6204,-2.6692,-2.6722,-2.6976,-2.761,-2.6982,-2.6336,-2.5728,-2.6336,-2.6336,-2.5728,-2.6229,-2.6176,-2.5522,-2.4207,-2.3278,-2.2671,-2.1348,0.0,-1.9952,-1.985,-1.9798,-1.9798,-1.9798,-1.9798,-1.9798,-1.9798,-1.9798,-1.9798,-1.9798,-1.9798,-1.9492,-1.7705,-1.6945,-1.6489,-1.5115,-1.4795,-1.4612,-1.3456,-1.3162,-1.3113,-1.3065,-1.3017,-1.3017,-1.2929,-1.2881,-1.2881,-1.2881,-1.2881,-1.2881,-1.2881,-1.2881,-1.2881,-1.2881,-1.2881,-1.2881,-1.2881,-1.2881,-1.2881,-1.2881,-1.2344,-1.1972,-1.1972,-1.1425,-1.1074,-1.1074,-1.1074,-1.1023,-1.0965,-1.0914,-1.061,-0.9961,-0.9909,-0.9666,-0.9061,-0.8956,-0.8956,-0.8956,-0.8857,-0.8804,-0.8804,-0.8804,-0.8804,-2.4574,-2.5162,-2.5711,-2.6236,-2.5461,-2.4301,-2.3382,-2.1425,0.0,0.0,-1.6548,-1.5455,-1.4355,-1.5541,-1.687,-1.7362,0.0,0.0,0.0,0.0,-2.6316,0.0,0.0,0.0,0.0,0.0,0.0,0.0,0.0,-2.7834,-2.7445,-2.7445,-2.7505,-2.7625,-2.7473,-2.7357,-2.724,-2.7357,-2.7357,-2.7188,-2.6721,-2.6457,-2.624,-2.4417,-2.3551,-2.3313,-2.1549,0.0,-2.0597,-2.0055,-1.9798,-1.9798,-1.9798,-1.9798,-1.9798,-1.9798,-1.9798,-1.9798,-1.9798,-1.9798,-1.9608,-1.8326,-1.8222,-1.8129,-1.601,-1.5702,-1.5834,-1.4704,-1.4387,-1.4294,-1.3779,-1.3637,-1.3505,-1.3017,-1.2881,-1.2881,-1.2881,-1.2881,-1.2881,-1.2881,-1.2881,-1.2881,-1.2881,-1.2881,-1.2881,-1.2881,-1.2881,-1.2881,-1.2881,-1.2774,-1.2715,-1.2715,-1.2618,-1.252,-1.252,-1.252,-1.2304,-1.1665,-1.1616,-1.1316,-1.0661,-1.0618,-1.0559,-1.0466,-0.9917,-0.9614,-0.9614,-0.9054,-0.8804,-0.8804,-0.8804,-0.8804,-2.4687,-2.5445,-2.6167,-2.6133,-2.5304,-2.4015,-2.2073,0.0,0.0,0.0,-1.5103,-1.4379,-1.3456,0.0,0.0,0.0,0.0,0.0,0.0,0.0,0.0,0.0,0.0,0.0,0.0,0.0,0.0,0.0,0.0,-2.8904,-2.7675,-2.7625,-2.7625,-2.7625,-2.7625,-2.7625,-2.7625,-2.7625,-2.7625,-2.7625,-2.7255,-2.7086,-2.7004,-2.5386,-2.4447,-2.4063,-2.247,0.0,-2.0795,-2.0446,-2.0105,-1.9798,-1.9798,-1.9798,-1.9798,-1.9798,-1.9798,-1.9798,-1.9798,-1.9798,-1.9709,-1.9179,-1.9156,-1.9058,-1.7012,-1.6645,-1.6575,-1.5096,-1.4698,-1.4652,-1.4329,-1.4283,-1.419,-1.3931,-1.361,-1.3286,-1.2978,-1.2881,-1.2881,-1.2881,-1.2881,-1.2881,-1.2881,-1.2881,-1.2881,-1.2881,-1.2881,-1.2881,-1.2881,-1.2881,-1.2881,-1.2881,-1.2881,-1.2881,-1.2881,-1.2881,-1.2764,-1.2393,-1.2344,-1.2039,-1.1366,-1.1316,-1.1166,-1.0813,-1.0466,-1.0312,-1.0312,-0.9666,-0.9309,-0.9309,-0.8956,-0.8804,-2.465,-2.5503,-2.6336,-2.5744,-2.505,-2.3697,-2.072,-1.9068,0.0,-1.4745,-1.3798,-1.3403,-1.313,0.0,-1.5288,0.0,-1.78,0.0,0.0,0.0,0.0,0.0,0.0,0.0,0.0,0.0,0.0,0.0,0.0,0.0,-2.786,-2.781,-2.771,-2.761,-2.7625,-2.7625,-2.7625,-2.7625,-2.7625,-2.7625,-2.7625,-2.7625,-2.7565,-2.6213,-2.5349,-2.4815,-2.3349,0.0,0.0,-2.1028,-2.0597,-2.0003,-2.0003,-1.9952,-1.9798,-1.9798,-1.9798,-1.9798,-1.9798,-1.9798,-1.9798,-1.9798,-1.9723,-1.9345,-1.7922,-1.74,-1.7015,-1.551,-1.5107,-1.5062,-1.4926,-1.488,-1.488,-1.4744,-1.4329,-1.3826,-1.3238,-1.3104,-1.3065,-1.2929,-1.2881,-1.2881,-1.2881,-1.2881,-1.2881,-1.2881,-1.2881,-1.2881,-1.2881,-1.2881,-1.2881,-1.2881,-1.2881,-1.2881,-1.2881,-1.2881,-1.2881,-1.2881,-1.2881,-1.2657,-1.208,-1.203,-1.1774,-1.1275,-1.1065,-1.1015,-1.1015,-1.0218,-0.9814,-0.9762,-0.9106,-0.8804,-2.4843,-2.5316,-2.5693,-2.5625,-2.505,-2.3744,-2.0754,0.0,-1.6914,-1.4893,-1.3704,-1.3115,-1.3328,-1.4017,-1.4905,-1.5932,-1.7681,-1.9543,0.0,0.0,0.0,0.0,0.0,0.0,0.0,0.0,0.0,0.0,0.0,0.0,-2.8479,-2.8415,-2.8189,-2.7625,-2.7625,-2.7625,-2.7625,-2.7625,-2.7625,-2.7625,-2.7625,-2.7625,-2.7565,-2.6213,-2.5553,-2.5431,-2.3533,0.0,0.0,-2.1866,-2.1245,-2.0696,-2.0696,-2.0359,-1.9798,-1.9798,-1.9798,-1.9798,-1.9798,-1.9798,-1.9798,-1.9798,-1.9484,-1.8933,-1.8332,-1.7806,-1.7222,-1.6511,-1.6337,-1.6194,-1.5676,-1.5543,-1.5365,-1.4835,-1.4663,-1.4468,-1.3873,-1.3732,-1.3552,-1.3017,-1.2881,-1.2881,-1.2881,-1.2881,-1.2881,-1.2881,-1.2881,-1.2881,-1.2881,-1.2881,-1.2881,-1.2881,-1.2881,-1.2881,-1.2881,-1.2881,-1.2881,-1.2881,-1.2881,-1.2881,-1.2774,-1.2774,-1.2774,-1.2725,-1.203,-1.1715,-1.1715,-1.0415,-0.9814,-0.9762,-0.9106,-0.8804,-2.3955,-2.4479,-2.4831,-2.4391,-2.4052,-2.2936,-1.9502,0.0,-1.6925,-1.4359,-1.3513,-1.326,-1.3379,-1.3845,-1.4549,-1.5625,-1.662,-1.8076,-2.0331,0.0,0.0,0.0,0.0,0.0,0.0,0.0,0.0,0.0,0.0,0.0,-2.9629,-2.9225,-2.895,-2.867,-2.8319,-2.814,-2.814,-2.776,-2.7625,-2.7625,-2.7625,-2.7625,-2.7565,-2.6213,-2.5615,-2.5525,-2.3911,0.0,0.0,-2.2406,-2.1913,-2.1293,-2.093,-2.066,-2.0346,-1.9952,-1.9798,-1.9798,-1.9798,-1.9798,-1.9748,-1.9434,-1.897,-1.8493,-1.8267,-1.7815,-1.7262,-1.6685,-1.6522,-1.6423,-1.6194,-1.6139,-1.6008,-1.5377,-1.5231,-1.5096,-1.4468,-1.4329,-1.4283,-1.4025,-1.3695,-1.342,-1.342,-1.3152,-1.2881,-1.2881,-1.2881,-1.2881,-1.2881,-1.2881,-1.2881,-1.2881,-1.2881,-1.2881,-1.2881,-1.2881,-1.2881,-1.2881,-1.2881,-1.2881,-1.2881,-1.2881,-1.2881,-1.2881,-1.2608,-1.2452,-1.2452,-1.1074,-1.0415,-1.0364,-0.9309,-0.9008,-2.2926,-2.3613,-2.4066,-2.3528,-2.3241,-2.2158,0.0,-1.7642,-1.6695,-1.3972,-1.3396,-1.3396,-1.3396,-1.3626,-1.4219,-1.5404,-1.6017,-1.7209,-1.9656,0.0,0.0,0.0,0.0,0.0,0.0,0.0,0.0,0.0,0.0,0.0,0.0,-3.0166,-2.9761,-2.9406,-2.9012,-2.8795,-2.8795,-2.8174,-2.786,-2.786,-2.7675,-2.7625,-2.7565,-2.6213,-2.5615,-2.554,0.0,0.0,0.0,-2.2965,-2.2575,-2.1946,-2.1547,-2.1224,-2.0979,-2.0346,-2.0105,-2.0055,-1.985,-1.9798,-1.9748,-1.9371,-1.8781,-1.8204,-1.8204,-1.7702,-1.7049,-1.6635,-1.6522,-1.6522,-1.6522,-1.6522,-1.638,-1.5964,-1.5864,-1.5688,-1.5107,-1.4971,-1.4926,-1.4744,-1.4376,-1.4003,-1.3815,-1.3467,-1.3104,-1.2929,-1.2881,-1.2881,-1.2881,-1.2881,-1.2881,-1.2881,-1.2881,-1.2881,-1.2881,-1.2881,-1.2881,-1.2881,-1.2881,-1.2881,-1.2881,-1.2881,-1.2881,-1.2881,-1.2881,-1.2881,-1.2881,-1.1683,-1.1116,-1.1065,-0.9917,-0.9666,-2.1987,-2.2852,-2.341,-2.3393,-2.2852,-2.1532,-1.8504,-1.7236,-1.6089,-1.3853,-1.3396,-1.3396,-1.3396,-1.3396,-1.3904,-1.5358,-1.6204,-1.7456,-1.9681,0.0,0.0,0.0,0.0,0.0,0.0,0.0,0.0,0.0,0.0,0.0,0.0,-3.119,-3.0617,-2.9451,-2.9406,-2.9406,-2.9406,-2.8779,-2.8511,-2.8463,-2.791,-2.7625,-2.7565,-2.6213,-2.5615,0.0,0.0,0.0,0.0,-2.3595,-2.3231,-2.2694,-2.2694,-2.2253,-2.1615,-2.1028,-2.0795,-2.0696,-2.0055,-1.9798,-1.9798,-1.9798,-1.907,-1.8204,-1.8204,-1.7426,-1.6522,-1.6522,-1.6522,-1.6522,-1.6522,-1.6522,-1.6522,-1.6479,-1.6479,-1.6337,-1.572,-1.5588,-1.541,-1.4835,-1.4698,-1.4514,-1.3909,-1.3768,-1.36,-1.2968,-1.2881,-1.2881,-1.2881,-1.2881,-1.2881,-1.2881,-1.2881,-1.2881,-1.2881,-1.2881,-1.2881,-1.2881,-1.2881,-1.2881,-1.2881,-1.2881,-1.2881,-1.2881,-1.2881,-1.2881,-1.2881,-1.2129,-1.1765,-1.1765,-1.1116,-1.0762,-1.9168,-1.9773,-2.0196,-1.9705,-1.9773,-1.9333,-1.6864,-1.6492,-1.6072,-1.3853,-1.3396,-1.3396,-1.3396,-1.3396,-1.4057,-1.6038,-1.6546,-1.7456,0.0,0.0,0.0,0.0,0.0,0.0,0.0,0.0,0.0,0.0,0.0,0.0,0.0,-3.0717,-3.0494,-3.0642,-3.0208,-3.0038,-3.0038,-2.9012,-2.8511,-2.8511,-2.791,-2.7625,-2.7565,-2.6213,0.0,0.0,0.0,0.0,0.0,-2.3595,-2.3465,-2.3275,-2.2875,-2.2558,-2.2253,-2.1175,-2.0795,-2.0696,-2.0055,-1.9572,-1.9271,-1.9271,-1.853,-1.7639,-1.7639,-1.7112,-1.6522,-1.6522,-1.6522,-1.6522,-1.6522,-1.6522,-1.6522,-1.6522,-1.6522,-1.6466,-1.6238,-1.6238,-1.6151,-1.5976,-1.5599,-1.5276,-1.5039,-1.4365,-1.3873,-1.4107,-1.3789,-1.3647,-1.4071,-1.3789,-1.3505,-1.3505,-1.3152,-1.2881,-1.2881,-1.2881,-1.2881,-1.2881,-1.2881,-1.2881,-1.2881,-1.2881,-1.2881,-1.2881,-1.2881,-1.2881,-1.2881,-1.2187,-1.1566,-1.1116,-1.0914,-1.0559,-1.7127,-1.7929,-1.8369,-1.7912,-1.7946,-1.7625,-1.5967,-1.5731,-1.5392,-1.3735,-1.3396,-1.3396,-1.3396,-1.3396,-1.404,-1.597,-1.6529,-1.7456,0.0,0.0,0.0,0.0,0.0,0.0,0.0,0.0,0.0,0.0,0.0,0.0,0.0,-3.0362,-3.0176,-3.0345,-3.0018,-2.9919,-3.0202,-2.9006,-2.856,-2.8826,-2.7993,-2.749,-2.7171,-2.6093,0.0,0.0,0.0,0.0,0.0,-2.3595,-2.3595,-2.3551,-2.3201,-2.3054,-2.292,-2.1894,-2.1369,-2.1064,-2.0657,-1.9835,-1.9058,-1.9544,-1.876,-1.7614,-1.7187,-1.681,-1.6522,-1.6522,-1.6522,-1.6522,-1.6522,-1.6522,-1.6522,-1.6522,-1.6522,-1.6522,-1.6522,-1.6522,-1.6522,-1.6522,-1.6194,-1.5864,-1.5632,-1.4994,-1.4549,-1.4698,-1.4376,-1.4283,-1.4652,-1.4376,-1.405,-1.3815,-1.3457,-1.3152,-1.2929,-1.2881,-1.2881,-1.2881,-1.2881,-1.2881,-1.2881,-1.2881,-1.2881,-1.2881,-1.2881,-1.2881,-1.2881,-1.2452,-1.1882,-1.1166,-1.1166,-1.0813,0.0,-1.6881,-1.7507,-1.7507,-1.6999,-1.636,-1.5612,-1.4952,0.0,-1.3549,-1.3396,-1.343,-1.3549,-1.3515,-1.4006,-1.5578,-1.6428,0.0,0.0,0.0,0.0,0.0,0.0,0.0,0.0,0.0,0.0,0.0,0.0,0.0,0.0,-2.9973,-2.9617,-2.8924,-2.8876,-2.9211,-3.0023,-2.8837,-2.8547,-2.9262,-2.8021,-2.7111,-2.6497,-2.5839,0.0,0.0,0.0,0.0,0.0,-2.3595,-2.3595,-2.3595,-2.3595,-2.3595,-2.3508,-2.292,-2.23,-2.1744,-2.171,-2.058,-1.928,-2.0283,-1.9481,-1.794,-1.6848,-1.6522,-1.6522,-1.6522,-1.6522,-1.6522,-1.6522,-1.6522,-1.6522,-1.6522,-1.6522,-1.6522,-1.6522,-1.6522,-1.6522,-1.6522,-1.6522,-1.6337,-1.5764,-1.5632,-1.541,-1.4926,-1.4789,-1.4789,-1.4835,-1.4744,-1.4468,-1.3909,-1.3779,-1.3505,-1.2978,-1.2881,-1.2881,-1.2881,-1.2881,-1.2881,-1.2881,-1.2881,-1.2881,-1.2881,-1.2881,-1.2881,-1.2881,-1.2881,-1.251,-1.1814,-1.1814,-1.1466,-1.206,0.0,-1.4428,-1.4428,-1.4733,-1.4817,0.0,-1.4225,-1.4293,-1.3549,-1.3396,-1.3752,-1.4868,-1.4614,-1.5088,-1.7693,-1.8268,0.0,0.0,0.0,0.0,0.0,0.0,0.0,0.0,0.0,0.0,0.0,0.0,0.0,0.0,-2.867,-2.8281,-2.8095,-2.752,-2.7875,-2.9245,-2.8086,-2.7614,-2.779,-2.6627,-2.5989,-2.5809,-2.5151,0.0,0.0,0.0,0.0,-2.3595,-2.3595,-2.3595,-2.3595,-2.3595,-2.3595,-2.3508,-2.292,-2.2603,-2.2392,-2.1899,-2.1137,-2.0259,-1.9208,-1.8287,-1.7438,-1.6735,-1.6522,-1.6522,-1.6522,-1.6522,-1.6522,-1.6522,-1.6522,-1.6522,-1.6522,-1.6522,-1.6522,-1.6522,-1.6522,-1.6522,-1.6522,-1.6522,-1.6466,-1.6324,-1.5908,-1.572,-1.602,-1.5688,-1.5555,-1.602,-1.5242,-1.4663,-1.4514,-1.3658,-1.3065,-1.2929,-1.2881,-1.2881,-1.2881,-1.2881,-1.2881,-1.2881,-1.2881,-1.2881,-1.2881,-1.2881,-1.2881,-1.2881,-1.2881,-1.251,-1.1814,-1.1814,-1.1466,-1.0386,-1.2212,-1.3904,-1.3904,-1.4462,-1.4902,-1.4496,-1.4191,-1.387,-1.3481,0.0,-1.3752,-1.4885,-1.5054,-1.5747,-1.8031,-1.8961,0.0,0.0,0.0,0.0,0.0,0.0,0.0,0.0,0.0,0.0,0.0,0.0,0.0,0.0,-2.8061,-2.762,-2.7317,-2.6911,-2.7249,-2.8433,-2.7547,-2.7179,-2.7294,-2.6361,-2.5666,-2.5151,-2.4792,-2.4403,0.0,0.0,0.0,-2.3595,-2.3595,-2.3595,-2.3595,-2.3595,-2.3595,-2.3551,-2.3231,-2.2934,-2.2694,-2.2606,-2.1843,-2.0602,-1.8859,-1.7904,-1.7275,-1.6685,-1.6522,-1.6522,-1.6522,-1.6522,-1.6522,-1.6522,-1.6522,-1.6522,-1.6522,-1.6522,-1.6522,-1.6522,-1.6522,-1.6522,-1.6522,-1.6522,-1.6522,-1.6522,-1.6238,-1.6139,-1.6466,-1.6238,-1.6151,-1.6479,-1.5932,-1.5421,-1.5141,-1.4294,-1.361,-1.3334,-1.3065,-1.2881,-1.2881,-1.2881,-1.2881,-1.2881,-1.2881,-1.2881,-1.2881,-1.2881,-1.2881,-1.2881,-1.2881,-1.251,-1.1814,-1.1814,-1.1466,-1.0098,-1.245,-1.4596,-1.4394,-1.5054,-1.5731,-1.5629,-1.4614,0.0,0.0,0.0,0.0,0.0,-1.5595,0.0,0.0,0.0,0.0,0.0,0.0,0.0,0.0,0.0,0.0,0.0,0.0,0.0,0.0,0.0,0.0,0.0,-2.7638,-2.7351,-2.6708,-2.6691,-2.6996,-2.7638,-2.7052,-2.6857,-2.7097,-2.6486,-2.5643,-2.4552,-2.4552,-2.4192,-2.3595,0.0,0.0,-2.3595,-2.3595,-2.3595,-2.3595,-2.3595,-2.3595,-2.3595,-2.3595,-2.329,-2.292,-2.3421,-2.2425,-2.067,-1.9187,-1.8122,-1.7283,-1.6789,-1.6552,-1.6522,-1.6522,-1.6522,-1.6522,-1.6522,-1.6522,-1.6522,-1.6522,-1.6522,-1.6522,-1.6522,-1.6522,-1.6522,-1.6522,-1.6522,-1.6522,-1.6522,-1.6522,-1.6522,-1.6522,-1.6522,-1.6522,-1.6522,-1.6423,-1.6151,-1.5543,-1.4915,-1.4329,-1.3732,-1.319,-1.2881,-1.2881,-1.2881,-1.2881,-1.2881,-1.2881,-1.2881,-1.2881,-1.2881,-1.2881,-1.2881,-1.2881,-1.251,-1.1814,-1.1922,-1.1616,-1.1383,-1.365,-1.5122,-1.3887,-1.5073,-1.6377,-1.5731,-1.5409,-1.5257,0.0,0.0,0.0,0.0,0.0,0.0,0.0,0.0,0.0,0.0,0.0,0.0,0.0,0.0,0.0,0.0,0.0,0.0,0.0,0.0,0.0,0.0,-2.686,-2.681,-2.6691,-2.6691,-2.6742,-2.686,-2.6393,-2.6155,-2.618,-2.5635,-2.5044,-2.4436,-2.4436,-2.4139,-2.3595,0.0,-2.3595,-2.3595,-2.3595,-2.3595,-2.3595,-2.3595,-2.3595,-2.3595,-2.3595,-2.3551,-2.3465,-2.3551,-2.2407,-2.0854,-2.0597,-1.9058,-1.7319,-1.7214,-1.6879,-1.6522,-1.6522,-1.6522,-1.6522,-1.6522,-1.6522,-1.6522,-1.6522,-1.6522,-1.6522,-1.6522,-1.6522,-1.6522,-1.6522,-1.6522,-1.6522,-1.6522,-1.6522,-1.6522,-1.6522,-1.6522,-1.6522,-1.6522,-1.6051,-1.5499,-1.4926,-1.4283,-1.3684,-1.3104,-1.2978,-1.2881,-1.2881,-1.2881,-1.2881,-1.2881,-1.2881,-1.2881,-1.2881,-1.2881,-1.2881,-1.2881,-1.2881,-1.251,-1.1814,-1.2452,-1.2344,-1.0178,-1.2397,-1.4327,-1.4056,-1.6255,-1.8403,-1.8042,-1.7371,-1.6796,0.0,0.0,0.0,0.0,0.0,0.0,0.0,0.0,0.0,0.0,0.0,0.0,0.0,0.0,0.0,0.0,0.0,0.0,0.0,0.0,0.0,0.0,0.0,-2.6691,-2.6691,-2.6691,-2.6691,-2.6691,-2.6487,-2.6262,-2.6013,-2.5762,-2.5221,-2.4389,-2.4389,-2.4116,-2.3595,0.0,-2.3595,-2.3595,-2.3595,-2.3595,-2.3595,-2.3595,-2.3595,-2.3595,-2.3595,-2.3385,-2.3101,-2.3101,-2.1889,-2.0359,-2.0359,-1.8975,-1.7312,-1.7312,-1.6909,-1.6522,-1.6522,-1.6522,-1.6522,-1.6522,-1.6522,-1.6522,-1.6522,-1.6522,-1.6522,-1.6522,-1.6522,-1.6522,-1.6522,-1.6522,-1.6522,-1.6522,-1.6522,-1.6522,-1.6522,-1.6522,-1.6522,-1.6522,-1.5952,-1.5499,-1.5231,-1.4365,-1.3684,-1.342,-1.3104,-1.2881,-1.2881,-1.2881,-1.2881,-1.2881,-1.2881,-1.2881,-1.2881,-1.2881,-1.2881,-1.2881,-1.2881,-1.2715,-1.2393,-1.2725,-1.2725,-0.9552,-1.1516,-1.3667,-1.4749,-1.7151,-1.9343,-1.9883,-1.8988,-1.8166,0.0,0.0,0.0,0.0,0.0,0.0,0.0,0.0,0.0,0.0,0.0,0.0,0.0,0.0,0.0,0.0,0.0,0.0,0.0,0.0,0.0,0.0,0.0,-2.6691,-2.6691,-2.6691,-2.6691,-2.6691,-2.6691,-2.6505,-2.6139,-2.6049,-2.5486,-2.4592,-2.4471,-2.4116,-2.3595,-2.3595,-2.3595,-2.3595,-2.3595,-2.3595,-2.3595,-2.3595,-2.3595,-2.3595,-2.3595,-2.3206,-2.2724,-2.2724,-2.1558,-2.0084,-2.0084,-1.8979,-1.7666,-1.7544,-1.7188,-1.6837,-1.6552,-1.6595,-1.668,-1.6522,-1.6522,-1.6522,-1.6522,-1.6522,-1.6522,-1.6522,-1.6522,-1.6522,-1.6522,-1.6522,-1.6522,-1.6522,-1.6522,-1.6522,-1.6522,-1.6522,-1.6522,-1.6522,-1.6095,-1.5776,-1.5632,-1.4767,-1.4097,-1.3815,-1.3238,-1.2881,-1.2881,-1.2881,-1.2881,-1.2881,-1.2881,-1.2881,-1.2881,-1.2881,-1.2881,-1.2881,-1.2881,-1.2881,-1.2881,-1.2881,-1.2881,-1.1468,-1.2703,-1.3904,-1.6021,-1.6749,-1.7473,-1.9529,-1.9401,0.0,-2.0653,0.0,0.0,0.0,0.0,0.0,0.0,0.0,0.0,0.0,0.0,0.0,0.0,0.0,0.0,0.0,0.0,0.0,0.0,0.0,0.0,0.0,0.0,0.0,-2.6691,-2.6691,-2.6691,-2.6691,-2.6691,-2.6691,-2.6657,-2.6227,-2.5689,-2.5144,-2.4632,-2.4116,-2.3595,-2.3595,-2.3595,-2.3595,-2.3595,-2.3595,-2.3595,-2.3595,-2.3595,-2.3595,-2.3595,-2.3206,-2.2724,-2.2724,-2.1814,-2.0631,-2.0631,-1.9801,-1.8688,-1.8185,-1.8027,-1.7787,-1.6795,-1.6879,-1.7105,-1.6637,-1.6522,-1.6522,-1.6522,-1.6522,-1.6522,-1.6522,-1.6522,-1.6522,-1.6522,-1.6522,-1.6522,-1.6522,-1.6522,-1.6522,-1.6522,-1.6522,-1.6522,-1.6522,-1.6479,-1.6238,-1.5676,-1.5543,-1.5039,-1.3909,-1.3238,-1.2881,-1.2881,-1.2881,-1.2881,-1.2881,-1.2881,-1.2881,-1.2881,-1.2881,-1.2881,-1.2881,-1.2881,-1.2881,-1.2881,-1.2881,-1.2881,-0.9958,-1.1753,-1.3718,-1.5003,-1.6373,0.0,0.0,-2.0889,-2.1854,-2.2446,-2.2919,0.0,0.0,0.0,0.0,0.0,0.0,0.0,0.0,0.0,0.0,0.0,0.0,0.0,0.0,0.0,0.0,0.0,0.0,0.0,0.0,0.0,0.0,-2.6691,-2.6691,-2.6691,-2.6691,-2.6691,-2.6691,-2.6691,-2.6505,-2.6016,-2.5182,-2.4989,-2.443,-2.3595,-2.3595,-2.3595,-2.3595,-2.3595,-2.3595,-2.3595,-2.3595,-2.337,-2.3026,-2.3026,-2.2353,-2.1455,-2.1455,-2.0842,-2.0079,-2.0079,-1.9538,-1.8855,-1.865,-1.8145,-1.7504,-1.7118,-1.6909,-1.6752,-1.6552,-1.6522,-1.6522,-1.6522,-1.6522,-1.6522,-1.6522,-1.6522,-1.6522,-1.6522,-1.6522,-1.6522,-1.6522,-1.6522,-1.6522,-1.6522,-1.6522,-1.6522,-1.6522,-1.6194,-1.5864,-1.5632,-1.4949,-1.4143,-1.3334,-1.3017,-1.2881,-1.2881,-1.2881,-1.2881,-1.2881,-1.2881,-1.2881,-1.2881,-1.2881,-1.2881,-1.2881,-1.2881,-1.2881,-1.2881,-1.2881,-1.2881,-0.9603,-1.1635,-1.3921,-1.4665,0.0,0.0,-1.9714,-2.16,-2.3173,-2.3646,-2.4137,0.0,0.0,0.0,0.0,0.0,0.0,0.0,0.0,0.0,0.0,0.0,0.0,0.0,0.0,0.0,0.0,0.0,0.0,0.0,0.0,0.0,0.0,0.0,-2.6691,-2.6691,-2.6691,-2.6691,-2.6691,-2.6691,-2.6691,-2.6158,-2.5182,-2.4855,-2.4266,-2.3595,-2.3595,-2.3595,-2.3595,-2.3595,-2.3595,-2.358,-2.3385,-2.3041,-2.2694,-2.2443,-2.1665,-2.0722,-2.0722,-2.0258,-1.969,-1.969,-1.9442,-1.9132,-1.8968,-1.8496,-1.7987,-1.7666,-1.7435,-1.7188,-1.6837,-1.6637,-1.6522,-1.6522,-1.6522,-1.6522,-1.6522,-1.6522,-1.6522,-1.6522,-1.6522,-1.6522,-1.6522,-1.6522,-1.6522,-1.6522,-1.6522,-1.6522,-1.6522,-1.6139,-1.5864,-1.5864,-1.4949,-1.4143,-1.3525,-1.3286,-1.3104,-1.2929,-1.2881,-1.2881,-1.2881,-1.2881,-1.2881,-1.2881,-1.2881,-1.2881,-1.2881,-1.2881,-1.2881,-1.2881,-1.2881,-1.2881,-1.1096,-1.277,-1.468,-1.5426,0.0,0.0,-1.9849,-2.1201,-2.275,-2.4205,0.0,-2.4523,0.0,0.0,0.0,0.0,0.0,0.0,0.0,0.0,0.0,0.0,0.0,0.0,0.0,0.0,0.0,0.0,0.0,0.0,0.0,0.0,0.0,0.0,-2.6674,-2.6674,-2.6674,-2.6674,-2.6674,-2.6674,-2.6691,-2.6158,-2.5182,-2.4116,-2.3595,-2.3595,-2.3595,-2.3595,-2.3595,-2.358,-2.358,-2.352,-2.2906,-2.2709,-2.2619,-2.1934,-2.1276,-2.0707,-2.0707,-2.0258,-1.969,-1.969,-1.969,-1.9603,-1.908,-1.9281,-1.9479,-1.8419,-1.8496,-1.865,-1.7585,-1.6909,-1.6522,-1.6522,-1.6522,-1.6522,-1.6522,-1.6522,-1.6522,-1.6522,-1.6522,-1.6522,-1.6522,-1.6522,-1.6522,-1.6522,-1.6522,-1.6522,-1.6522,-1.6522,-1.6522,-1.6479,-1.5964,-1.5365,-1.4744,-1.4143,-1.3552,-1.2929,-1.2881,-1.2881,-1.2881,-1.2881,-1.2881,-1.2881,-1.2881,-1.2881,-1.2881,-1.2881,-1.2881,-1.2881,-1.2881,-1.2881,-1.0514,-1.2992,0.0,-1.5623,0.0,0.0,0.0,-2.2395,0.0,0.0,0.0,0.0,0.0,0.0,0.0,0.0,0.0,0.0,0.0,0.0,0.0,0.0,0.0,0.0,0.0,0.0,0.0,0.0,0.0,0.0,0.0,0.0,0.0,0.0,-2.5135,-2.5135,-2.5135,-2.5659,-2.593,-2.593,-2.6133,-2.5835,-2.5221,-2.5259,-2.4855,-2.4168,-2.4013,-2.3756,-2.3406,-2.2591,-2.2263,-2.2248,-2.2054,-2.171,-2.1276,-2.1081,-2.0572,-1.9989,-1.9989,-1.9854,-1.969,-1.969,-1.969,-1.969,-1.953,-1.9332,-1.908,-1.8727,-1.8224,-1.7706,-1.7394,-1.6909,-1.6522,-1.6522,-1.6522,-1.6522,-1.6522,-1.6522,-1.6522,-1.6522,-1.6522,-1.6522,-1.6522,-1.6522,-1.6522,-1.6522,-1.6522,-1.6522,-1.6522,-1.6522,-1.6337,-1.5908,-1.532,-1.4732,-1.4097,-1.3505,-1.3104,-1.2929,-1.2881,-1.2881,-1.2881,-1.2881,-1.2881,-1.2881,-1.2881,-1.2881,-1.2881,-1.2881,-1.2881,-1.2881,-1.2881,-1.2608,-1.2389,-1.4861,0.0,-1.7755,-1.9858,-2.1904,-2.2023,0.0,0.0,0.0,0.0,0.0,0.0,0.0,0.0,0.0,0.0,0.0,0.0,0.0,0.0,0.0,0.0,0.0,0.0,0.0,0.0,0.0,0.0,0.0,0.0,0.0,0.0,0.0,-2.4506,-2.4506,-2.4506,-2.4932,-2.5152,-2.5169,-2.533,-2.5122,-2.4608,-2.5062,-2.4879,-2.4233,-2.3674,-2.3208,-2.2925,-2.2067,-2.1695,-2.1665,-2.141,-2.1066,-2.0677,-2.0408,-2.0049,-1.969,-1.969,-1.969,-1.969,-1.969,-1.969,-1.969,-1.969,-1.9479,-1.9207,-1.9207,-1.8727,-1.8224,-1.7987,-1.7706,-1.7312,-1.6637,-1.6522,-1.6522,-1.6522,-1.6522,-1.6522,-1.6522,-1.6522,-1.6522,-1.6522,-1.6522,-1.6522,-1.6522,-1.6522,-1.6522,-1.6522,-1.6522,-1.6281,-1.5676,-1.5276,-1.4732,-1.3862,-1.3467,-1.3152,-1.2929,-1.2881,-1.2881,-1.2881,-1.2881,-1.2881,-1.2881,-1.2881,-1.2881,-1.2881,-1.2881,-1.2764,-1.2452,-1.2452,-1.2089,-1.5354,0.0,0.0,-2.0651,-2.115,0.0,0.0,0.0,0.0,0.0,0.0,0.0,0.0,0.0,0.0,0.0,0.0,0.0,0.0,0.0,0.0,0.0,0.0,0.0,0.0,0.0,0.0,0.0,0.0,0.0,0.0,0.0,0.0,-2.432,-2.432,-2.432,-2.432,-2.4388,-2.4421,-2.4421,-2.4472,-2.4255,-2.377,-2.4045,-2.4104,-2.3971,-2.277,-2.2251,-2.2167,-2.1758,-2.1554,-2.1455,-2.0857,-2.0617,-2.0543,-1.9914,-1.969,-1.969,-1.969,-1.969,-1.969,-1.969,-1.969,-1.969,-1.969,-1.969,-1.969,-1.969,-1.9639,-1.9479,-1.8968,-1.8779,-1.838,-1.6879,-1.6552,-1.6552,-1.6522,-1.6522,-1.6522,-1.6522,-1.6522,-1.6522,-1.6522,-1.6522,-1.6522,-1.6522,-1.6522,-1.6522,-1.6522,-1.6522,-1.6281,-1.5732,-1.5632,-1.5174,-1.4039,-1.3862,-1.3552,-1.3017,-1.2929,-1.2881,-1.2881,-1.2881,-1.2881,-1.2881,-1.2881,-1.2881,-1.2881,-1.2822,-1.2501,-1.1913,-1.1814,-1.1458,-1.3209,-1.5456,0.0,0.0,-2.0643,0.0,0.0,0.0,0.0,0.0,0.0,0.0,0.0,0.0,0.0,0.0,0.0,0.0,0.0,0.0,0.0,0.0,0.0,0.0,0.0,0.0,0.0,0.0,0.0,0.0,0.0,0.0,0.0,-2.2784,-2.2784,-2.2784,-2.2784,-2.3342,-2.363,0.0,-2.4205,-2.4444,-2.4334,-2.4408,-2.4093,-2.3496,-2.2555,-2.18,-2.1256,-2.0798,-2.0406,-2.0109,-1.9959,-1.9914,-1.9884,-1.9735,-1.969,-1.969,-1.969,-1.969,-1.969,-1.969,-1.969,-1.969,-1.969,-1.969,-1.969,-1.969,-1.9406,-1.8968,-1.8419,-1.7947,-1.7463,-1.668,-1.6837,-1.6993,-1.6595,-1.6522,-1.6522,-1.6522,-1.6522,-1.6522,-1.6522,-1.6522,-1.6522,-1.6522,-1.6522,-1.6522,-1.6522,-1.6522,-1.6466,-1.6337,-1.5864,-1.5499,-1.5219,-1.4318,-1.3721,-1.3589,-1.3152,-1.2881,-1.2881,-1.2881,-1.2881,-1.2881,-1.2881,-1.2881,-1.2881,-1.2344,-1.2236,-1.2666,-1.208,-1.1715,-1.3574,0.0,0.0,-1.9728,0.0,0.0,0.0,0.0,0.0,0.0,0.0,0.0,0.0,0.0,0.0,0.0,0.0,0.0,0.0,0.0,0.0,0.0,0.0,0.0,0.0,0.0,0.0,0.0,0.0,0.0,0.0,-2.231,-2.231,-2.231,-2.231,-2.231,-2.231,-2.2682,-2.2868,-2.2885,-2.3257,-2.3444,-2.346,-2.3799,-2.3562,-2.2811,-2.197,-2.1359,-2.0959,-2.0296,-1.9874,-1.969,-1.969,-1.969,-1.969,-1.969,-1.969,-1.969,-1.969,-1.969,-1.969,-1.969,-1.969,-1.969,-1.969,-1.969,-1.969,-1.969,-1.9479,-1.9207,-1.893,-1.865,-1.8263,-1.7463,-1.7076,-1.6837,-1.6552,-1.6522,-1.6522,-1.6522,-1.6522,-1.6522,-1.6522,-1.6522,-1.6522,-1.6522,-1.6522,-1.6522,-1.6522,-1.6522,-1.638,-1.6095,-1.5776,-1.5365,-1.4767,-1.4179,-1.3684,-1.3372,-1.3055,-1.2881,-1.2881,-1.2881,-1.2881,-1.2881,-1.2881,-1.2881,-1.2881,-1.2501,-1.2344,-1.2344,-1.1972,-1.1616,-1.3984,0.0,-1.8291,-2.0225,-2.1053,0.0,0.0,0.0,0.0,0.0,0.0,0.0,0.0,0.0,0.0,0.0,0.0,0.0,0.0,0.0,0.0,0.0,0.0,0.0,0.0,0.0,0.0,0.0,0.0,0.0,-2.231,-2.231,-2.231,-2.231,-2.231,-2.231,-2.231,-2.231,-2.231,-2.231,-2.231,-2.231,-2.2327,-2.2936,-2.2885,-2.2254,-2.1401,-2.0991,-2.0942,-2.0139,-1.9747,-1.969,-1.969,-1.969,-1.969,-1.969,-1.969,-1.969,-1.969,-1.969,-1.969,-1.969,-1.969,-1.969,-1.969,-1.969,-1.969,-1.969,-1.969,-1.969,-1.9603,-1.9479,-1.9169,-1.8185,-1.7188,-1.6522,-1.6522,-1.6522,-1.6522,-1.6522,-1.6522,-1.6522,-1.6522,-1.6522,-1.6522,-1.6522,-1.6522,-1.6522,-1.6522,-1.6522,-1.6293,-1.582,-1.5776,-1.5365,-1.4365,-1.419,-1.3873,-1.3248,-1.3104,-1.3017,-1.2881,-1.2881,-1.2881,-1.2881,-1.2881,-1.2881,-1.2881,-1.2774,-1.2452,-1.1972,-1.1715,-1.1416,0.0,0.0,-1.7809,0.0,0.0,0.0,0.0,0.0,0.0,0.0,0.0,0.0,0.0,0.0,0.0,0.0,0.0,0.0,0.0,0.0,0.0,0.0,0.0,0.0,0.0,0.0,0.0,0.0,0.0,0.0,-2.231,-2.231,-2.231,-2.231,-2.231,-2.231,-2.231,-2.231,-2.231,-2.231,-2.231,-2.231,-2.231,-2.2412,-2.2395,-2.2254,-2.1401,-2.0991,-2.0959,-2.0431,-2.0,-1.969,-1.969,-1.969,-1.969,-1.969,-1.969,-1.969,-1.969,-1.969,-1.969,-1.969,-1.969,-1.969,-1.969,-1.969,-1.969,-1.969,-1.969,-1.9603,-1.9132,-1.865,-1.8185,-1.7544,-1.6951,-1.6522,-1.6522,-1.6522,-1.6522,-1.6522,-1.6522,-1.6522,-1.6522,-1.6522,-1.6522,-1.6522,-1.6522,-1.6522,-1.6522,-1.6522,-1.6466,-1.638,-1.638,-1.6293,-1.6151,-1.5676,-1.5096,-1.4525,-1.3967,-1.3467,-1.2929,-1.2881,-1.2881,-1.2881,-1.2881,-1.2881,-1.2881,-1.2236,-1.2236,-1.2725,-1.1484,-1.1216,-1.1925,-1.4357,-1.6713,0.0,0.0,0.0,0.0,0.0,0.0,0.0,0.0,0.0,0.0,0.0,0.0,0.0,0.0,0.0,0.0,0.0,0.0,0.0,0.0,0.0,0.0,0.0,0.0,0.0,0.0,-2.231,-2.231,-2.231,-2.231,-2.231,-2.231,-2.231,-2.231,-2.231,-2.231,-2.231,-2.231,-2.231,-2.231,-2.231,-2.2163,-2.1899,-2.1507,-2.1039,-2.0583,-2.0382,-2.0054,-1.969,-1.969,-1.969,-1.969,-1.969,-1.969,-1.969,-1.969,-1.969,-1.969,-1.969,-1.969,-1.969,-1.969,-1.969,-1.969,-1.969,-1.969,-1.9566,-1.9043,-1.8968,-1.8779,-1.7947,-1.7787,-1.7666,-1.7076,-1.671,-1.6522,-1.6522,-1.6522,-1.6522,-1.6522,-1.6522,-1.6522,-1.6522,-1.6522,-1.6522,-1.6522,-1.6522,-1.6522,-1.6522,-1.6522,-1.638,-1.6008,-1.5466,-1.4835,-1.4236,-1.3647,-1.32,-1.2929,-1.2881,-1.2881,-1.2881,-1.2881,-1.2881,-1.2881,-1.2187,-1.1972,-1.2246,-1.1275,-1.1166,0.0,0.0,-1.4991,0.0,0.0,0.0,0.0,0.0,0.0,0.0,0.0,0.0,0.0,0.0,0.0,0.0,0.0,0.0,0.0,0.0,0.0,0.0,0.0,0.0,0.0,0.0,0.0,0.0,0.0,-2.231,-2.231,-2.231,-2.231,-2.231,-2.231,-2.231,-2.231,-2.231,-2.231,-2.231,-2.231,-2.231,-2.231,-2.231,-2.2003,-2.143,-2.143,-2.107,-2.0449,-2.0261,-1.9965,-1.969,-1.969,-1.969,-1.969,-1.969,-1.969,-1.969,-1.969,-1.969,-1.969,-1.969,-1.969,-1.969,-1.969,-1.969,-1.969,-1.969,-1.969,-1.9603,-1.9207,-1.9281,-1.9244,-1.8341,-1.8302,-1.8263,-1.7463,-1.6879,-1.6522,-1.6522,-1.6522,-1.6522,-1.6522,-1.6522,-1.6522,-1.6522,-1.6522,-1.6522,-1.6522,-1.6522,-1.6522,-1.6522,-1.6522,-1.6238,-1.5632,-1.5186,-1.4595,-1.3862,-1.3372,-1.3065,-1.2929,-1.2881,-1.2881,-1.2881,-1.2881,-1.2822,-1.2608,-1.2236,-1.1972,-1.1765,-1.1266,-1.1316,0.0,-1.1032,0.0,0.0,0.0,0.0,0.0,0.0,0.0,0.0,0.0,0.0,0.0,0.0,0.0,0.0,0.0,0.0,0.0,0.0,0.0,0.0,0.0,0.0,0.0,0.0,0.0,0.0,0.0,-2.231,-2.231,-2.231,-2.231,-2.231,-2.231,-2.231,-2.231,-2.231,-2.231,-2.231,-2.231,-2.231,-2.231,-2.231,-2.1857,-2.1023,-2.1023,-2.1007,-2.0894,-2.0085,-1.9711,-1.969,-1.969,-1.969,-1.969,-1.969,-1.969,-1.969,-1.969,-1.969,-1.969,-1.969,-1.969,-1.969,-1.969,-1.969,-1.969,-1.969,-1.969,-1.969,-1.969,-1.9281,-1.8817,-1.8224,-1.7747,-1.7394,-1.7312,-1.6879,-1.6522,-1.6522,-1.6522,-1.6522,-1.6522,-1.6522,-1.6522,-1.6522,-1.6522,-1.6522,-1.6522,-1.6522,-1.6522,-1.6522,-1.6522,-1.6238,-1.5632,-1.5588,-1.5039,-1.3862,-1.3768,-1.3515,-1.2929,-1.2881,-1.2881,-1.2881,-1.2881,-1.2559,-1.1864,-1.251,-1.2501,-1.1814,-1.1765,-1.1765,0.0,0.0,0.0,0.0,0.0,0.0,0.0,0.0,0.0,0.0,0.0,0.0,0.0,0.0,0.0,0.0,0.0,0.0,0.0,0.0,0.0,0.0,0.0,0.0,0.0,0.0,0.0,0.0,0.0,0.0,-2.231,-2.231,-2.231,-2.231,-2.231,-2.231,-2.231,-2.231,-2.231,-2.231,-2.231,-2.231,-2.2282,-2.2003,-2.1688,-2.1368,-2.1118,-2.0665,-2.0208,-2.0715,-2.0583,-2.0124,-2.0413,-2.033,-2.0089,-2.0089,-1.9909,-1.969,-1.969,-1.969,-1.969,-1.969,-1.969,-1.969,-1.969,-1.969,-1.969,-1.969,-1.969,-1.9603,-1.9281,-1.9281,-1.9369,-1.9169,-1.8727,-1.8224,-1.7907,-1.7394,-1.6993,-1.6993,-1.6752,-1.6522,-1.6522,-1.6522,-1.6522,-1.6522,-1.6522,-1.6522,-1.6522,-1.6522,-1.6522,-1.6522,-1.6139,-1.6008,-1.6139,-1.5466,-1.5005,-1.4949,-1.4226,-1.3684,-1.3505,-1.3104,-1.2881,-1.2881,-1.2881,-1.2774,-1.2501,-1.2295,-1.208,-1.1765,-1.1366,-1.1166,-0.8993,0.0,0.0,0.0,0.0,0.0,0.0,0.0,0.0,0.0,0.0,0.0,0.0,0.0,0.0,0.0,0.0,0.0,0.0,0.0,0.0,0.0,0.0,0.0,0.0,0.0,0.0,0.0,0.0,0.0,-2.231,-2.231,-2.231,-2.231,-2.231,-2.231,-2.231,-2.231,-2.231,-2.231,-2.231,-2.231,-2.2282,-2.1974,-2.1764,-2.1582,-2.1477,-2.0926,-2.0208,-2.1055,-2.0959,-2.0348,-2.0649,-2.0483,-2.0089,-2.0089,-1.9945,-1.969,-1.969,-1.969,-1.969,-1.969,-1.969,-1.969,-1.969,-1.969,-1.969,-1.969,-1.969,-1.9603,-1.9244,-1.9281,-1.9442,-1.9442,-1.8893,-1.838,-1.838,-1.7827,-1.7229,-1.7076,-1.6752,-1.6522,-1.6522,-1.6522,-1.6522,-1.6522,-1.6522,-1.6522,-1.6522,-1.6522,-1.6522,-1.6522,-1.6139,-1.5964,-1.6194,-1.5466,-1.5005,-1.5005,-1.4226,-1.3732,-1.3505,-1.3104,-1.2881,-1.2881,-1.2881,-1.2881,-1.2881,-1.2403,-1.1931,-1.1466,-1.1266,-1.0914,0.0,0.0,0.0,0.0,0.0,0.0,0.0,0.0,0.0,0.0,0.0,0.0,0.0,0.0,0.0,0.0,0.0,0.0,0.0,0.0,0.0,0.0,0.0,0.0,0.0,0.0,0.0,0.0,0.0,-2.231,-2.231,-2.231,-2.231,-2.231,-2.231,-2.231,-2.231,-2.231,-2.231,-2.231,-2.231,-2.231,-2.231,-2.2282,-2.2032,-2.1628,-2.2077,-2.1781,-2.1023,-2.1023,-2.0748,-2.0314,-2.0333,-2.0089,-1.9711,-1.9711,-1.9711,-1.969,-1.969,-1.969,-1.969,-1.969,-1.969,-1.969,-1.969,-1.969,-1.969,-1.969,-1.969,-1.969,-1.969,-1.9332,-1.893,-1.893,-1.8145,-1.7666,-1.8688,-1.8066,-1.7146,-1.6637,-1.6522,-1.6522,-1.6522,-1.6522,-1.6522,-1.6522,-1.6522,-1.6522,-1.6522,-1.6522,-1.6522,-1.6522,-1.6466,-1.6238,-1.5676,-1.5632,-1.5096,-1.3956,-1.3862,-1.36,-1.3017,-1.2929,-1.2929,-1.2929,-1.2929,-1.2881,-1.2881,-1.2881,-1.2157,-1.0864,-1.1466,-1.1065,-0.7856,0.0,0.0,0.0,0.0,0.0,0.0,0.0,0.0,0.0,0.0,0.0,0.0,0.0,0.0,0.0,0.0,0.0,0.0,0.0,0.0,0.0,0.0,0.0,0.0,0.0,0.0,0.0,-2.231,-2.231,-2.231,-2.231,-2.231,-2.231,-2.231,-2.231,-2.231,-2.231,-2.231,-2.231,-2.231,-2.231,-2.2282,-2.1957,-2.1718,-2.1628,-2.1718,-2.1658,-2.143,-2.143,-2.1181,-2.0829,-2.1134,-2.0797,-2.0193,-2.0499,-2.0243,-1.969,-1.969,-1.969,-1.969,-1.969,-1.969,-1.969,-1.969,-1.969,-1.969,-1.969,-1.969,-1.969,-1.969,-1.9603,-1.9479,-1.9479,-1.9244,-1.9006,-1.893,-1.838,-1.7827,-1.7706,-1.7353,-1.6951,-1.6552,-1.6522,-1.6522,-1.6522,-1.6522,-1.6522,-1.6522,-1.6522,-1.6522,-1.6522,-1.6095,-1.5952,-1.6238,-1.5864,-1.5632,-1.5744,-1.532,-1.505,-1.4869,-1.4003,-1.3552,-1.3552,-1.3104,-1.2881,-1.2881,-1.2344,-1.1873,-1.1516,-1.1216,-1.1166,-0.8243,-0.8304,0.0,0.0,0.0,0.0,0.0,0.0,0.0,0.0,0.0,0.0,0.0,0.0,0.0,0.0,0.0,0.0,0.0,0.0,0.0,0.0,0.0,0.0,0.0,0.0,0.0,-2.231,-2.231,-2.231,-2.231,-2.231,-2.231,-2.231,-2.231,-2.231,-2.231,-2.231,-2.231,-2.231,-2.231,-2.231,-2.2282,-2.2032,-2.1899,-2.1899,-2.1899,-2.1899,-2.1853,-2.1507,-2.1306,-2.1244,-2.1337,-2.091,-2.0314,-2.0431,-2.0154,-1.969,-1.969,-1.9818,-1.9929,-1.9929,-2.007,-2.0208,-2.0,-1.9929,-1.9909,-1.9747,-1.969,-1.969,-1.969,-1.969,-1.969,-1.969,-1.953,-1.9332,-1.9244,-1.8817,-1.8302,-1.7867,-1.7353,-1.6879,-1.6552,-1.6522,-1.6522,-1.6522,-1.6522,-1.6522,-1.6522,-1.6522,-1.6522,-1.6522,-1.6194,-1.6139,-1.6466,-1.6194,-1.6008,-1.6139,-1.5555,-1.5096,-1.4858,-1.392,-1.342,-1.342,-1.3055,-1.2774,-1.2452,-1.2344,-1.208,-1.1765,-1.0813,-1.061,-0.9032,-0.9115,0.0,0.0,0.0,0.0,-1.1901,-1.155,0.0,0.0,0.0,0.0,0.0,0.0,0.0,0.0,0.0,0.0,0.0,0.0,0.0,0.0,0.0,0.0,0.0,-2.2158,-2.2209,-2.2209,-2.2282,-2.231,-2.231,-2.231,-2.231,-2.231,-2.231,-2.231,-2.231,-2.231,-2.231,-2.231,-2.231,-2.231,-2.231,-2.231,-2.231,-2.231,-2.2237,-2.2237,-2.2254,-2.1415,-2.1275,-2.1552,-2.115,-2.0764,-2.0348,-2.005,-1.9874,-1.9854,-1.9854,-2.0035,-2.0314,-2.0314,-2.055,-2.0764,-2.0348,-2.0212,-2.0158,-1.9818,-1.969,-1.969,-1.969,-1.969,-1.969,-1.969,-1.9332,-1.9132,-1.9603,-1.9281,-1.8612,-1.7666,-1.7034,-1.668,-1.6595,-1.6552,-1.6522,-1.6522,-1.6522,-1.6522,-1.6522,-1.6522,-1.6522,-1.6522,-1.6522,-1.6522,-1.6522,-1.6522,-1.6281,-1.572,-1.5197,-1.4652,-1.4133,-1.3467,-1.3104,-1.32,-1.3065,-1.2598,-1.1814,-1.2403,-1.2353,-1.1665,-1.0364,-0.9865,-1.0371,0.0,0.0,0.0,0.0,0.0,0.0,-1.0249,0.0,0.0,0.0,0.0,0.0,0.0,0.0,0.0,0.0,0.0,0.0,0.0,0.0,0.0,0.0,0.0,0.0,-2.1239,-2.1718,-2.1718,-2.2106,-2.231,-2.231,-2.231,-2.231,-2.231,-2.231,-2.231,-2.231,-2.231,-2.231,-2.231,-2.231,-2.231,-2.231,-2.231,-2.231,-2.2282,-2.1899,-2.1957,-2.2254,-2.1705,-2.1521,-2.1552,-2.115,-2.0926,-2.0894,-2.1134,-2.1007,-2.0731,-2.0731,-2.055,-2.0314,-2.0314,-2.0124,-1.9945,-1.9839,-1.9818,-1.9818,-1.9711,-1.969,-1.969,-1.969,-1.969,-1.969,-1.969,-1.9603,-1.9566,-1.969,-1.9281,-1.8855,-1.8612,-1.8145,-1.7666,-1.7229,-1.6795,-1.6522,-1.6522,-1.6522,-1.6522,-1.6522,-1.6522,-1.6522,-1.6522,-1.6522,-1.6522,-1.6522,-1.6522,-1.6466,-1.6324,-1.6194,-1.6107,-1.5976,-1.4926,-1.456,-1.505,-1.4143,-1.2996,-1.1814,-1.1425,-1.1124,-1.0965,-1.0167,-1.0064,0.0,0.0,0.0,-1.1311,0.0,0.0,0.0,0.0,0.0,0.0,0.0,0.0,0.0,0.0,0.0,0.0,0.0,0.0,0.0,0.0,0.0,0.0,0.0,0.0,0.0,-2.0289,-2.0933,-2.129,-2.1705,-2.1957,-2.1957,-2.2163,-2.231,-2.231,-2.231,-2.231,-2.231,-2.231,-2.231,-2.231,-2.231,-2.231,-2.231,-2.231,-2.231,-2.2282,-2.2032,-2.2077,-2.2254,-2.1794,-2.1718,-2.1899,-2.1477,-2.1306,-2.1306,-2.1306,-2.1181,-2.0991,-2.0991,-2.0991,-2.0959,-2.0959,-2.0975,-2.091,-2.0481,-2.005,-1.969,-1.969,-1.969,-1.969,-1.969,-1.969,-1.969,-1.969,-1.969,-1.969,-1.969,-1.9479,-1.9281,-1.9281,-1.8855,-1.8263,-1.7422,-1.6879,-1.6522,-1.6522,-1.6522,-1.6522,-1.6522,-1.6522,-1.6522,-1.6522,-1.6522,-1.6522,-1.6522,-1.6522,-1.6522,-1.6522,-1.6238,-1.6051,-1.6051,-1.4869,-1.4236,-1.4236,-1.3647,-1.2822,-1.1814,-1.1116,-1.0813,-1.0762,-1.0115,-0.9961,0.0,0.0,0.0,0.0,0.0,-1.2553,0.0,0.0,0.0,-1.2006,0.0,0.0,0.0,0.0,0.0,0.0,0.0,0.0,0.0,0.0,0.0,0.0,0.0,0.0,0.0,-1.8962,-1.9755,-2.0651,-2.095,-2.1205,-2.1503,-2.2022,-2.231,-2.231,-2.231,-2.2254,-2.218,-2.2237,-2.2237,-2.218,-2.2254,-2.231,-2.231,-2.231,-2.231,-2.2282,-2.2209,-2.2209,-2.2254,-2.1794,-2.1899,-2.2237,-2.1794,-2.1658,-2.1705,-2.1385,-2.126,-2.126,-2.126,-2.1399,-2.1582,-2.1582,-2.1794,-2.1915,-2.1229,-2.0514,-1.9945,-1.9945,-1.9945,-1.9945,-1.9945,-1.9945,-1.9909,-1.9854,-1.9818,-1.9782,-1.9711,-1.969,-1.969,-1.969,-1.9169,-1.8458,-1.7585,-1.6993,-1.6637,-1.6522,-1.6522,-1.6522,-1.6522,-1.6522,-1.6522,-1.6522,-1.6522,-1.6522,-1.6522,-1.6522,-1.6522,-1.6522,-1.5908,-1.5588,-1.5588,-1.4549,-1.3647,-1.2929,-1.3017,-1.2638,-1.1814,-1.1266,-1.0914,-1.0762,-0.9961,-0.9666,0.0,0.0,0.0,0.0,-1.486,0.0,0.0,0.0,-1.2051,-1.0533,0.0,0.0,0.0,0.0,0.0,0.0,0.0,0.0,0.0,0.0,0.0,0.0,0.0,0.0,0.0,0.0,-1.7802,-1.9531,-1.9369,-1.9807,-2.1174,-2.191,-2.231,-2.231,-2.231,-2.2106,-2.1688,-2.2106,-2.2106,-2.1688,-2.2106,-2.231,-2.231,-2.231,-2.231,-2.2282,-2.1869,-2.1928,-2.2254,-2.1794,-2.1899,-2.2237,-2.1794,-2.1853,-2.2209,-2.218,-2.2152,-2.2152,-2.2152,-2.1899,-2.1582,-2.1582,-2.1399,-2.1134,-2.1039,-2.0926,-2.0862,-2.0862,-2.0862,-2.0862,-2.0862,-2.0862,-2.0764,-2.0314,-2.0212,-2.0124,-1.9782,-1.969,-1.969,-1.969,-1.8893,-1.8145,-1.8027,-1.7544,-1.7034,-1.6552,-1.6522,-1.6522,-1.6522,-1.6522,-1.6522,-1.6522,-1.6522,-1.6522,-1.6522,-1.6522,-1.6522,-1.6522,-1.5908,-1.5588,-1.5588,-1.496,-1.4071,-1.2929,-1.342,-1.3092,-1.1814,-1.1715,-1.1366,-1.0771,-0.951,-0.9211,0.0,0.0,0.0,0.0,0.0,0.0,-1.2523,0.0,-1.1625,0.0,0.0,0.0,0.0,0.0,0.0,0.0,0.0,0.0,0.0,0.0,0.0,0.0,0.0,0.0,0.0,0.0,0.0,0.0,0.0,-1.8202,-1.9511,-2.045,-2.1157,-2.1538,-2.1764,-2.1794,-2.1582,-2.2077,-2.2209,-2.2003,-2.2209,-2.231,-2.231,-2.231,-2.231,-2.2282,-2.2106,-2.2106,-2.2282,-2.2106,-2.2106,-2.2282,-2.2077,-2.2135,-2.231,-2.231,-2.231,-2.231,-2.231,-2.218,-2.2003,-2.2003,-2.1705,-2.1337,-2.1337,-2.1181,-2.0991,-2.0991,-2.0991,-2.0991,-2.0991,-2.0991,-2.0959,-2.0764,-2.0483,-2.0246,-2.0089,-1.9874,-1.969,-1.969,-1.9332,-1.893,-1.8612,-1.7585,-1.6879,-1.6951,-1.671,-1.6595,-1.6909,-1.668,-1.6522,-1.6522,-1.6522,-1.6522,-1.6522,-1.6522,-1.6337,-1.6008,-1.541,-1.4915,-1.4584,-1.4318,-1.3789,-1.2929,-1.3152,-1.2783,-1.1814,-1.1814,-1.1466,-1.0762,-0.9814,-0.951,-1.4468,0.0,0.0,0.0,0.0,0.0,0.0,0.0,0.0,0.0,0.0,0.0,0.0,0.0,0.0,0.0,0.0,0.0,0.0,0.0,0.0,0.0,0.0,0.0,0.0,0.0,0.0,0.0,0.0,-1.6314,-1.8013,-1.9138,-2.0044,-2.0718,-2.1178,-2.1368,-2.1259,-2.184,-2.2049,-2.1945,-2.218,-2.231,-2.231,-2.231,-2.231,-2.231,-2.231,-2.231,-2.231,-2.231,-2.231,-2.231,-2.231,-2.231,-2.231,-2.231,-2.231,-2.231,-2.231,-2.231,-2.231,-2.231,-2.2077,-2.1794,-2.1794,-2.1584,-2.137,-2.137,-2.137,-2.137,-2.137,-2.137,-2.1291,-2.1071,-2.0748,-2.0416,-2.0193,-1.9909,-1.969,-1.969,-1.9566,-1.9369,-1.8968,-1.7947,-1.7188,-1.7312,-1.6951,-1.6795,-1.7034,-1.6752,-1.6522,-1.6522,-1.6522,-1.6522,-1.6522,-1.6522,-1.6238,-1.5632,-1.5186,-1.4606,-1.3815,-1.3815,-1.3505,-1.2929,-1.2881,-1.2618,-1.208,-1.1913,-1.1566,-1.1065,-1.0218,-0.9814,0.0,0.0,0.0,-1.4262,0.0,0.0,0.0,0.0,-1.3361,0.0,0.0,0.0,0.0,0.0,-1.0574,-0.9994,-0.989,0.0,0.0,0.0,0.0,0.0,0.0,0.0,0.0,0.0,0.0,0.0,-1.33,0.0,-1.7173,-1.8416,-1.9348,-2.0028,-2.067,-2.0797,-2.0348,-2.1197,-2.143,-2.1055,-2.1886,-2.231,-2.231,-2.231,-2.231,-2.231,-2.231,-2.231,-2.231,-2.231,-2.231,-2.231,-2.231,-2.231,-2.231,-2.231,-2.231,-2.231,-2.231,-2.231,-2.231,-2.231,-2.2282,-2.2282,-2.2282,-2.2282,-2.2254,-2.2254,-2.2254,-2.2254,-2.2254,-2.2254,-2.2049,-2.1197,-2.0991,-2.0731,-1.9909,-1.9726,-1.969,-1.969,-1.9281,-1.893,-1.8893,-1.8855,-1.8496,-1.7463,-1.7312,-1.7076,-1.6595,-1.6522,-1.6522,-1.6522,-1.6522,-1.6522,-1.6522,-1.6522,-1.6238,-1.5632,-1.5588,-1.5039,-1.3862,-1.3815,-1.3505,-1.2929,-1.2881,-1.2881,-1.2871,-1.2129,-1.1765,-1.1765,-1.0415,-0.9814,0.0,0.0,-1.6338,-1.4842,0.0,0.0,0.0,0.0,0.0,0.0,0.0,0.0,0.0,0.0,-1.0588,-0.9994,-0.9533,-0.8919,0.0,0.0,0.0,0.0,0.0,0.0,0.0,0.0,0.0,-1.2031,-1.2231,-1.3268,0.0,-1.6805,-1.8007,-1.9096,-1.9653,-2.0224,-2.0748,-2.1337,-2.1705,-2.184,-2.2152,-2.231,-2.231,-2.231,-2.231,-2.231,-2.231,-2.231,-2.231,-2.231,-2.231,-2.231,-2.231,-2.231,-2.231,-2.231,-2.231,-2.231,-2.231,-2.231,-2.231,-2.231,-2.231,-2.231,-2.231,-2.231,-2.231,-2.231,-2.231,-2.231,-2.231,-2.231,-2.2225,-2.1915,-2.1598,-2.1306,-2.1007,-2.0516,-2.0089,-2.0089,-1.9752,-1.9442,-1.9442,-1.9442,-1.908,-1.7987,-1.7229,-1.6837,-1.6993,-1.671,-1.6522,-1.6522,-1.6522,-1.6522,-1.6522,-1.6139,-1.582,-1.5632,-1.4858,-1.4226,-1.3815,-1.342,-1.3104,-1.2881,-1.2403,-1.2178,-1.2187,-1.1475,-1.0914,-1.0466,-0.9526,-0.9058,-1.5799,-1.6157,0.0,-1.5228,-1.5087,0.0,-1.3298,0.0,0.0,0.0,0.0,0.0,0.0,0.0,-1.0722,-1.048,-0.9559,-0.8664,0.0,0.0,0.0,0.0,0.0,0.0,0.0,0.0,0.0,-1.1223,-1.137,-1.2314,0.0,0.0,-1.6925,-1.8531,-1.9229,-2.002,-2.0991,-2.1399,-2.1748,-2.2032,-2.2209,-2.231,-2.231,-2.231,-2.231,-2.231,-2.231,-2.231,-2.231,-2.231,-2.2349,-2.2436,-2.2436,-2.2517,-2.2624,-2.249,-2.2436,-2.2436,-2.2436,-2.2388,-2.231,-2.231,-2.231,-2.231,-2.231,-2.231,-2.231,-2.231,-2.231,-2.231,-2.231,-2.231,-2.2254,-2.2106,-2.1705,-2.1337,-2.1165,-2.0583,-2.0089,-2.0089,-1.9874,-1.969,-1.969,-1.953,-1.9169,-1.8496,-1.7626,-1.7105,-1.7271,-1.6837,-1.6522,-1.6522,-1.6522,-1.6423,-1.6194,-1.582,-1.5588,-1.5588,-1.4858,-1.4457,-1.4457,-1.3884,-1.343,-1.3238,-1.253,-1.2187,-1.2187,-1.0998,-1.0187,-0.9732,-0.8528,-0.7835]},{"header":{"parameterUnit":"m.s-1","parameterCategory":1,"la1":30.6,"la2":29.2853,"lo1":-89.7004,"lo2":-87.6739,"dy":0.0162,"dx":0.0183,"nx":112,"ny":82,"refTime":"2024-09-11T00:00:00:Z","depth":0,"parameterNumber":3,"parameterNumberName":"V-component_of_WINDS"},"data":[0.0,0.0,0.0,0.0,0.0,0.0,0.0,0.0,0.0,0.0,0.0,0.0,0.0,0.0,0.0,0.0,0.0,0.0,0.0,0.0,0.0,0.0,0.0,0.0,0.0,0.0,0.0,0.0,0.0,0.0,0.0,0.0,0.0,0.0,0.0,0.0,0.0,0.0,0.0,0.0,0.0,0.0,0.0,0.0,0.0,0.0,0.0,0.0,0.0,0.0,0.0,0.0,0.0,0.0,0.0,0.0,0.0,0.0,0.0,0.0,0.0,0.0,0.0,0.0,0.0,0.0,0.0,0.0,0.0,0.0,0.0,0.0,0.0,0.0,0.0,0.0,0.0,0.0,0.0,0.0,0.0,0.0,0.0,0.0,0.0,0.0,0.0,0.0,0.0,0.0,0.0,-1.5704,-1.7972,-1.9427,-1.9601,-1.8831,-1.7338,-1.4969,0.0,0.0,0.0,0.0,0.0,0.0,0.0,0.0,0.0,0.0,0.0,0.0,0.0,0.0,0.0,0.0,0.0,0.0,0.0,0.0,0.0,0.0,0.0,0.0,0.0,0.0,0.0,0.0,0.0,0.0,0.0,0.0,0.0,0.0,0.0,0.0,0.0,0.0,0.0,0.0,0.0,0.0,0.0,0.0,0.0,0.0,0.0,0.0,0.0,0.0,0.0,0.0,0.0,0.0,0.0,0.0,0.0,0.0,0.0,0.0,0.0,0.0,0.0,0.0,0.0,0.0,0.0,0.0,0.0,0.0,0.0,0.0,0.0,0.0,0.0,0.0,0.0,0.0,0.0,0.0,0.0,0.0,0.0,0.0,0.0,0.0,0.0,0.0,0.0,0.0,0.0,0.0,0.0,0.0,0.0,0.0,0.0,0.0,0.0,0.0,0.0,0.0,0.0,0.0,-1.4307,-1.7389,-1.8809,-1.9555,-1.9601,-1.8413,-1.6873,-1.5087,0.0,0.0,0.0,0.0,0.0,0.0,0.0,0.0,0.0,0.0,0.0,0.0,0.0,0.0,0.0,0.0,0.0,0.0,0.0,0.0,0.0,0.0,0.0,0.0,0.0,0.0,0.0,0.0,0.0,0.0,0.0,0.0,0.0,0.0,0.0,0.0,0.0,0.0,0.0,0.0,0.0,0.0,0.0,0.0,0.0,0.0,0.0,0.0,0.0,0.0,0.0,0.0,0.0,0.0,0.0,0.0,0.0,0.0,0.0,0.0,0.0,0.0,0.0,0.0,0.0,0.0,0.0,0.0,0.0,0.0,0.0,0.0,0.0,0.0,0.0,0.0,0.0,0.0,0.0,0.0,0.0,0.0,0.0,0.0,0.0,0.0,0.0,0.0,0.0,0.0,0.0,0.0,0.0,0.0,0.0,0.0,0.0,0.0,0.0,0.0,0.0,0.0,0.0,-1.415,-1.5674,-1.8696,-1.9367,-1.9656,-1.9802,-1.8439,-1.6842,-1.5209,-1.3525,0.0,0.0,0.0,0.0,0.0,0.0,0.0,0.0,0.0,0.0,0.0,0.0,0.0,0.0,0.0,0.0,0.0,0.0,0.0,0.0,0.0,0.0,0.0,0.0,0.0,0.0,0.0,0.0,0.0,0.0,0.0,0.0,0.0,0.0,0.0,0.0,0.0,0.0,0.0,0.0,0.0,0.0,0.0,0.0,0.0,0.0,0.0,0.0,0.0,0.0,0.0,0.0,0.0,0.0,0.0,0.0,0.0,0.0,0.0,0.0,0.0,0.0,0.0,0.0,0.0,0.0,0.0,0.0,0.0,0.0,0.0,0.0,0.0,0.0,0.0,0.0,0.0,0.0,0.0,0.0,0.0,0.0,0.0,0.0,0.0,0.0,0.0,0.0,0.0,0.0,0.0,0.0,0.0,0.0,0.0,0.0,0.0,0.0,0.0,0.0,0.0,0.0,-1.5948,-1.7032,-1.9522,-1.9738,-1.9774,-2.0002,-1.8374,-1.6731,-1.5314,-1.2684,0.0,0.0,0.0,0.0,0.0,0.0,0.0,0.0,0.0,0.0,0.0,0.0,0.0,0.0,0.0,0.0,0.0,0.0,0.0,0.0,0.0,0.0,0.0,0.0,0.0,0.0,0.0,0.0,0.0,0.0,0.0,0.0,0.0,0.0,0.0,0.0,0.0,0.0,0.0,0.0,0.0,0.0,0.0,0.0,0.0,0.0,0.0,0.0,0.0,0.0,0.0,0.0,0.0,0.0,0.0,0.0,0.0,0.0,0.0,0.0,0.0,0.0,0.0,0.0,0.0,0.0,0.0,0.0,0.0,0.0,0.0,0.0,0.0,0.0,0.0,0.0,0.0,0.0,0.0,0.0,0.0,0.0,0.0,0.0,0.0,0.0,0.0,0.0,0.0,0.0,0.0,0.0,0.0,0.0,0.0,0.0,0.0,0.0,0.0,0.0,0.0,0.0,-1.6204,-1.7855,-1.9601,-1.9912,-1.9992,-2.0086,-1.7922,-1.6221,-1.5349,-1.215,0.0,0.0,0.0,0.0,0.0,0.0,0.0,0.0,0.0,0.0,0.0,0.0,0.0,0.0,0.0,0.0,0.0,0.0,0.0,0.0,0.0,0.0,0.0,0.0,0.0,0.0,0.0,0.0,0.0,0.0,0.0,0.0,0.0,0.0,0.0,0.0,0.0,0.0,0.0,0.0,0.0,0.0,0.0,0.0,0.0,0.0,0.0,0.0,0.0,0.0,0.0,0.0,0.0,0.0,0.0,0.0,0.0,0.0,0.0,0.0,0.0,0.0,0.0,0.0,0.0,0.0,0.0,0.0,0.0,0.0,0.0,0.0,0.0,0.0,0.0,0.0,0.0,0.0,0.0,0.0,0.0,0.0,0.0,0.0,0.0,0.0,0.0,0.0,0.0,0.0,0.0,0.0,0.0,0.0,0.0,0.0,0.0,0.0,0.0,0.0,0.0,0.0,-1.5552,-1.7255,0.0,-1.9755,-1.9907,-1.9504,-1.8182,-1.6548,-1.4609,0.0,0.0,0.0,0.0,0.0,0.0,0.0,0.0,0.0,0.0,0.0,0.0,0.0,0.0,0.0,0.0,0.0,0.0,0.0,0.0,0.0,0.0,0.0,0.0,0.0,0.0,0.0,0.0,0.0,0.0,0.0,0.0,0.0,0.0,0.0,0.0,0.0,0.0,0.0,0.0,0.0,0.0,0.0,0.0,0.0,0.0,0.0,0.0,0.0,0.0,0.0,0.0,0.0,0.0,0.0,0.0,0.0,0.0,0.0,0.0,0.0,0.0,0.0,0.0,0.0,0.0,0.0,0.0,0.0,0.0,0.0,0.0,0.0,0.0,0.0,0.0,0.0,0.0,0.0,0.0,0.0,0.0,0.0,0.0,0.0,0.0,0.0,0.0,0.0,0.0,0.0,0.0,0.0,0.0,0.0,0.0,0.0,0.0,0.0,0.0,0.0,0.0,-1.3507,-1.5464,-1.7148,0.0,-1.9311,-1.9486,-1.877,-1.7466,-1.5933,-1.4147,0.0,0.0,0.0,0.0,0.0,0.0,0.0,0.0,0.0,0.0,0.0,0.0,0.0,0.0,0.0,0.0,0.0,0.0,0.0,0.0,0.0,0.0,0.0,0.0,0.0,0.0,0.0,0.0,0.0,0.0,0.0,0.0,0.0,0.0,0.0,0.0,0.0,0.0,0.0,0.0,0.0,0.0,0.0,0.0,0.0,0.0,0.0,0.0,0.0,0.0,0.0,0.0,0.0,0.0,0.0,0.0,0.0,0.0,0.0,0.0,0.0,0.0,0.0,0.0,0.0,0.0,0.0,0.0,0.0,0.0,0.0,0.0,0.0,0.0,0.0,0.0,0.0,0.0,0.0,0.0,0.0,0.0,0.0,0.0,0.0,0.0,0.0,0.0,0.0,0.0,0.0,0.0,0.0,0.0,0.0,0.0,0.0,0.0,0.0,0.0,0.0,0.0,-1.3577,-1.6138,-1.7786,-1.779,-1.8563,-1.8758,-1.7941,-1.5575,-1.4099,0.0,0.0,0.0,0.0,0.0,0.0,0.0,0.0,0.0,0.0,0.0,0.0,0.0,0.0,0.0,0.0,0.0,0.0,0.0,0.0,0.0,0.0,0.0,0.0,0.0,0.0,0.0,0.0,0.0,0.0,0.0,0.0,0.0,0.0,0.0,0.0,0.0,0.0,0.0,0.0,0.0,0.0,0.0,0.0,0.0,0.0,0.0,0.0,0.0,0.0,0.0,0.0,0.0,0.0,0.0,0.0,0.0,0.0,0.0,0.0,0.0,0.0,0.0,0.0,0.0,0.0,0.0,0.0,0.0,0.0,0.0,0.0,0.0,0.0,0.0,0.0,0.0,0.0,0.0,0.0,0.0,0.0,0.0,0.0,0.0,0.0,0.0,0.0,0.0,0.0,0.0,0.0,0.0,0.0,0.0,0.0,0.0,0.0,0.0,0.0,0.0,0.0,0.0,-1.2805,-1.5328,-1.6954,-1.6956,-1.7729,-1.7903,-1.7068,-1.5767,-1.4508,-1.3337,0.0,0.0,0.0,0.0,0.0,0.0,0.0,0.0,0.0,0.0,0.0,0.0,0.0,0.0,0.0,0.0,0.0,0.0,0.0,0.0,0.0,0.0,0.0,0.0,0.0,0.0,0.0,0.0,0.0,0.0,0.0,0.0,0.0,0.0,0.0,0.0,0.0,0.0,0.0,0.0,0.0,0.0,0.0,0.0,0.0,0.0,0.0,0.0,0.0,0.0,0.0,0.0,0.0,0.0,0.0,0.0,0.0,0.0,0.0,0.0,0.0,0.0,0.0,0.0,0.0,0.0,0.0,0.0,0.0,0.0,0.0,0.0,0.0,0.0,0.0,0.0,0.0,0.0,0.0,0.0,0.0,0.0,0.0,0.0,0.0,0.0,0.0,0.0,0.0,0.0,0.0,0.0,0.0,0.0,0.0,0.0,0.0,0.0,0.0,0.0,0.0,0.0,-1.2487,-1.5292,-1.6869,-1.6196,-1.7204,-1.7442,-1.6222,-1.5368,-1.4297,-1.2949,0.0,0.0,0.0,0.0,0.0,0.0,0.0,0.0,0.0,0.0,0.0,0.0,0.0,0.0,0.0,0.0,0.0,0.0,0.0,0.0,0.0,0.0,0.0,0.0,0.0,0.0,0.0,0.0,0.0,0.0,0.0,0.0,0.0,0.0,0.0,0.0,0.0,0.0,0.0,0.0,0.0,0.0,0.0,0.0,0.0,0.0,0.0,0.0,0.0,0.0,0.0,0.0,0.0,0.0,0.0,0.0,0.0,0.0,0.0,0.0,0.0,0.0,0.0,0.0,0.0,0.0,0.0,0.0,0.0,0.0,0.0,0.0,0.0,0.0,0.0,0.0,0.0,0.0,0.0,0.0,0.0,0.0,0.0,0.0,0.0,0.0,0.0,0.0,0.0,0.0,0.0,0.0,0.0,0.0,0.0,0.0,0.0,0.0,0.0,0.0,0.0,0.0,-1.2605,-1.5739,-1.7247,-1.581,-1.6984,-1.7246,-1.5664,-1.4648,-1.3769,-1.2969,0.0,0.0,0.0,0.0,0.0,0.0,0.0,0.0,0.0,0.0,0.0,0.0,0.0,0.0,0.0,0.0,0.0,0.0,0.0,0.0,0.0,0.0,0.0,0.0,0.0,0.0,0.0,0.0,0.0,0.0,0.0,0.0,0.0,0.0,0.0,0.0,0.0,0.0,0.0,0.0,0.0,0.0,0.0,0.0,0.0,0.0,0.0,0.0,0.0,0.0,0.0,0.0,0.0,0.0,0.0,0.0,0.0,0.0,0.0,0.0,-1.2555,0.0,0.0,0.0,0.0,0.0,0.0,0.0,0.0,0.0,0.0,0.0,0.0,0.0,0.0,0.0,0.0,0.0,0.0,0.0,0.0,0.0,0.0,0.0,0.0,0.0,0.0,0.0,0.0,0.0,0.0,0.0,0.0,0.0,0.0,0.0,0.0,0.0,0.0,0.0,0.0,0.0,-1.3583,-1.5643,-1.7081,-1.7413,-1.7166,-1.6836,-1.6445,-1.5,-1.4023,-1.3828,0.0,0.0,0.0,0.0,0.0,0.0,0.0,0.0,0.0,0.0,0.0,0.0,0.0,0.0,0.0,0.0,0.0,0.0,0.0,0.0,0.0,0.0,0.0,0.0,0.0,0.0,0.0,0.0,0.0,0.0,0.0,0.0,0.0,0.0,0.0,0.0,0.0,0.0,0.0,0.0,0.0,0.0,0.0,0.0,0.0,0.0,0.0,0.0,0.0,0.0,0.0,0.0,0.0,0.0,0.0,0.0,0.0,0.0,0.0,0.0,0.0,-1.3739,0.0,0.0,0.0,0.0,0.0,0.0,0.0,0.0,0.0,0.0,0.0,0.0,0.0,0.0,0.0,0.0,0.0,0.0,0.0,0.0,0.0,0.0,0.0,0.0,0.0,0.0,0.0,0.0,0.0,0.0,0.0,0.0,0.0,0.0,0.0,0.0,0.0,0.0,0.0,0.0,-1.3884,-1.5986,-1.7344,-1.7363,-1.7344,-1.6992,-1.6152,-1.5254,-1.4546,-1.4126,-1.283,0.0,0.0,0.0,0.0,0.0,0.0,0.0,0.0,0.0,0.0,0.0,0.0,0.0,0.0,0.0,0.0,0.0,0.0,0.0,0.0,0.0,0.0,0.0,0.0,0.0,0.0,0.0,0.0,0.0,0.0,0.0,0.0,0.0,0.0,0.0,0.0,0.0,0.0,0.0,0.0,0.0,0.0,0.0,0.0,0.0,0.0,0.0,0.0,0.0,0.0,0.0,0.0,0.0,-1.7247,-1.7449,-1.7403,-1.8388,-1.8767,-1.8547,-1.6807,-1.6119,-1.6143,0.0,0.0,0.0,0.0,0.0,0.0,0.0,0.0,0.0,0.0,0.0,0.0,0.0,0.0,0.0,0.0,0.0,0.0,0.0,0.0,0.0,0.0,0.0,0.0,0.0,-1.6317,-1.6391,0.0,0.0,0.0,0.0,0.0,0.0,0.0,0.0,0.0,0.0,0.0,0.0,-1.4295,-1.6675,-1.7928,-1.7206,-1.7637,-1.7344,-1.5762,-1.5485,-1.5095,-1.4376,-1.4167,-1.3116,0.0,0.0,0.0,0.0,0.0,0.0,0.0,0.0,0.0,0.0,0.0,0.0,0.0,0.0,0.0,0.0,0.0,0.0,0.0,0.0,0.0,0.0,0.0,0.0,0.0,0.0,0.0,0.0,0.0,0.0,0.0,0.0,-1.13,-1.1386,0.0,0.0,0.0,0.0,0.0,0.0,0.0,0.0,0.0,0.0,0.0,0.0,0.0,-1.7126,-1.7175,-1.8896,-1.9507,-1.8985,-2.0078,-2.0371,-2.0009,-2.0398,-2.0806,-2.1207,-2.1102,0.0,-1.8725,-1.7379,0.0,0.0,0.0,0.0,0.0,0.0,0.0,0.0,0.0,0.0,0.0,0.0,0.0,0.0,0.0,0.0,0.0,0.0,0.0,0.0,0.0,0.0,-1.9572,-1.9401,-1.8897,-1.8453,0.0,-1.6398,-1.4387,-1.3504,-1.2795,0.0,0.0,0.0,0.0,0.0,0.0,0.0,-1.5973,-1.7801,-1.8929,-1.8871,-1.8295,-1.7539,-1.6602,-1.5832,-1.5355,-1.5234,-1.4464,-1.3863,-1.3509,-1.1489,0.0,0.0,0.0,0.0,0.0,0.0,0.0,0.0,0.0,0.0,0.0,0.0,0.0,0.0,0.0,0.0,0.0,0.0,0.0,0.0,0.0,0.0,0.0,0.0,0.0,0.0,0.0,0.0,0.0,-1.0823,-1.1893,-1.2021,-1.2496,-1.2565,0.0,0.0,0.0,0.0,0.0,0.0,0.0,0.0,0.0,-1.7505,-1.832,-1.9088,-1.9808,-2.0541,-2.0933,-2.1053,-2.173,-2.2029,-2.2037,-2.2331,-2.277,-2.3295,-2.3361,-2.3023,-2.2247,-2.0378,-1.9125,-1.8282,0.0,0.0,0.0,0.0,-1.7124,-1.76,-1.8432,-1.8782,0.0,-1.8024,0.0,0.0,0.0,0.0,0.0,0.0,0.0,0.0,0.0,0.0,-2.1067,-2.1377,-2.1195,-2.0919,-2.0859,-1.9885,-1.8275,0.0,-1.531,-1.4516,-1.203,0.0,0.0,0.0,0.0,0.0,-1.7074,-1.8316,-1.9116,-1.914,-1.8789,-1.8046,-1.6758,-1.6282,-1.5874,-1.5374,-1.497,-1.4497,-1.3961,-1.2905,-1.1663,0.0,0.0,0.0,0.0,0.0,0.0,0.0,0.0,0.0,0.0,0.0,0.0,0.0,0.0,0.0,0.0,0.0,0.0,0.0,0.0,0.0,0.0,0.0,0.0,0.0,0.0,0.0,0.0,-1.2154,-1.2694,-1.2918,-1.3989,-1.435,0.0,0.0,0.0,0.0,0.0,0.0,-1.8044,-1.8624,-1.9256,-1.9936,-2.0303,-2.0982,-2.1993,-2.1815,-2.1996,-2.2535,-2.2712,-2.2996,-2.3346,-2.3588,-2.3983,-2.4495,-2.4495,-2.462,-2.469,-2.2797,-2.1474,-2.0591,-1.9954,-1.9318,-1.8794,-1.9474,-1.9873,-2.0231,-2.1359,-2.1827,-2.1703,-2.0537,0.0,-1.9331,-1.7472,0.0,0.0,0.0,0.0,-1.9905,-2.0929,-2.1684,-2.2277,-2.2718,-2.2871,-2.2783,-2.2369,-2.2274,-2.1308,0.0,-1.7799,-1.7185,-1.4192,0.0,0.0,0.0,0.0,-1.7205,-1.8003,-1.8862,-1.9319,-1.9089,-1.9081,-1.8416,-1.6716,-1.6569,-1.6202,-1.5355,-1.5272,-1.4959,-1.4266,-1.4077,-1.3092,-1.1205,0.0,0.0,0.0,0.0,0.0,0.0,0.0,0.0,0.0,0.0,0.0,0.0,0.0,0.0,0.0,0.0,0.0,0.0,0.0,0.0,0.0,0.0,0.0,0.0,0.0,0.0,0.0,0.0,0.0,-1.4914,-1.697,0.0,0.0,0.0,0.0,-1.8172,-1.8266,-1.8927,-2.0437,-2.1279,-2.1876,-2.2321,-2.3076,-2.3378,-2.3136,-2.3112,-2.3106,-2.3141,-2.3165,-2.3346,-2.3671,-2.3692,-2.3983,-2.4495,-2.4495,-2.4678,-2.4922,-2.4041,-2.3201,-2.24,-2.1659,-2.1434,-2.1492,-2.1404,-2.1945,-2.2698,-2.2726,-2.2726,-2.287,-2.3601,-2.2757,-2.1454,-2.1317,-2.0197,0.0,0.0,-2.1396,-2.1799,-2.3247,-2.3792,-2.389,-2.3549,-2.3601,-2.3453,-2.2418,-2.2209,-2.1733,0.0,-1.986,-1.9125,-1.6716,0.0,-1.6406,-1.6316,-1.7125,-1.8022,-1.885,-1.9696,-1.9927,-1.9088,-1.9058,-1.8398,-1.6657,-1.6503,-1.6157,-1.5349,-1.5234,-1.517,-1.5132,-1.4343,-1.3865,-1.381,-1.1436,0.0,0.0,0.0,0.0,0.0,0.0,0.0,0.0,0.0,0.0,0.0,0.0,0.0,0.0,0.0,0.0,0.0,0.0,0.0,0.0,0.0,0.0,0.0,0.0,0.0,0.0,0.0,0.0,-1.7133,-1.8348,0.0,-1.7606,-1.8315,-1.9212,-2.0008,-2.0678,-2.1516,-2.2573,-2.2707,-2.2893,-2.3259,-2.2957,-2.3067,-2.3632,-2.2972,-2.2865,-2.333,-2.3015,-2.3045,-2.3392,-2.3588,-2.4061,-2.47,-2.47,-2.4883,-2.5165,-2.4877,-2.4596,-2.4307,-2.3899,-2.3861,-2.4005,-2.3953,-2.4156,-2.4438,-2.4418,-2.4409,-2.437,-2.4168,-2.3228,-2.221,-2.2334,-2.2352,-2.2412,-2.2889,-2.3384,-2.3896,-2.4321,-2.4505,-2.4499,-2.4365,-2.4393,-2.4344,-2.3959,-2.387,-2.3544,-2.2464,-2.1802,-2.0649,-1.8209,-1.8677,-1.8849,-1.7255,-1.8269,-1.9315,-1.9609,-2.0041,-2.0177,-1.9869,-1.9862,-1.9392,-1.8215,-1.76,-1.6926,-1.6118,-1.5522,-1.4939,-1.4382,-1.4074,-1.3396,-1.2353,-1.1421,-1.0436,0.0,0.0,0.0,0.0,0.0,0.0,0.0,0.0,0.0,0.0,0.0,0.0,0.0,0.0,0.0,0.0,0.0,0.0,0.0,0.0,0.0,0.0,0.0,0.0,0.0,0.0,-1.7791,-1.8705,-1.9817,-2.0193,-1.942,-2.0412,-2.1332,-2.1872,-2.263,-2.3293,-2.384,-2.3671,-2.3692,-2.4068,-2.346,-2.3553,-2.4425,-2.3722,-2.3629,-2.4093,-2.3528,-2.3358,-2.3578,-2.367,-2.3964,-2.4437,-2.454,-2.4799,-2.5126,-2.5049,-2.5138,-2.5303,-2.5152,-2.5173,-2.5284,-2.5224,-2.5203,-2.5203,-2.5203,-2.5203,-2.5107,-2.458,-2.3913,-2.3359,-2.3452,-2.3894,-2.4312,-2.4169,-2.4512,-2.4917,-2.4814,-2.4828,-2.4842,-2.4731,-2.4746,-2.476,-2.4623,-2.4654,-2.4501,-2.3864,-2.3135,-2.202,-2.0076,-2.0439,-2.0457,-1.8869,-1.94,-2.0022,-2.0087,-2.0225,-2.0312,-2.0312,-2.0312,-1.9946,-1.9069,-1.8203,-1.735,-1.6542,-1.5676,-1.4939,-1.4363,-1.4055,-1.3382,-1.2272,-1.1983,-1.116,-0.9736,0.0,0.0,0.0,0.0,0.0,0.0,0.0,0.0,0.0,0.0,0.0,0.0,0.0,0.0,0.0,0.0,0.0,0.0,0.0,0.0,0.0,0.0,0.0,-1.7324,-1.8058,-1.887,-1.9594,-2.1457,-2.2198,-2.0969,-2.2561,-2.3649,-2.3649,-2.3958,-2.4151,-2.4188,-2.4188,-2.4377,-2.4792,-2.4805,-2.5015,-2.5509,-2.5491,-2.5491,-2.5491,-2.4706,-2.436,-2.4325,-2.3939,-2.375,-2.3771,-2.4074,-2.4426,-2.479,-2.4591,-2.4828,-2.5274,-2.5303,-2.5284,-2.5264,-2.5077,-2.501,-2.501,-2.501,-2.4998,-2.4979,-2.4979,-2.4998,-2.4962,-2.4842,-2.4804,-2.4804,-2.479,-2.479,-2.479,-2.479,-2.4877,-2.4879,-2.4575,-2.4639,-2.467,-2.4284,-2.4339,-2.4426,-2.4247,-2.3843,-2.3244,-2.237,-2.1569,-2.1066,-2.1157,-2.0487,0.0,-2.0269,-2.0285,-2.0312,-2.0312,-2.0312,-1.9965,-1.9107,-1.8222,-1.7369,-1.658,-1.5695,-1.5189,-1.5151,-1.4343,-1.3896,-1.3857,-1.3099,-1.2284,-1.1441,0.0,0.0,0.0,0.0,0.0,0.0,0.0,0.0,0.0,0.0,0.0,0.0,0.0,0.0,0.0,0.0,0.0,0.0,0.0,0.0,0.0,0.0,-1.8427,-1.8472,-1.9619,-2.0737,-2.1481,-2.2051,-2.2272,-2.1926,-2.2357,-2.2677,-2.2677,-2.2958,-2.3358,-2.3932,-2.3967,-2.4269,-2.4917,-2.4705,-2.4883,-2.5583,-2.5035,-2.5035,-2.5583,-2.5285,-2.5163,-2.5154,-2.5009,-2.5016,-2.5134,-2.4634,-2.4559,-2.4804,-2.4746,-2.4799,-2.4955,-2.5041,-2.5088,-2.5077,-2.5022,-2.501,-2.501,-2.501,-2.4943,-2.4855,-2.4855,-2.4771,-2.4666,-2.4775,-2.4804,-2.4775,-2.4623,-2.4575,-2.4561,-2.441,-2.4392,-2.4409,-2.4284,-2.4321,-2.4321,-2.4228,-2.4247,-2.4284,-2.4209,-2.41,-2.3747,-2.2916,-2.212,-2.1393,-2.0775,-2.0201,0.0,-1.9931,-2.0153,-2.0312,-2.0312,-2.0312,-2.0196,-1.9965,-1.8561,-1.7606,-1.7369,-1.6003,-1.492,-1.4286,-1.4036,-1.3632,-1.3041,-1.2819,-1.2589,0.0,0.0,0.0,0.0,0.0,0.0,0.0,0.0,0.0,0.0,0.0,0.0,0.0,0.0,0.0,0.0,0.0,0.0,0.0,0.0,0.0,0.0,-1.7936,-1.9479,-1.9734,-2.0716,-2.1619,-2.2231,-2.231,-2.231,-2.231,-2.2722,-2.2976,-2.2976,-2.3527,-2.406,-2.4549,-2.4584,-2.4833,-2.5426,-2.5253,-2.5462,-2.6048,-2.5625,-2.5625,-2.6065,-2.5717,-2.5553,-2.5518,-2.5326,-2.5375,0.0,-2.4904,-2.4837,-2.5142,-2.482,-2.4731,0.0,0.0,0.0,0.0,0.0,-2.4733,-2.4674,-2.4762,-2.4737,-2.467,-2.467,-2.461,-2.4512,-2.4545,-2.4561,-2.4528,-2.441,-2.4375,-2.4339,-2.4228,-2.4247,-2.4303,-2.4209,-2.4247,-2.4303,-2.4209,-2.4284,-2.4303,-2.4209,-2.4266,0.0,-2.3603,-2.2832,-2.204,-2.1242,-2.0602,-2.012,-1.9835,-1.9981,-2.0107,-2.0161,-2.0169,-2.0205,-2.0285,-1.9042,0.0,0.0,0.0,-1.5189,-1.3953,-1.3896,0.0,0.0,0.0,0.0,0.0,0.0,0.0,0.0,-1.3281,-1.3639,0.0,0.0,0.0,0.0,0.0,0.0,0.0,0.0,0.0,0.0,0.0,0.0,0.0,0.0,0.0,0.0,-1.8944,-2.0178,-2.0847,-2.1275,-2.1688,-2.218,-2.2282,-2.2344,-2.2429,-2.3271,-2.3877,-2.3964,-2.4846,-2.5428,-2.5516,0.0,0.0,0.0,0.0,-2.6224,-2.6539,-2.6539,-2.6539,-2.6522,-2.5949,-2.571,-2.5676,-2.5343,-2.5362,-2.5614,-2.5099,-2.5168,-2.5616,-2.4855,-2.4601,-2.4731,-2.476,-2.4775,-2.4746,-2.4578,-2.4393,-2.4266,-2.4445,0.0,0.0,-2.4478,-2.4461,-2.4426,-2.4247,-2.419,-2.419,-2.419,-2.419,-2.419,-2.419,-2.4321,-2.4428,-2.4247,-2.4339,-2.4428,-2.4247,-2.4339,-2.4409,-2.4228,-2.4339,-2.441,-2.4228,-2.3529,-2.2793,-2.2205,-2.1358,-2.0588,-1.9988,-1.9854,-1.9847,-1.9954,0.0,0.0,-2.0225,-1.9435,-1.8609,-1.7833,-1.7046,-1.5907,-1.4341,-1.4295,-1.4666,-1.5428,-1.5472,-1.6208,-1.7682,-1.7696,-1.776,-1.7792,-1.549,-1.5292,0.0,0.0,0.0,0.0,0.0,0.0,0.0,0.0,0.0,0.0,0.0,0.0,0.0,0.0,0.0,-1.7853,-1.9229,-2.0276,-2.0434,-2.0829,-2.1275,-2.1705,-2.2077,-2.2547,-2.3122,-2.3367,-2.3748,-2.4343,-2.4573,-2.4944,-2.5558,-2.5593,-2.5725,-2.6012,-2.6029,-2.5832,-2.5486,-2.5486,-2.5486,-2.5486,0.0,0.0,-2.6335,-2.6365,-2.6408,-2.6427,-2.5702,-2.545,-2.5486,-2.4956,-2.4584,-2.4321,-2.4495,-2.4561,-2.4543,-2.4512,-2.4478,-2.4444,-2.4495,-2.4495,-2.4478,-2.4321,-2.4266,-2.4266,-2.4209,-2.419,0.0,-2.419,-2.419,-2.419,-2.419,-2.4228,-2.4247,-2.4209,-2.4228,-2.4247,-2.4209,-2.4228,-2.4247,-2.4209,-2.4228,-2.4247,-2.4209,-2.3529,-2.296,-2.2831,-2.1671,-2.0751,-2.0625,-2.0139,-1.9802,-1.9836,-1.9836,-1.9847,-1.9899,-1.9101,-1.8522,-1.8371,-1.7594,-1.6999,-1.6668,-1.674,-1.6825,-1.6885,-1.7103,-1.7327,-1.754,-1.7653,-1.8068,-1.8722,-1.7535,-1.7528,0.0,0.0,0.0,0.0,0.0,0.0,0.0,0.0,0.0,0.0,0.0,-1.5906,-1.6614,0.0,-1.8087,-1.877,-1.9539,-2.0122,-2.0436,-2.0581,-2.0813,-2.1244,-2.1804,-2.2289,-2.2651,-2.3342,-2.3918,-2.4279,-2.4896,-2.5279,-2.5384,-2.5643,-2.574,-2.5598,-2.5615,-2.5449,-2.5221,-2.5221,-2.5221,-2.5221,-2.5644,-2.6005,-2.6266,-2.6316,-2.6592,-2.6965,-2.6138,-2.5918,-2.6056,-2.5415,-2.5034,-2.482,-2.4505,-2.437,-2.4339,-2.4339,-2.4339,-2.4339,-2.4339,-2.4339,-2.4321,-2.4228,-2.419,-2.419,-2.419,-2.419,-2.419,-2.419,-2.419,-2.419,-2.419,-2.419,-2.419,-2.419,-2.419,-2.419,-2.419,-2.419,-2.419,-2.419,-2.419,-2.419,-2.419,-2.3878,-2.3474,-2.307,-2.2036,-2.1124,-2.0699,-2.0024,-1.9599,-1.9695,-1.9707,-1.9726,-1.9778,-1.8994,-1.8512,-1.8512,-1.7737,-1.7302,-1.7302,-1.7367,-1.7605,-1.805,-1.8189,-1.8458,-1.8899,-1.8974,-1.9215,-1.9638,-1.9196,-1.9234,0.0,0.0,0.0,0.0,0.0,0.0,0.0,0.0,-1.5263,-1.6068,-1.6978,-1.7822,-1.8461,-1.8887,-1.9316,-1.9974,-2.0079,-2.0273,-2.0827,-2.0618,-2.0531,-2.0919,-2.145,-2.1917,-2.2189,-2.3243,-2.4026,-2.4297,-2.5253,-2.5652,-2.5221,-2.5615,-2.5615,-2.5067,-2.5051,-2.4973,-2.491,-2.491,-2.491,-2.491,-2.4973,-2.5259,-2.5689,-2.5815,-2.6212,-2.6869,-2.6304,-2.6268,-2.6528,-2.5868,-2.5561,-2.5447,-2.4776,-2.4408,-2.4215,-2.4051,-2.3996,-2.3996,-2.3996,-2.4054,-2.4094,-2.4094,-2.4151,-2.419,-2.4113,-2.4094,-2.4094,-2.4016,-2.4036,-2.4094,-2.4094,-2.4151,-2.419,-2.419,-2.419,-2.419,-2.419,-2.4151,-2.4113,-2.419,-2.4094,-2.4016,-2.4094,-2.4054,-2.3835,-2.3309,-2.2556,-2.1785,-2.1071,-2.0134,-1.9589,-1.9754,-1.9634,-1.9577,-1.9682,-1.9063,-1.8664,-1.8664,-1.8053,-1.7716,-1.7738,-1.7738,-1.8135,-1.8944,-1.9021,-1.9411,-2.0153,-2.026,-2.0277,-2.0241,-2.043,-2.0542,-1.2381,-1.2991,-1.323,-1.3998,-1.4021,-1.4673,0.0,0.0,-1.7689,-1.897,-1.9311,-1.9591,-2.028,-2.0438,-2.0707,-2.1365,-2.147,-2.15,-2.1575,-2.1045,-2.0663,-2.0737,-2.0967,-2.1615,-2.2879,-2.3135,-2.3743,-2.4974,-2.5211,-2.5259,-2.5221,-2.5259,-2.5051,-2.4511,-2.4511,-2.4266,-2.3794,-2.3794,-2.3794,-2.3794,-2.4266,-2.4511,-2.4592,-2.5067,-2.5319,-2.547,-2.5862,-2.6084,-2.6147,-2.6061,-2.5813,-2.55,-2.5394,-2.4916,-2.4211,-2.3549,-2.3323,-2.3323,-2.3323,-2.3522,-2.3774,-2.3774,-2.3976,-2.4133,-2.3855,-2.3774,-2.3692,-2.3392,-2.3522,-2.3774,-2.3774,-2.3976,-2.419,-2.419,-2.419,-2.419,-2.419,-2.3976,-2.3837,-2.4151,-2.3714,-2.3414,-2.3692,-2.3522,-2.3486,-2.4003,-2.3382,-2.2832,-2.2722,-2.1328,-2.0372,-2.0388,-1.9761,-1.9335,-1.9346,-1.9273,-1.9203,-1.9203,-1.9129,-1.9165,-1.9348,-1.9348,-1.9399,-1.9518,-1.9747,-1.9796,-1.9675,-2.0098,-2.0205,-2.005,-2.0943,-2.137,-1.4198,-1.5143,-1.5464,0.0,-1.6089,-1.6618,-1.8007,-1.8084,-1.8315,-1.9968,-2.0007,-1.9867,-2.0191,-2.0494,-2.0578,0.0,-2.0999,-2.1694,-2.172,-2.1114,-2.0857,-2.1246,-2.0685,-2.0782,-2.217,-2.2624,-2.328,-2.4205,-2.4552,-2.4592,-2.4282,-2.4536,-2.4511,-2.3948,-2.4301,-2.4398,-2.4193,-2.4582,-2.4582,-2.4193,-2.4398,-2.4472,-2.4389,-2.4617,-2.4894,-2.5221,-2.5449,-2.5566,-2.559,-2.559,-2.5648,-2.5739,-2.5297,-2.5064,-2.4954,-2.4137,-2.3554,-2.3189,-2.3189,-2.33,-2.3414,-2.3414,-2.3482,-2.3588,-2.3437,-2.3544,-2.3671,-2.3522,-2.3735,-2.3955,-2.3735,-2.3795,-2.3876,-2.3671,-2.3628,-2.3628,-2.3628,-2.3522,-2.3437,-2.3588,-2.3392,-2.3323,-2.3649,-2.3414,-2.3414,-2.4094,-2.3341,-2.2696,-2.2696,-2.1862,-2.107,-2.0539,-2.0207,-1.9803,-1.9326,-1.9305,-1.9305,-1.9305,-1.9305,-1.9335,-1.9409,-1.9442,-1.9485,-1.9601,-1.972,-1.975,-1.9732,-1.9899,-2.0199,-2.06,-2.1016,-2.1722,-1.5082,-1.6157,-1.6736,-1.6707,-1.7205,-1.7763,-1.7946,-1.8143,-1.8627,-1.9943,-1.985,-1.9598,-1.9662,-2.0014,-2.009,-1.9528,-2.0584,-2.1524,-2.1682,-2.1007,-2.068,-2.1149,-2.005,-1.9757,-2.1076,-2.1936,-2.2742,-2.3535,-2.3964,-2.3991,-2.3638,-2.3948,-2.4082,-2.3879,-2.4373,-2.4672,-2.4851,-2.5375,-2.5375,-2.4851,-2.4672,-2.4564,-2.4434,-2.4276,-2.4471,-2.4973,-2.4973,-2.5067,-2.5221,-2.5221,-2.5411,-2.5713,-2.5138,-2.5038,-2.5129,-2.4631,-2.3946,-2.3237,-2.3028,-2.2989,-2.3069,-2.3069,-2.3117,-2.3189,-2.3093,-2.3212,-2.3414,-2.3341,-2.354,-2.3714,-2.35,-2.3482,-2.35,-2.3259,-2.3189,-2.3189,-2.3189,-2.3117,-2.3093,-2.3165,-2.3063,-2.3038,-2.3369,-2.3159,-2.3129,-2.3602,-2.3034,-2.2658,-2.2924,-2.2483,-2.1804,-2.096,-2.0631,-2.0246,-1.9675,-1.9418,-1.9305,-1.9305,-1.9305,-1.932,-1.938,-1.932,-1.938,-1.9601,-1.9614,-1.9617,-1.9657,-1.9969,-2.0414,-2.0966,-2.1469,-2.2329,-1.4285,-1.4968,-1.5822,-1.5749,-1.6525,-1.7485,-1.8067,-1.8528,-1.8893,-1.8948,-1.8934,-1.899,-1.9086,-1.9141,-1.9502,-2.065,-2.0903,-2.1111,-2.1647,-2.0678,-1.9917,-1.9945,-1.8879,-1.8616,0.0,-2.1029,-2.2248,-2.3505,-2.3595,-2.3595,-2.3595,-2.3595,-2.3909,-2.4522,-2.4567,-2.4881,-2.557,-2.56,-2.56,-2.557,-2.4881,-2.4612,-2.4567,-2.3894,-2.3921,-2.443,-2.443,-2.4712,-2.5221,-2.5221,-2.5221,-2.5221,-2.5189,-2.475,-2.4195,-2.4617,-2.4196,-2.3287,-2.2575,-2.2517,-2.2721,-2.2721,-2.2947,-2.3141,-2.2822,-2.2721,-2.2686,-2.2415,-2.2527,-2.2746,-2.2746,-2.2972,-2.3212,-2.3189,-2.3189,-2.3189,-2.3189,-2.2947,-2.2822,-2.3141,-2.2738,-2.2398,-2.2686,-2.2517,-2.2321,-2.2349,-2.2546,-2.3058,-2.4037,-2.3437,-2.2648,-2.1858,-2.0996,-2.0484,-2.0466,-1.9748,-1.9305,-1.9305,-1.9305,-1.938,-1.9569,-1.9394,-1.938,-1.9601,-1.9614,-1.9513,-1.932,-2.0418,-2.0915,-2.0844,-2.2619,-2.3441,-1.3723,-1.446,-1.5121,-1.539,-1.6093,-1.6842,-1.7327,-1.7714,-1.8109,-1.8879,-1.8705,-1.8479,-1.8537,-1.8865,-1.9092,-1.9133,-2.0138,-2.0969,-2.1081,-2.0756,-2.0492,-2.0492,-1.9732,0.0,0.0,0.0,0.0,-2.2877,-2.3009,-2.3201,-2.3595,-2.3595,-2.3924,-2.4567,-2.5,-2.56,-2.6258,-2.6692,-2.6692,-2.6258,-2.56,-2.5046,-2.4567,-2.4388,-2.4116,-2.3879,-2.3879,-2.3948,-2.4158,-2.4158,-2.4348,-2.4672,-2.4672,-2.4729,-2.4782,-2.4466,-2.4142,-2.3782,-2.3217,-2.309,-2.3084,-2.2579,-2.2517,-2.2571,-2.248,-2.2563,-2.2669,-2.2599,-2.2789,-2.2972,-2.2772,-2.2797,-2.2822,-2.2634,-2.2598,-2.2598,-2.2598,-2.2517,-2.248,-2.2571,-2.2443,-2.2388,-2.266,-2.249,-2.236,-2.2537,-2.2634,-2.2898,-2.3459,-2.3289,-2.2823,-2.2031,-2.167,-2.1355,-2.1061,-2.03,-1.9916,-2.0081,-2.0097,-1.989,-1.9431,-1.9853,-1.989,-1.9413,-1.9933,-2.016,-2.0097,-2.1068,-2.1768,-2.2275,-2.2878,-2.3449,-1.3557,-1.4116,-1.4585,-1.5485,-1.6183,-1.6811,-1.7376,-1.7593,-1.7771,-1.8053,-1.783,-1.7521,-1.7357,-1.764,-1.7945,-1.8197,-1.9165,-2.004,-2.0393,-2.0294,-2.0174,-2.0174,-1.9607,-1.9474,0.0,0.0,0.0,-2.2215,-2.2346,-2.2583,-2.3225,-2.324,-2.3647,-2.4486,-2.5213,-2.5918,-2.6568,-2.725,-2.7245,-2.6587,-2.5897,-2.5364,-2.4971,-2.4686,-2.4343,-2.3954,-2.3699,-2.3595,-2.3595,-2.3595,-2.3794,-2.4116,-2.4116,-2.4307,-2.461,-2.4304,-2.4223,-2.4131,-2.367,-2.3321,-2.3083,-2.2777,-2.2513,-2.231,-2.231,-2.2426,-2.2563,-2.2563,-2.2704,-2.2832,-2.2599,-2.2563,-2.2527,-2.2349,-2.231,-2.231,-2.231,-2.231,-2.231,-2.231,-2.231,-2.2332,-2.2527,-2.2398,-2.2377,-2.2537,-2.2563,-2.2704,-2.3141,-2.3282,-2.3173,-2.2652,-2.2454,-2.2239,-2.1932,-2.117,-2.0788,-2.0943,-2.096,-2.0739,-2.0207,-2.0684,-2.0721,-2.0205,-2.0703,-2.096,-2.0978,-2.1822,-2.2483,-2.3015,-2.329,-2.3712,-1.3718,-1.3842,-1.42,-1.5881,-1.6633,-1.7133,-1.7894,-1.8012,-1.7706,-1.6548,-1.6369,-1.6232,-1.5612,0.0,-1.6233,-1.7852,-1.8166,-1.8581,-1.9648,-1.9409,-1.912,0.0,0.0,0.0,0.0,0.0,0.0,-2.1561,0.0,-2.198,-2.2614,-2.2641,-2.3179,-2.435,-2.5091,-2.5782,-2.6443,-2.7137,-2.7145,-2.6534,-2.5893,-2.5558,-2.5583,-2.4925,-2.4612,-2.4552,-2.3894,-2.3595,-2.3595,-2.3595,-2.3595,-2.3595,-2.3595,-2.3595,-2.3681,-2.4184,-2.4348,-2.4324,-2.3864,-2.326,-2.2766,-2.3214,-2.2861,-2.2304,-2.2299,-2.2282,-2.2282,-2.2282,-2.231,-2.231,-2.231,-2.231,-2.231,-2.231,-2.231,-2.231,-2.231,-2.231,-2.231,-2.231,-2.231,-2.231,-2.231,-2.231,-2.231,-2.231,-2.231,-2.2508,-2.3087,-2.3414,-2.3628,-2.3628,-2.3242,-2.2978,-2.2978,-2.2246,-2.1806,-2.1823,-2.1823,-2.184,-2.1803,-2.1839,-2.1839,-2.1803,-2.1839,-2.1876,-2.1876,-2.2666,-2.307,-2.3088,-2.3841,-2.419,-1.3379,-1.3591,-1.3861,-1.4932,-1.5151,-1.5213,-1.5756,-1.5762,-1.5498,-1.5251,-1.5222,-1.5066,-1.4582,0.0,0.0,-1.681,-1.7652,0.0,-1.9648,-2.0062,0.0,-2.025,0.0,-2.0702,-2.084,-2.0865,0.0,0.0,-2.1576,-2.2076,-2.3132,-2.3224,-2.3568,-2.4378,-2.4551,-2.5031,-2.5673,-2.5892,-2.5861,-2.5706,-2.6093,-2.5972,-2.5523,-2.5393,-2.5091,-2.4552,-2.3894,-2.3595,-2.3595,-2.3595,-2.3595,-2.3595,-2.3595,-2.3595,-2.3595,-2.3752,-2.3794,-2.3819,-2.4131,-2.3988,-2.3616,-2.2997,-2.2489,-2.2117,-2.2245,-2.2061,-2.1853,-2.2209,-2.231,-2.231,-2.231,-2.231,-2.231,-2.231,-2.231,-2.231,-2.231,-2.231,-2.231,-2.231,-2.231,-2.231,-2.231,-2.231,-2.231,-2.231,-2.231,-2.2349,-2.2508,-2.2598,-2.2651,-2.2651,-2.2531,-2.2546,-2.2764,-2.2037,-2.1777,-2.2291,-2.2328,-2.2171,-2.1804,-2.2373,-2.2409,-2.1821,-2.2391,-2.2703,-2.2703,-2.3511,-2.3896,-2.3896,-2.4098,-2.419,-1.3379,-1.3779,-1.4287,-1.5079,-1.5182,-1.512,-1.5246,-1.5163,-1.4831,-1.394,-1.3931,0.0,-1.324,-1.4149,0.0,0.0,0.0,0.0,-1.9346,-1.9821,-2.014,0.0,-2.027,0.0,-2.0354,-2.0354,-2.0622,0.0,-2.1458,-2.1925,-2.2867,-2.2893,-2.3226,-2.3794,-2.4158,-2.4709,-2.5398,-2.5063,-2.5063,-2.5398,-2.5508,-2.5492,-2.5434,-2.4963,-2.465,-2.4508,0.0,-2.3377,-2.3595,-2.3595,-2.3595,-2.3595,-2.3595,-2.3595,-2.3595,-2.3595,-2.3595,-2.3638,-2.3948,-2.3994,-2.3803,-2.3382,-2.2905,-2.2433,-2.2429,-2.2245,-2.2071,-2.2236,-2.231,-2.231,-2.231,-2.231,-2.231,-2.231,-2.231,-2.231,-2.231,-2.231,-2.231,-2.231,-2.231,-2.231,-2.231,-2.231,-2.231,-2.231,-2.231,-2.231,-2.231,-2.2398,-2.249,-2.249,-2.2607,-2.2773,-2.2898,-2.2513,-2.2412,-2.2771,-2.2793,-2.2764,-2.2646,-2.3065,-2.3159,-2.285,-2.3309,-2.3529,-2.3529,-2.3988,-2.419,-2.419,-2.419,-2.419,-1.342,-1.4126,-1.4952,-1.5636,-1.5781,-1.5574,-1.5296,-1.5176,-1.456,-1.2602,0.0,-1.261,-1.1684,-1.2758,-1.4076,-1.4862,0.0,-1.8026,-1.8772,-1.9083,-1.9312,-1.9371,-1.9249,-1.911,-1.911,-1.911,-1.9652,-2.102,-2.1369,-2.1793,-2.2397,-2.2422,-2.2636,-2.3065,-2.3767,-2.4452,-2.5063,-2.4452,-2.4452,-2.5063,-2.4567,-2.4624,-2.519,-2.4102,-2.3895,-2.4312,-2.3195,0.0,-2.3465,-2.3551,-2.3595,-2.3595,-2.3595,-2.3595,-2.3595,-2.3595,-2.3595,-2.3595,-2.3595,-2.3595,-2.3646,-2.3927,-2.3539,-2.2905,-2.2622,-2.2459,-2.2393,-2.2174,-2.2123,-2.2152,-2.218,-2.2209,-2.2209,-2.2282,-2.231,-2.231,-2.231,-2.231,-2.231,-2.231,-2.231,-2.231,-2.231,-2.231,-2.231,-2.231,-2.231,-2.231,-2.231,-2.25,-2.2634,-2.2634,-2.2915,-2.3087,-2.3087,-2.3087,-2.3111,-2.3117,-2.3141,-2.3282,-2.361,-2.3631,-2.3774,-2.4074,-2.4113,-2.4113,-2.4113,-2.417,-2.419,-2.419,-2.419,-2.419,-1.3066,-1.3948,-1.4919,-1.5377,-1.4923,-1.4314,-1.3911,-1.3258,0.0,0.0,-1.1267,-1.1024,-1.0145,-1.124,-1.2598,-1.3626,0.0,0.0,0.0,0.0,-1.8771,0.0,0.0,0.0,0.0,0.0,0.0,0.0,0.0,-2.2141,-2.2927,-2.2927,-2.2977,-2.3078,-2.3258,-2.3365,-2.3471,-2.3365,-2.3365,-2.3531,-2.406,-2.435,-2.4469,-2.389,-2.3654,-2.3724,-2.3008,0.0,-2.2875,-2.3377,-2.3595,-2.3595,-2.3595,-2.3595,-2.3595,-2.3595,-2.3595,-2.3595,-2.3595,-2.3595,-2.3576,-2.3456,-2.3115,-2.269,-2.2239,-2.1811,-2.1497,-2.1295,-2.1229,-2.1291,-2.1628,-2.1718,-2.1823,-2.2209,-2.231,-2.231,-2.231,-2.231,-2.231,-2.231,-2.231,-2.231,-2.231,-2.231,-2.231,-2.231,-2.231,-2.231,-2.231,-2.2349,-2.236,-2.236,-2.2415,-2.247,-2.247,-2.247,-2.2544,-2.2772,-2.2797,-2.2947,-2.3259,-2.33,-2.3305,-2.3369,-2.3649,-2.3795,-2.3795,-2.4056,-2.419,-2.419,-2.419,-2.419,-1.3474,-1.4323,-1.5107,-1.5088,-1.4609,-1.3795,-1.2744,0.0,0.0,0.0,-1.0091,-0.9975,-0.9076,0.0,0.0,0.0,0.0,0.0,0.0,0.0,0.0,0.0,0.0,0.0,0.0,0.0,0.0,0.0,0.0,-2.129,-2.3017,-2.3078,-2.3078,-2.3078,-2.3078,-2.3078,-2.3078,-2.3078,-2.3078,-2.3078,-2.3484,-2.3649,-2.3682,-2.2858,-2.2698,-2.2935,-2.2081,0.0,-2.2694,-2.3009,-2.3334,-2.3595,-2.3595,-2.3595,-2.3595,-2.3595,-2.3595,-2.3595,-2.3595,-2.3595,-2.3593,-2.3474,-2.3341,-2.3017,-2.2372,-2.1989,-2.1698,-2.1164,-2.0991,-2.1023,-2.1244,-2.1275,-2.1337,-2.1554,-2.1781,-2.2003,-2.2254,-2.231,-2.231,-2.231,-2.231,-2.231,-2.231,-2.231,-2.231,-2.231,-2.231,-2.231,-2.231,-2.231,-2.231,-2.231,-2.231,-2.231,-2.231,-2.231,-2.2332,-2.2473,-2.25,-2.2643,-2.2923,-2.2947,-2.3021,-2.3189,-2.3369,-2.3437,-2.3437,-2.3774,-2.3937,-2.3937,-2.4113,-2.419,-1.3664,-1.4576,-1.5205,-1.4863,-1.4463,-1.3682,-1.1963,-1.1571,0.0,-0.9169,-0.909,-0.9083,-0.8325,0.0,-1.0956,0.0,-1.258,0.0,0.0,0.0,0.0,0.0,0.0,0.0,0.0,0.0,0.0,0.0,0.0,0.0,-2.2763,-2.2823,-2.2944,-2.3065,-2.3078,-2.3078,-2.3078,-2.3078,-2.3078,-2.3078,-2.3078,-2.3078,-2.3027,-2.1995,-2.1746,-2.2148,-2.1208,0.0,0.0,-2.2452,-2.2875,-2.3421,-2.3421,-2.3465,-2.3595,-2.3595,-2.3595,-2.3595,-2.3595,-2.3595,-2.3595,-2.3595,-2.3505,-2.326,-2.243,-2.2072,-2.1778,-2.096,-2.0698,-2.0731,-2.0829,-2.0862,-2.0862,-2.0959,-2.1244,-2.1598,-2.2032,-2.2135,-2.218,-2.2282,-2.231,-2.231,-2.231,-2.231,-2.231,-2.231,-2.231,-2.231,-2.231,-2.231,-2.231,-2.231,-2.231,-2.231,-2.231,-2.231,-2.231,-2.231,-2.231,-2.2371,-2.2599,-2.2625,-2.2738,-2.2989,-2.3069,-2.3093,-2.3093,-2.35,-2.3692,-2.3714,-2.4036,-2.419,-1.2933,-1.4033,-1.4834,-1.4795,-1.4463,-1.364,-1.1982,0.0,-1.0415,-0.8773,-0.8439,-0.8275,-0.7851,-0.8298,-0.9133,-1.0396,-1.0995,-1.1918,0.0,0.0,0.0,0.0,0.0,0.0,0.0,0.0,0.0,0.0,0.0,0.0,-2.1951,-2.2002,-2.2322,-2.3078,-2.3078,-2.3078,-2.3078,-2.3078,-2.3078,-2.3078,-2.3078,-2.3078,-2.3027,-2.1995,-2.1536,-2.1529,-2.1004,0.0,0.0,-2.1582,-2.2193,-2.2785,-2.2785,-2.3113,-2.3595,-2.3595,-2.3595,-2.3595,-2.3595,-2.3595,-2.3595,-2.3595,-2.3221,-2.2664,-2.1944,-2.1315,-2.0708,-2.0029,-1.9818,-1.9909,-2.0246,-2.0348,-2.0483,-2.0894,-2.1039,-2.115,-2.1568,-2.1658,-2.1794,-2.2209,-2.231,-2.231,-2.231,-2.231,-2.231,-2.231,-2.231,-2.231,-2.231,-2.231,-2.231,-2.231,-2.231,-2.231,-2.231,-2.231,-2.231,-2.231,-2.231,-2.231,-2.2349,-2.2349,-2.2349,-2.2377,-2.2625,-2.2746,-2.2746,-2.3392,-2.3692,-2.3714,-2.4036,-2.419,-1.2939,-1.3849,-1.4336,-1.4082,-1.3887,-1.3242,-1.126,0.0,-1.0019,-0.8332,-0.796,-0.7889,-0.7725,-0.8319,-0.9003,-0.9528,-1.0185,-1.1023,-1.2277,0.0,0.0,0.0,0.0,0.0,0.0,0.0,0.0,0.0,0.0,0.0,-2.0268,-2.0846,-2.1227,-2.1604,-2.2125,-2.2384,-2.2384,-2.2884,-2.3078,-2.3078,-2.3078,-2.3078,-2.3027,-2.1995,-2.1493,-2.1418,-2.0603,0.0,0.0,-2.1077,-2.1534,-2.2146,-2.2543,-2.2844,-2.3098,-2.3465,-2.3595,-2.3595,-2.3595,-2.3595,-2.3535,-2.3161,-2.2607,-2.2039,-2.1769,-2.1231,-2.0572,-1.9884,-1.969,-1.9747,-1.9909,-1.9929,-2.0035,-2.0499,-2.0583,-2.0682,-2.115,-2.1244,-2.1275,-2.1493,-2.1705,-2.1899,-2.1899,-2.2106,-2.231,-2.231,-2.231,-2.231,-2.231,-2.231,-2.231,-2.231,-2.231,-2.231,-2.231,-2.231,-2.231,-2.231,-2.231,-2.231,-2.231,-2.231,-2.231,-2.231,-2.2398,-2.2463,-2.2463,-2.3087,-2.3392,-2.3414,-2.3937,-2.4094,-1.2905,-1.3633,-1.3824,-1.3584,-1.3418,-1.2793,0.0,-1.0186,-0.9639,-0.8026,-0.7695,-0.7695,-0.7695,-0.8228,-0.8756,-0.8983,-0.9672,-1.0494,-1.1463,0.0,0.0,0.0,0.0,0.0,0.0,0.0,0.0,0.0,0.0,0.0,0.0,-1.9497,-2.0074,-2.059,-2.1175,-2.1502,-2.1502,-2.231,-2.2763,-2.2763,-2.3017,-2.3078,-2.3027,-2.1995,-2.1493,-2.143,0.0,0.0,0.0,-2.0497,-2.0868,-2.1472,-2.1927,-2.2267,-2.2498,-2.3098,-2.3334,-2.3377,-2.3551,-2.3595,-2.3535,-2.3086,-2.2383,-2.1695,-2.1695,-2.1096,-2.0318,-1.9824,-1.969,-1.969,-1.969,-1.969,-1.9782,-2.007,-2.0124,-2.0261,-2.0698,-2.0797,-2.0829,-2.0959,-2.1213,-2.146,-2.1582,-2.1869,-2.2135,-2.2282,-2.231,-2.231,-2.231,-2.231,-2.231,-2.231,-2.231,-2.231,-2.231,-2.231,-2.231,-2.231,-2.231,-2.231,-2.231,-2.231,-2.231,-2.231,-2.231,-2.231,-2.231,-2.2807,-2.3045,-2.3069,-2.3649,-2.3774,-1.2503,-1.3193,-1.3516,-1.3506,-1.3193,-1.2432,-1.0684,-0.9951,-0.9242,-0.7958,-0.7695,-0.7695,-0.7695,-0.7695,-0.7987,-0.8867,-0.9355,-1.0078,-1.142,0.0,0.0,0.0,0.0,0.0,0.0,0.0,0.0,0.0,0.0,0.0,0.0,-1.8008,-1.8854,-2.0526,-2.059,-2.059,-2.059,-2.1491,-2.1877,-2.1939,-2.2702,-2.3078,-2.3027,-2.1995,-2.1493,0.0,0.0,0.0,0.0,-1.9798,-2.0194,-2.0795,-2.0795,-2.121,-2.1805,-2.2452,-2.2694,-2.2785,-2.3377,-2.3595,-2.3595,-2.3595,-2.2727,-2.1695,-2.1695,-2.0767,-1.969,-1.969,-1.969,-1.969,-1.969,-1.969,-1.969,-1.9726,-1.9726,-1.9818,-2.0212,-2.0314,-2.0449,-2.0894,-2.0991,-2.1118,-2.1521,-2.1612,-2.1764,-2.2237,-2.231,-2.231,-2.231,-2.231,-2.231,-2.231,-2.231,-2.231,-2.231,-2.231,-2.231,-2.231,-2.231,-2.231,-2.231,-2.231,-2.231,-2.231,-2.231,-2.231,-2.231,-2.2573,-2.2721,-2.2721,-2.3045,-2.3212,-1.09,-1.1416,-1.166,-1.1377,-1.1416,-1.1162,-0.9736,-0.9521,-0.9233,-0.7958,-0.7695,-0.7695,-0.7695,-0.7695,-0.8075,-0.9213,-0.9505,-1.0078,0.0,0.0,0.0,0.0,0.0,0.0,0.0,0.0,0.0,0.0,0.0,0.0,0.0,-1.7734,-1.7962,-1.8777,-1.9431,-1.9694,-1.9694,-2.1175,-2.1877,-2.1877,-2.2702,-2.3078,-2.3027,-2.1995,0.0,0.0,0.0,0.0,0.0,-1.9798,-1.9952,-2.0144,-2.0597,-2.0944,-2.121,-2.2314,-2.2694,-2.2785,-2.3377,-2.3325,-2.2966,-2.2966,-2.2084,-2.1021,-2.1021,-2.0393,-1.969,-1.969,-1.969,-1.969,-1.969,-1.969,-1.969,-1.969,-1.969,-1.9711,-1.9874,-1.9874,-1.9945,-2.0085,-2.033,-2.055,-2.0699,-2.1197,-2.1568,-2.1415,-2.1645,-2.1735,-2.1462,-2.1645,-2.1823,-2.1823,-2.2106,-2.231,-2.231,-2.231,-2.231,-2.231,-2.231,-2.231,-2.231,-2.231,-2.231,-2.231,-2.231,-2.231,-2.231,-2.2563,-2.2822,-2.3045,-2.3141,-2.3305,-0.9789,-1.0352,-1.0605,-1.0342,-1.0361,-1.0176,-0.9219,-0.9082,-0.8887,-0.789,-0.7695,-0.7695,-0.7695,-0.7695,-0.8065,-0.9174,-0.9495,-1.0078,0.0,0.0,0.0,0.0,0.0,0.0,0.0,0.0,0.0,0.0,0.0,0.0,0.0,-1.7529,-1.7422,-1.7519,-1.8036,-1.8424,-1.8598,-2.031,-2.123,-2.1428,-2.2567,-2.2965,-2.2799,-2.1895,0.0,0.0,0.0,0.0,0.0,-1.9798,-1.9798,-1.985,-2.0258,-2.0396,-2.0547,-2.1609,-2.2128,-2.2392,-2.2741,-2.2818,-2.2712,-2.2683,-2.1966,-2.0991,-2.0483,-2.0034,-1.969,-1.969,-1.969,-1.969,-1.969,-1.969,-1.969,-1.969,-1.969,-1.969,-1.969,-1.969,-1.969,-1.969,-1.9909,-2.0124,-2.028,-2.0732,-2.107,-2.0991,-2.1213,-2.1275,-2.1023,-2.1213,-2.143,-2.1582,-2.1853,-2.2106,-2.2282,-2.231,-2.231,-2.231,-2.231,-2.231,-2.231,-2.231,-2.231,-2.231,-2.231,-2.231,-2.231,-2.2463,-2.2704,-2.3021,-2.3021,-2.3189,0.0,-0.9746,-1.0107,-1.0107,-0.9814,-0.9398,-0.9014,-0.8633,0.0,-0.7783,-0.7695,-0.7715,-0.7783,-0.7763,-0.8046,-0.8994,-0.9437,0.0,0.0,0.0,0.0,0.0,0.0,0.0,0.0,0.0,0.0,0.0,0.0,0.0,0.0,-1.7305,-1.71,-1.6699,-1.6587,-1.6865,-1.7334,-1.8996,-2.0081,-2.049,-2.2189,-2.2749,-2.2234,-2.1681,0.0,0.0,0.0,0.0,0.0,-1.9798,-1.9798,-1.9798,-1.9798,-1.9798,-1.9901,-2.0547,-2.1161,-2.1649,-2.171,-2.2069,-2.2574,-2.2527,-2.2116,-2.138,-2.0079,-1.969,-1.969,-1.969,-1.969,-1.969,-1.969,-1.969,-1.969,-1.969,-1.969,-1.969,-1.969,-1.969,-1.969,-1.969,-1.969,-1.9818,-2.0177,-2.028,-2.0449,-2.0829,-2.0926,-2.0926,-2.0894,-2.0959,-2.115,-2.1521,-2.1628,-2.1823,-2.2254,-2.231,-2.231,-2.231,-2.231,-2.231,-2.231,-2.231,-2.231,-2.231,-2.231,-2.231,-2.231,-2.231,-2.2453,-2.2695,-2.2695,-2.2873,-0.6963,0.0,-0.833,-0.833,-0.8506,-0.8555,0.0,-0.8213,-0.8252,-0.7783,-0.7695,-0.79,-0.8584,-0.8437,-0.8711,-1.0215,-1.0547,0.0,0.0,0.0,0.0,0.0,0.0,0.0,0.0,0.0,0.0,0.0,0.0,0.0,0.0,-1.6553,-1.6328,-1.6221,-1.5889,-1.6094,-1.6885,-1.8502,-1.9336,-1.9459,-2.1086,-2.1807,-2.1656,-2.1104,0.0,0.0,0.0,0.0,-1.9798,-1.9798,-1.9798,-1.9798,-1.9798,-1.9798,-1.9901,-2.0547,-2.0894,-2.1064,-2.152,-2.1509,-2.1163,-2.0598,-2.0669,-2.0782,-1.9944,-1.969,-1.969,-1.969,-1.969,-1.969,-1.969,-1.969,-1.969,-1.969,-1.969,-1.969,-1.969,-1.969,-1.969,-1.969,-1.969,-1.9711,-1.9803,-2.0089,-2.0212,-2.005,-2.0261,-2.0364,-2.005,-2.0599,-2.1039,-2.1118,-2.1751,-2.218,-2.2282,-2.231,-2.231,-2.231,-2.231,-2.231,-2.231,-2.231,-2.231,-2.231,-2.231,-2.231,-2.231,-2.231,-2.2453,-2.2695,-2.2695,-2.2873,-0.5996,-0.7051,-0.8027,-0.8027,-0.835,-0.8603,-0.8369,-0.8193,-0.8008,-0.7744,0.0,-0.79,-0.8594,-0.8691,-0.9092,-1.041,-1.0947,0.0,0.0,0.0,0.0,0.0,0.0,0.0,0.0,0.0,0.0,0.0,0.0,0.0,0.0,-1.6201,-1.6027,-1.5771,-1.5537,-1.5732,-1.6416,-1.7719,-1.8592,-1.9112,-2.0411,-2.1064,-2.1104,-2.0803,-2.0567,0.0,0.0,0.0,-1.9798,-1.9798,-1.9798,-1.9798,-1.9798,-1.9798,-1.985,-2.0194,-2.056,-2.0795,-2.0805,-2.0819,-2.0692,-1.9961,-2.0148,-2.0587,-1.9884,-1.969,-1.969,-1.969,-1.969,-1.969,-1.969,-1.969,-1.969,-1.969,-1.969,-1.969,-1.969,-1.969,-1.969,-1.969,-1.969,-1.969,-1.969,-1.9874,-1.9929,-1.9711,-1.9874,-1.9945,-1.9726,-2.012,-2.0465,-2.0649,-2.1291,-2.1781,-2.1974,-2.218,-2.231,-2.231,-2.231,-2.231,-2.231,-2.231,-2.231,-2.231,-2.231,-2.231,-2.231,-2.231,-2.2453,-2.2695,-2.2695,-2.2873,-0.583,-0.7224,-0.8469,-0.8311,-0.8691,-0.9082,-0.9023,-0.8437,0.0,0.0,0.0,0.0,0.0,-0.9004,0.0,0.0,0.0,0.0,0.0,0.0,0.0,0.0,0.0,0.0,0.0,0.0,0.0,0.0,0.0,0.0,0.0,-1.5957,-1.5791,-1.542,-1.541,-1.5586,-1.5957,-1.6822,-1.7776,-1.8711,-1.9599,-2.0125,-2.042,-2.042,-2.021,-1.9798,0.0,0.0,-1.9798,-1.9798,-1.9798,-1.9798,-1.9798,-1.9798,-1.9798,-1.9798,-2.0156,-2.0547,-2.0003,-2.0103,-2.0402,-1.9782,-1.9951,-2.0325,-1.9745,-1.9639,-1.969,-1.969,-1.969,-1.969,-1.969,-1.969,-1.969,-1.969,-1.969,-1.969,-1.969,-1.969,-1.969,-1.969,-1.969,-1.969,-1.969,-1.969,-1.969,-1.969,-1.969,-1.969,-1.969,-1.9747,-1.9945,-2.0348,-2.0813,-2.1244,-2.1658,-2.2061,-2.231,-2.231,-2.231,-2.231,-2.231,-2.231,-2.231,-2.231,-2.231,-2.231,-2.231,-2.231,-2.2453,-2.2695,-2.266,-2.2797,-0.6572,-0.7881,-0.873,-0.7978,-0.8659,-0.9408,-0.9082,-0.8896,-0.8809,0.0,0.0,0.0,0.0,0.0,0.0,0.0,0.0,0.0,0.0,0.0,0.0,0.0,0.0,0.0,0.0,0.0,0.0,0.0,0.0,0.0,0.0,-1.5508,-1.5478,-1.541,-1.541,-1.5439,-1.5508,-1.6253,-1.6743,-1.692,-1.7701,-1.8363,-1.9006,-1.9006,-1.9287,-1.9798,0.0,-1.9798,-1.9798,-1.9798,-1.9798,-1.9798,-1.9798,-1.9798,-1.9798,-1.9798,-1.985,-1.9952,-1.985,-1.9564,-1.9277,-1.9123,-1.9142,-1.915,-1.9035,-1.9332,-1.969,-1.969,-1.969,-1.969,-1.969,-1.969,-1.969,-1.969,-1.969,-1.969,-1.969,-1.969,-1.969,-1.969,-1.969,-1.969,-1.969,-1.969,-1.969,-1.969,-1.969,-1.969,-1.969,-2.0,-2.0382,-2.0829,-2.1275,-2.1688,-2.2135,-2.2254,-2.231,-2.231,-2.231,-2.231,-2.231,-2.231,-2.231,-2.231,-2.231,-2.231,-2.231,-2.231,-2.2453,-2.2695,-2.2463,-2.25,-0.5847,-0.7121,-0.8271,-0.8115,-0.9385,-1.0625,-1.0469,-1.0029,-0.9697,0.0,0.0,0.0,0.0,0.0,0.0,0.0,0.0,0.0,0.0,0.0,0.0,0.0,0.0,0.0,0.0,0.0,0.0,0.0,0.0,0.0,0.0,0.0,-1.541,-1.541,-1.541,-1.541,-1.541,-1.5758,-1.6093,-1.6492,-1.681,-1.7578,-1.8715,-1.8715,-1.9097,-1.9798,0.0,-1.9798,-1.9798,-1.9798,-1.9798,-1.9798,-1.9798,-1.9798,-1.9798,-1.9798,-1.9623,-1.9384,-1.9384,-1.9028,-1.8574,-1.8574,-1.8728,-1.8893,-1.8893,-1.9281,-1.969,-1.969,-1.969,-1.969,-1.969,-1.969,-1.969,-1.969,-1.969,-1.969,-1.969,-1.969,-1.969,-1.969,-1.969,-1.969,-1.969,-1.969,-1.969,-1.969,-1.969,-1.969,-1.969,-2.0054,-2.0382,-2.0583,-2.1197,-2.1688,-2.1899,-2.2135,-2.231,-2.231,-2.231,-2.231,-2.231,-2.231,-2.231,-2.231,-2.231,-2.231,-2.231,-2.231,-2.236,-2.2473,-2.2377,-2.2377,-0.5487,-0.6616,-0.7851,-0.8516,-0.9902,-1.1224,-1.1538,-1.1018,-1.0488,0.0,0.0,0.0,0.0,0.0,0.0,0.0,0.0,0.0,0.0,0.0,0.0,0.0,0.0,0.0,0.0,0.0,0.0,0.0,0.0,0.0,0.0,0.0,-1.541,-1.541,-1.541,-1.541,-1.541,-1.541,-1.569,-1.6255,-1.6436,-1.7191,-1.8447,-1.8608,-1.9097,-1.9798,-1.9798,-1.9798,-1.9798,-1.9798,-1.9798,-1.9798,-1.9798,-1.9798,-1.9798,-1.9798,-1.9472,-1.8983,-1.8983,-1.8576,-1.8004,-1.8004,-1.8248,-1.8535,-1.865,-1.9006,-1.9369,-1.9639,-1.9603,-1.953,-1.969,-1.969,-1.969,-1.969,-1.969,-1.969,-1.969,-1.969,-1.969,-1.969,-1.969,-1.969,-1.969,-1.969,-1.969,-1.969,-1.969,-1.969,-1.969,-1.9965,-2.0193,-2.028,-2.0894,-2.1399,-2.1582,-2.2032,-2.231,-2.231,-2.231,-2.231,-2.231,-2.231,-2.231,-2.231,-2.231,-2.231,-2.231,-2.231,-2.231,-2.231,-2.231,-2.231,-0.6621,-0.7334,-0.7987,-0.9203,-0.9622,-1.0088,-1.1332,-1.1201,0.0,-1.1924,0.0,0.0,0.0,0.0,0.0,0.0,0.0,0.0,0.0,0.0,0.0,0.0,0.0,0.0,0.0,0.0,0.0,0.0,0.0,0.0,0.0,0.0,0.0,-1.541,-1.541,-1.541,-1.541,-1.541,-1.541,-1.5468,-1.6151,-1.6922,-1.7688,-1.8394,-1.9097,-1.9798,-1.9798,-1.9798,-1.9798,-1.9798,-1.9798,-1.9798,-1.9798,-1.9798,-1.9798,-1.9798,-1.9472,-1.8983,-1.8983,-1.8304,-1.7465,-1.7465,-1.7441,-1.7504,-1.8027,-1.8185,-1.8419,-1.9406,-1.9332,-1.908,-1.9566,-1.969,-1.969,-1.969,-1.969,-1.969,-1.969,-1.969,-1.969,-1.969,-1.969,-1.969,-1.969,-1.969,-1.969,-1.969,-1.969,-1.969,-1.969,-1.9726,-1.9874,-2.0246,-2.0348,-2.0699,-2.1521,-2.2032,-2.231,-2.231,-2.231,-2.231,-2.231,-2.231,-2.231,-2.231,-2.231,-2.231,-2.231,-2.231,-2.231,-2.231,-2.231,-2.231,-0.572,-0.6752,-0.788,-0.8662,-0.9453,0.0,0.0,-1.2061,-1.2617,-1.2959,-1.3232,0.0,0.0,0.0,0.0,0.0,0.0,0.0,0.0,0.0,0.0,0.0,0.0,0.0,0.0,0.0,0.0,0.0,0.0,0.0,0.0,0.0,0.0,-1.541,-1.541,-1.541,-1.541,-1.541,-1.541,-1.541,-1.569,-1.6415,-1.7633,-1.7907,-1.8661,-1.9798,-1.9798,-1.9798,-1.9798,-1.9798,-1.9798,-1.9798,-1.9798,-1.961,-1.9321,-1.9321,-1.8756,-1.8003,-1.8003,-1.7488,-1.6848,-1.6848,-1.7059,-1.7353,-1.7544,-1.8066,-1.8688,-1.9095,-1.9281,-1.9442,-1.9639,-1.969,-1.969,-1.969,-1.969,-1.969,-1.969,-1.969,-1.969,-1.969,-1.969,-1.969,-1.969,-1.969,-1.969,-1.969,-1.969,-1.969,-1.969,-1.9909,-2.0124,-2.028,-2.0765,-2.1368,-2.1974,-2.2209,-2.231,-2.231,-2.231,-2.231,-2.231,-2.231,-2.231,-2.231,-2.231,-2.231,-2.231,-2.231,-2.231,-2.231,-2.231,-2.231,-0.5516,-0.6684,-0.8037,-0.8467,0.0,0.0,-1.1439,-1.2471,-1.3379,-1.3652,-1.3936,0.0,0.0,0.0,0.0,0.0,0.0,0.0,0.0,0.0,0.0,0.0,0.0,0.0,0.0,0.0,0.0,0.0,0.0,0.0,0.0,0.0,0.0,0.0,-1.541,-1.541,-1.541,-1.541,-1.541,-1.541,-1.541,-1.6187,-1.7633,-1.8058,-1.8874,-1.9798,-1.9798,-1.9798,-1.9798,-1.9798,-1.9798,-1.9786,-1.9623,-1.9334,-1.8958,-1.8832,-1.8179,-1.7388,-1.7388,-1.6999,-1.6522,-1.6522,-1.6752,-1.7076,-1.7229,-1.7706,-1.8224,-1.8535,-1.8779,-1.9006,-1.9369,-1.9566,-1.969,-1.969,-1.969,-1.969,-1.969,-1.969,-1.969,-1.969,-1.969,-1.969,-1.969,-1.969,-1.969,-1.969,-1.969,-1.969,-1.969,-1.9929,-2.0124,-2.0124,-2.0765,-2.1368,-2.1857,-2.2003,-2.2135,-2.2282,-2.231,-2.231,-2.231,-2.231,-2.231,-2.231,-2.231,-2.231,-2.231,-2.231,-2.231,-2.231,-2.231,-2.231,-0.6406,-0.7373,-0.8518,-0.8906,0.0,0.0,-1.1518,-1.2302,-1.3135,-1.3975,0.0,-1.4087,0.0,0.0,0.0,0.0,0.0,0.0,0.0,0.0,0.0,0.0,0.0,0.0,0.0,0.0,0.0,0.0,0.0,0.0,0.0,0.0,0.0,0.0,-1.54,-1.54,-1.54,-1.54,-1.54,-1.54,-1.541,-1.6187,-1.7633,-1.9097,-1.9798,-1.9798,-1.9798,-1.9798,-1.9798,-1.9786,-1.9786,-1.9736,-1.9221,-1.897,-1.8895,-1.8405,-1.7852,-1.7375,-1.7375,-1.6999,-1.6522,-1.6522,-1.6522,-1.6595,-1.7105,-1.6909,-1.671,-1.7787,-1.7706,-1.7544,-1.8612,-1.9281,-1.969,-1.969,-1.969,-1.969,-1.969,-1.969,-1.969,-1.969,-1.969,-1.969,-1.969,-1.969,-1.969,-1.969,-1.969,-1.969,-1.969,-1.969,-1.969,-1.9726,-2.007,-2.0483,-2.0959,-2.1368,-2.1794,-2.2282,-2.231,-2.231,-2.231,-2.231,-2.231,-2.231,-2.231,-2.231,-2.231,-2.231,-2.231,-2.231,-2.231,-2.231,-0.6317,-0.7768,0.0,-0.9111,0.0,0.0,0.0,-1.293,0.0,0.0,0.0,0.0,0.0,0.0,0.0,0.0,0.0,0.0,0.0,0.0,0.0,0.0,0.0,0.0,0.0,0.0,0.0,0.0,0.0,0.0,0.0,0.0,0.0,0.0,-1.4512,-1.4512,-1.4512,-1.4814,-1.4971,-1.4971,-1.578,-1.6698,-1.7578,-1.7523,-1.8058,-1.8967,-1.8177,-1.8064,-1.8452,-1.8623,-1.8681,-1.8668,-1.8505,-1.8216,-1.7852,-1.7689,-1.7262,-1.6773,-1.6773,-1.666,-1.6522,-1.6522,-1.6522,-1.6522,-1.668,-1.6879,-1.7105,-1.7463,-1.7987,-1.8496,-1.8817,-1.9281,-1.969,-1.969,-1.969,-1.969,-1.969,-1.969,-1.969,-1.969,-1.969,-1.969,-1.969,-1.969,-1.969,-1.969,-1.969,-1.969,-1.969,-1.969,-1.9818,-2.0089,-2.0516,-2.0943,-2.1399,-2.1823,-2.2135,-2.2282,-2.231,-2.231,-2.231,-2.231,-2.231,-2.231,-2.231,-2.231,-2.231,-2.231,-2.231,-2.231,-2.231,-2.2398,-0.7742,-0.9018,0.0,-1.0302,-1.1465,-1.2646,-1.2715,0.0,0.0,0.0,0.0,0.0,0.0,0.0,0.0,0.0,0.0,0.0,0.0,0.0,0.0,0.0,0.0,0.0,0.0,0.0,0.0,0.0,0.0,0.0,0.0,0.0,0.0,0.0,-1.4077,-1.4077,-1.4077,-1.4394,-1.4521,-1.4531,-1.522,-1.5928,-1.6677,-1.6667,-1.7179,-1.8014,-1.7358,-1.733,-1.7671,-1.803,-1.8204,-1.8179,-1.7965,-1.7677,-1.735,-1.7124,-1.6823,-1.6522,-1.6522,-1.6522,-1.6522,-1.6522,-1.6522,-1.6522,-1.6522,-1.671,-1.6993,-1.6993,-1.7463,-1.7987,-1.8224,-1.8496,-1.8893,-1.9566,-1.969,-1.969,-1.969,-1.969,-1.969,-1.969,-1.969,-1.969,-1.969,-1.969,-1.969,-1.969,-1.969,-1.969,-1.969,-1.969,-1.9839,-2.0246,-2.055,-2.0943,-2.1552,-2.1869,-2.2106,-2.2282,-2.231,-2.231,-2.231,-2.231,-2.231,-2.231,-2.231,-2.231,-2.231,-2.231,-2.2332,-2.2463,-2.2463,-2.2616,-0.9923,0.0,0.0,-1.2043,-1.2273,0.0,0.0,0.0,0.0,0.0,0.0,0.0,0.0,0.0,0.0,0.0,0.0,0.0,0.0,0.0,0.0,0.0,0.0,0.0,0.0,0.0,0.0,0.0,0.0,0.0,0.0,0.0,0.0,-1.397,-1.397,-1.397,-1.397,-1.4009,-1.4029,-1.4029,-1.4058,-1.443,-1.5143,-1.6219,-1.6721,-1.6707,-1.7003,-1.7074,-1.7087,-1.7698,-1.8006,-1.8003,-1.7501,-1.73,-1.7237,-1.671,-1.6522,-1.6522,-1.6522,-1.6522,-1.6522,-1.6522,-1.6522,-1.6522,-1.6522,-1.6522,-1.6522,-1.6522,-1.6552,-1.671,-1.7229,-1.7435,-1.7827,-1.9332,-1.9639,-1.9639,-1.969,-1.969,-1.969,-1.969,-1.969,-1.969,-1.969,-1.969,-1.969,-1.969,-1.969,-1.969,-1.969,-1.969,-1.9839,-2.0227,-2.028,-2.0601,-2.1413,-2.1552,-2.1794,-2.2209,-2.2282,-2.231,-2.231,-2.231,-2.231,-2.231,-2.231,-2.231,-2.231,-2.2321,-2.2436,-2.2643,-2.2695,-2.2855,-0.9465,-1.0923,0.0,0.0,-1.2962,0.0,0.0,0.0,0.0,0.0,0.0,0.0,0.0,0.0,0.0,0.0,0.0,0.0,0.0,0.0,0.0,0.0,0.0,0.0,0.0,0.0,0.0,0.0,0.0,0.0,0.0,0.0,0.0,-1.3154,-1.3154,-1.3154,-1.3154,-1.3477,-1.3643,0.0,-1.3975,-1.4184,-1.4334,-1.4593,-1.4548,-1.4328,-1.5285,-1.555,-1.5302,-1.5887,-1.6451,-1.6873,-1.6748,-1.671,-1.6685,-1.6559,-1.6522,-1.6522,-1.6522,-1.6522,-1.6522,-1.6522,-1.6522,-1.6522,-1.6522,-1.6522,-1.6522,-1.6522,-1.6795,-1.7229,-1.7787,-1.8263,-1.8727,-1.953,-1.9369,-1.9207,-1.9603,-1.969,-1.969,-1.969,-1.969,-1.969,-1.969,-1.969,-1.969,-1.969,-1.969,-1.969,-1.969,-1.969,-1.9711,-1.9818,-2.0124,-2.0382,-2.0567,-2.1228,-2.1642,-2.1748,-2.2106,-2.231,-2.231,-2.231,-2.231,-2.231,-2.231,-2.231,-2.231,-2.25,-2.2537,-2.2388,-2.2599,-2.2746,-1.009,0.0,0.0,-1.3433,0.0,0.0,0.0,0.0,0.0,0.0,0.0,0.0,0.0,0.0,0.0,0.0,0.0,0.0,0.0,0.0,0.0,0.0,0.0,0.0,0.0,0.0,0.0,0.0,0.0,0.0,0.0,-1.2881,-1.2881,-1.2881,-1.2881,-1.2881,-1.2881,-1.3096,-1.3203,-1.3213,-1.3428,-1.3535,-1.3545,-1.374,-1.3603,-1.3303,-1.4473,-1.4887,-1.4744,-1.5644,-1.6238,-1.6522,-1.6522,-1.6522,-1.6522,-1.6522,-1.6522,-1.6522,-1.6522,-1.6522,-1.6522,-1.6522,-1.6522,-1.6522,-1.6522,-1.6522,-1.6522,-1.6522,-1.671,-1.6993,-1.7271,-1.7544,-1.7947,-1.8727,-1.9132,-1.9369,-1.9639,-1.969,-1.969,-1.969,-1.969,-1.969,-1.969,-1.969,-1.969,-1.969,-1.969,-1.969,-1.969,-1.969,-1.9782,-1.9965,-2.0193,-2.0483,-2.0894,-2.1321,-2.1688,-2.1928,-2.2163,-2.231,-2.231,-2.231,-2.231,-2.231,-2.231,-2.231,-2.231,-2.2436,-2.25,-2.25,-2.2634,-2.2797,-1.0586,0.0,-1.2867,-1.436,-1.4402,0.0,0.0,0.0,0.0,0.0,0.0,0.0,0.0,0.0,0.0,0.0,0.0,0.0,0.0,0.0,0.0,0.0,0.0,0.0,0.0,0.0,0.0,0.0,0.0,0.0,-1.2881,-1.2881,-1.2881,-1.2881,-1.2881,-1.2881,-1.2881,-1.2881,-1.2881,-1.2881,-1.2881,-1.2881,-1.2891,-1.3242,-1.3213,-1.2978,-1.4165,-1.4698,-1.4801,-1.5876,-1.6423,-1.6522,-1.6522,-1.6522,-1.6522,-1.6522,-1.6522,-1.6522,-1.6522,-1.6522,-1.6522,-1.6522,-1.6522,-1.6522,-1.6522,-1.6522,-1.6522,-1.6522,-1.6522,-1.6522,-1.6595,-1.671,-1.7034,-1.8027,-1.9006,-1.969,-1.969,-1.969,-1.969,-1.969,-1.969,-1.969,-1.969,-1.969,-1.969,-1.969,-1.969,-1.969,-1.969,-1.969,-1.9854,-2.0158,-2.0193,-2.0483,-2.1197,-2.1337,-2.1568,-2.2049,-2.2135,-2.2209,-2.231,-2.231,-2.231,-2.231,-2.231,-2.231,-2.231,-2.2349,-2.2463,-2.2634,-2.2746,-2.2898,0.0,0.0,-1.3299,0.0,0.0,0.0,0.0,0.0,0.0,0.0,0.0,0.0,0.0,0.0,0.0,0.0,0.0,0.0,0.0,0.0,0.0,0.0,0.0,0.0,0.0,0.0,0.0,0.0,0.0,0.0,-1.2881,-1.2881,-1.2881,-1.2881,-1.2881,-1.2881,-1.2881,-1.2881,-1.2881,-1.2881,-1.2881,-1.2881,-1.2881,-1.2939,-1.293,-1.2978,-1.4165,-1.4698,-1.4744,-1.5466,-1.6051,-1.6522,-1.6522,-1.6522,-1.6522,-1.6522,-1.6522,-1.6522,-1.6522,-1.6522,-1.6522,-1.6522,-1.6522,-1.6522,-1.6522,-1.6522,-1.6522,-1.6522,-1.6522,-1.6595,-1.7076,-1.7544,-1.8027,-1.865,-1.9244,-1.969,-1.969,-1.969,-1.969,-1.969,-1.969,-1.969,-1.969,-1.969,-1.969,-1.969,-1.969,-1.969,-1.969,-1.969,-1.9711,-1.9782,-1.9782,-1.9854,-1.9945,-2.0246,-2.0682,-2.1134,-2.1507,-2.1869,-2.2282,-2.231,-2.231,-2.231,-2.231,-2.231,-2.231,-2.2537,-2.2537,-2.2377,-2.2908,-2.2996,-1.0006,-1.1318,-1.2709,0.0,0.0,0.0,0.0,0.0,0.0,0.0,0.0,0.0,0.0,0.0,0.0,0.0,0.0,0.0,0.0,0.0,0.0,0.0,0.0,0.0,0.0,0.0,0.0,0.0,0.0,-1.2881,-1.2881,-1.2881,-1.2881,-1.2881,-1.2881,-1.2881,-1.2881,-1.2881,-1.2881,-1.2881,-1.2881,-1.2881,-1.2881,-1.2881,-1.3055,-1.342,-1.3967,-1.4595,-1.5231,-1.5499,-1.5952,-1.6522,-1.6522,-1.6522,-1.6522,-1.6522,-1.6522,-1.6522,-1.6522,-1.6522,-1.6522,-1.6522,-1.6522,-1.6522,-1.6522,-1.6522,-1.6522,-1.6522,-1.6522,-1.6637,-1.7146,-1.7229,-1.7435,-1.8263,-1.8419,-1.8535,-1.9132,-1.9479,-1.969,-1.969,-1.969,-1.969,-1.969,-1.969,-1.969,-1.969,-1.969,-1.969,-1.969,-1.969,-1.969,-1.969,-1.969,-1.9782,-2.0035,-2.0431,-2.0894,-2.1306,-2.1735,-2.2077,-2.2282,-2.231,-2.231,-2.231,-2.231,-2.231,-2.231,-2.2563,-2.2634,-2.2554,-2.2989,-2.3021,0.0,0.0,-1.1712,0.0,0.0,0.0,0.0,0.0,0.0,0.0,0.0,0.0,0.0,0.0,0.0,0.0,0.0,0.0,0.0,0.0,0.0,0.0,0.0,0.0,0.0,0.0,0.0,0.0,0.0,-1.2881,-1.2881,-1.2881,-1.2881,-1.2881,-1.2881,-1.2881,-1.2881,-1.2881,-1.2881,-1.2881,-1.2881,-1.2881,-1.2881,-1.2881,-1.3286,-1.405,-1.405,-1.4549,-1.541,-1.5688,-1.6095,-1.6522,-1.6522,-1.6522,-1.6522,-1.6522,-1.6522,-1.6522,-1.6522,-1.6522,-1.6522,-1.6522,-1.6522,-1.6522,-1.6522,-1.6522,-1.6522,-1.6522,-1.6522,-1.6595,-1.6993,-1.6909,-1.6951,-1.7867,-1.7907,-1.7947,-1.8727,-1.9332,-1.969,-1.969,-1.969,-1.969,-1.969,-1.969,-1.969,-1.969,-1.969,-1.969,-1.969,-1.969,-1.969,-1.969,-1.969,-1.9874,-2.028,-2.0616,-2.1039,-2.1552,-2.1928,-2.218,-2.2282,-2.231,-2.231,-2.231,-2.231,-2.2321,-2.2398,-2.2537,-2.2634,-2.2721,-2.2972,-2.2947,0.0,-0.9216,0.0,0.0,0.0,0.0,0.0,0.0,0.0,0.0,0.0,0.0,0.0,0.0,0.0,0.0,0.0,0.0,0.0,0.0,0.0,0.0,0.0,0.0,0.0,0.0,0.0,0.0,0.0,-1.2881,-1.2881,-1.2881,-1.2881,-1.2881,-1.2881,-1.2881,-1.2881,-1.2881,-1.2881,-1.2881,-1.2881,-1.2881,-1.2881,-1.2881,-1.3525,-1.4652,-1.4652,-1.4709,-1.4835,-1.5976,-1.6466,-1.6522,-1.6522,-1.6522,-1.6522,-1.6522,-1.6522,-1.6522,-1.6522,-1.6522,-1.6522,-1.6522,-1.6522,-1.6522,-1.6522,-1.6522,-1.6522,-1.6522,-1.6522,-1.6522,-1.6522,-1.6909,-1.7394,-1.7987,-1.8458,-1.8817,-1.8893,-1.9332,-1.969,-1.969,-1.969,-1.969,-1.969,-1.969,-1.969,-1.969,-1.969,-1.969,-1.969,-1.969,-1.969,-1.969,-1.969,-1.9874,-2.028,-2.0314,-2.0699,-2.1552,-2.1612,-2.184,-2.2282,-2.231,-2.231,-2.231,-2.231,-2.2426,-2.2669,-2.2453,-2.2436,-2.2695,-2.2721,-2.2721,0.0,0.0,0.0,0.0,0.0,0.0,0.0,0.0,0.0,0.0,0.0,0.0,0.0,0.0,0.0,0.0,0.0,0.0,0.0,0.0,0.0,0.0,0.0,0.0,0.0,0.0,0.0,0.0,0.0,0.0,-1.2881,-1.2881,-1.2881,-1.2881,-1.2881,-1.2881,-1.2881,-1.2881,-1.2881,-1.2881,-1.2881,-1.2881,-1.2929,-1.3286,-1.3684,-1.4143,-1.4514,-1.5152,-1.5788,-1.505,-1.5231,-1.5864,-1.5522,-1.5599,-1.5908,-1.5908,-1.6194,-1.6522,-1.6522,-1.6522,-1.6522,-1.6522,-1.6522,-1.6522,-1.6522,-1.6522,-1.6522,-1.6522,-1.6522,-1.6595,-1.6909,-1.6909,-1.6837,-1.7034,-1.7463,-1.7987,-1.8302,-1.8817,-1.9207,-1.9207,-1.9442,-1.969,-1.969,-1.969,-1.969,-1.969,-1.969,-1.969,-1.969,-1.969,-1.969,-1.969,-1.9929,-2.0035,-1.9929,-2.0431,-2.0748,-2.0765,-2.129,-2.1688,-2.1823,-2.2135,-2.231,-2.231,-2.231,-2.2349,-2.2436,-2.2527,-2.2599,-2.2721,-2.2923,-2.3021,-0.7513,0.0,0.0,0.0,0.0,0.0,0.0,0.0,0.0,0.0,0.0,0.0,0.0,0.0,0.0,0.0,0.0,0.0,0.0,0.0,0.0,0.0,0.0,0.0,0.0,0.0,0.0,0.0,0.0,0.0,-1.2881,-1.2881,-1.2881,-1.2881,-1.2881,-1.2881,-1.2881,-1.2881,-1.2881,-1.2881,-1.2881,-1.2881,-1.2929,-1.3334,-1.36,-1.3815,-1.4014,-1.4789,-1.5788,-1.4606,-1.4675,-1.5543,-1.5141,-1.5365,-1.5908,-1.5908,-1.6151,-1.6522,-1.6522,-1.6522,-1.6522,-1.6522,-1.6522,-1.6522,-1.6522,-1.6522,-1.6522,-1.6522,-1.6522,-1.6595,-1.6951,-1.6909,-1.6752,-1.6752,-1.7312,-1.7827,-1.7827,-1.838,-1.8968,-1.9132,-1.9442,-1.969,-1.969,-1.969,-1.969,-1.969,-1.969,-1.969,-1.969,-1.969,-1.969,-1.969,-1.9929,-2.007,-1.9909,-2.0431,-2.0748,-2.0748,-2.129,-2.1658,-2.1823,-2.2135,-2.231,-2.231,-2.231,-2.231,-2.231,-2.249,-2.2678,-2.2873,-2.2972,-2.3141,0.0,0.0,0.0,0.0,0.0,0.0,0.0,0.0,0.0,0.0,0.0,0.0,0.0,0.0,0.0,0.0,0.0,0.0,0.0,0.0,0.0,0.0,0.0,0.0,0.0,0.0,0.0,0.0,0.0,-1.2881,-1.2881,-1.2881,-1.2881,-1.2881,-1.2881,-1.2881,-1.2881,-1.2881,-1.2881,-1.2881,-1.2881,-1.2881,-1.2881,-1.2929,-1.3238,-1.3779,-1.32,-1.361,-1.4652,-1.4652,-1.5005,-1.5588,-1.5531,-1.5908,-1.6466,-1.6466,-1.6466,-1.6522,-1.6522,-1.6522,-1.6522,-1.6522,-1.6522,-1.6522,-1.6522,-1.6522,-1.6522,-1.6522,-1.6522,-1.6522,-1.6522,-1.6879,-1.7271,-1.7271,-1.8066,-1.8535,-1.7504,-1.8145,-1.9043,-1.9566,-1.969,-1.969,-1.969,-1.969,-1.969,-1.969,-1.969,-1.969,-1.969,-1.969,-1.969,-1.969,-1.9711,-1.9874,-2.0246,-2.028,-2.0682,-2.1491,-2.1552,-2.1764,-2.2209,-2.2282,-2.2282,-2.2282,-2.2282,-2.231,-2.231,-2.231,-2.2624,-2.3165,-2.2873,-2.3069,-0.6651,0.0,0.0,0.0,0.0,0.0,0.0,0.0,0.0,0.0,0.0,0.0,0.0,0.0,0.0,0.0,0.0,0.0,0.0,0.0,0.0,0.0,0.0,0.0,0.0,0.0,0.0,0.0,-1.2881,-1.2881,-1.2881,-1.2881,-1.2881,-1.2881,-1.2881,-1.2881,-1.2881,-1.2881,-1.2881,-1.2881,-1.2881,-1.2881,-1.2929,-1.3324,-1.3637,-1.3779,-1.3637,-1.3732,-1.405,-1.405,-1.4422,-1.4926,-1.4457,-1.4903,-1.5776,-1.5377,-1.5744,-1.6522,-1.6522,-1.6522,-1.6522,-1.6522,-1.6522,-1.6522,-1.6522,-1.6522,-1.6522,-1.6522,-1.6522,-1.6522,-1.6522,-1.6595,-1.671,-1.671,-1.6951,-1.7188,-1.7271,-1.7827,-1.838,-1.8496,-1.8855,-1.9244,-1.9639,-1.969,-1.969,-1.969,-1.969,-1.969,-1.969,-1.969,-1.969,-1.969,-1.9965,-2.0054,-1.9874,-2.0124,-2.028,-2.0243,-2.0516,-2.0715,-2.0846,-2.146,-2.1794,-2.1794,-2.2135,-2.231,-2.231,-2.25,-2.2686,-2.2848,-2.2996,-2.3021,-0.7009,-0.6937,0.0,0.0,0.0,0.0,0.0,0.0,0.0,0.0,0.0,0.0,0.0,0.0,0.0,0.0,0.0,0.0,0.0,0.0,0.0,0.0,0.0,0.0,0.0,0.0,0.0,-1.2881,-1.2881,-1.2881,-1.2881,-1.2881,-1.2881,-1.2881,-1.2881,-1.2881,-1.2881,-1.2881,-1.2881,-1.2881,-1.2881,-1.2881,-1.2929,-1.3238,-1.342,-1.342,-1.342,-1.342,-1.3457,-1.3967,-1.4236,-1.4329,-1.419,-1.4778,-1.5588,-1.5466,-1.5888,-1.6522,-1.6522,-1.6337,-1.6139,-1.6139,-1.5964,-1.5788,-1.6051,-1.6139,-1.6194,-1.6423,-1.6522,-1.6522,-1.6522,-1.6522,-1.6522,-1.6522,-1.668,-1.6879,-1.6951,-1.7394,-1.7907,-1.8341,-1.8855,-1.9332,-1.9639,-1.969,-1.969,-1.969,-1.969,-1.969,-1.969,-1.969,-1.969,-1.969,-1.9909,-1.9929,-1.9711,-1.9909,-2.0035,-1.9929,-2.0364,-2.0682,-2.083,-2.1538,-2.1899,-2.1899,-2.2163,-2.2349,-2.2463,-2.25,-2.2599,-2.2721,-2.3189,-2.3282,-0.768,-0.7581,0.0,0.0,0.0,0.0,-0.9942,-0.9692,0.0,0.0,0.0,0.0,0.0,0.0,0.0,0.0,0.0,0.0,0.0,0.0,0.0,0.0,0.0,0.0,0.0,-1.2987,-1.3017,-1.3017,-1.2929,-1.2881,-1.2881,-1.2881,-1.2881,-1.2881,-1.2881,-1.2881,-1.2881,-1.2881,-1.2881,-1.2881,-1.2881,-1.2881,-1.2881,-1.2881,-1.2881,-1.2881,-1.2968,-1.2968,-1.2978,-1.4107,-1.4283,-1.3862,-1.4468,-1.5017,-1.5543,-1.602,-1.6238,-1.6293,-1.6293,-1.6008,-1.5588,-1.5588,-1.5276,-1.5017,-1.5543,-1.572,-1.582,-1.6337,-1.6522,-1.6522,-1.6522,-1.6522,-1.6522,-1.6522,-1.6879,-1.7076,-1.6595,-1.6909,-1.7585,-1.8535,-1.9169,-1.953,-1.9603,-1.9639,-1.969,-1.969,-1.969,-1.969,-1.969,-1.969,-1.969,-1.969,-1.969,-1.969,-1.969,-1.969,-1.9839,-2.0212,-2.0632,-2.1023,-2.1352,-2.1869,-2.2135,-2.2077,-2.218,-2.2381,-2.2695,-2.249,-2.2517,-2.2772,-2.3414,-2.3671,-0.8818,0.0,0.0,0.0,0.0,0.0,0.0,-0.86,0.0,0.0,0.0,0.0,0.0,0.0,0.0,0.0,0.0,0.0,0.0,0.0,0.0,0.0,0.0,0.0,0.0,-1.3662,-1.3637,-1.3637,-1.3152,-1.2881,-1.2881,-1.2881,-1.2881,-1.2881,-1.2881,-1.2881,-1.2881,-1.2881,-1.2881,-1.2881,-1.2881,-1.2881,-1.2881,-1.2881,-1.2881,-1.2929,-1.342,-1.3324,-1.2978,-1.3695,-1.3909,-1.3862,-1.4468,-1.4789,-1.4835,-1.4457,-1.4641,-1.5062,-1.5062,-1.5276,-1.5588,-1.5588,-1.5864,-1.6151,-1.6281,-1.6337,-1.6337,-1.6466,-1.6522,-1.6522,-1.6522,-1.6522,-1.6522,-1.6522,-1.6595,-1.6637,-1.6522,-1.6909,-1.7353,-1.7585,-1.8066,-1.8535,-1.8968,-1.9406,-1.969,-1.969,-1.969,-1.969,-1.969,-1.969,-1.969,-1.969,-1.969,-1.969,-1.969,-1.969,-1.9711,-1.9803,-1.9909,-1.998,-2.0085,-2.0829,-2.1086,-2.0715,-2.1368,-2.2062,-2.2695,-2.2915,-2.3063,-2.3117,-2.3522,-2.3566,0.0,0.0,0.0,-0.9491,0.0,0.0,0.0,0.0,0.0,0.0,0.0,0.0,0.0,0.0,0.0,0.0,0.0,0.0,0.0,0.0,0.0,0.0,0.0,0.0,0.0,-1.3685,-1.3987,-1.4226,-1.3695,-1.3324,-1.3324,-1.3055,-1.2881,-1.2881,-1.2881,-1.2881,-1.2881,-1.2881,-1.2881,-1.2881,-1.2881,-1.2881,-1.2881,-1.2881,-1.2881,-1.2929,-1.3238,-1.32,-1.2978,-1.3552,-1.3637,-1.342,-1.4014,-1.4236,-1.4236,-1.4236,-1.4422,-1.4698,-1.4698,-1.4698,-1.4675,-1.4675,-1.4687,-1.4846,-1.5433,-1.602,-1.6522,-1.6522,-1.6522,-1.6522,-1.6522,-1.6522,-1.6522,-1.6522,-1.6522,-1.6522,-1.6522,-1.671,-1.6909,-1.6909,-1.7353,-1.7947,-1.8765,-1.9332,-1.969,-1.969,-1.969,-1.969,-1.969,-1.969,-1.969,-1.969,-1.969,-1.969,-1.969,-1.969,-1.969,-1.969,-1.9874,-2.0,-2.0,-2.0846,-2.1306,-2.1306,-2.1735,-2.2209,-2.2695,-2.3045,-2.3189,-2.3212,-2.3544,-2.361,0.0,0.0,0.0,0.0,0.0,-1.0533,0.0,0.0,0.0,-1.003,0.0,0.0,0.0,0.0,0.0,0.0,0.0,0.0,0.0,0.0,0.0,0.0,0.0,0.0,0.0,-1.3339,-1.3704,-1.4193,-1.3605,-1.3315,-1.3502,-1.3102,-1.2881,-1.2881,-1.2881,-1.2978,-1.3065,-1.2968,-1.2968,-1.3065,-1.2978,-1.2881,-1.2881,-1.2881,-1.2881,-1.2929,-1.3017,-1.3017,-1.2978,-1.3552,-1.342,-1.2968,-1.3552,-1.3732,-1.3695,-1.4154,-1.434,-1.434,-1.434,-1.4097,-1.3815,-1.3815,-1.3552,-1.343,-1.4387,-1.5389,-1.6151,-1.6151,-1.6151,-1.6151,-1.6151,-1.6151,-1.6194,-1.6293,-1.6337,-1.638,-1.6466,-1.6522,-1.6522,-1.6522,-1.7034,-1.7747,-1.8612,-1.9207,-1.9566,-1.969,-1.969,-1.969,-1.969,-1.969,-1.969,-1.969,-1.969,-1.969,-1.969,-1.969,-1.969,-1.969,-2.0089,-2.0314,-2.0314,-2.107,-2.1735,-2.2282,-2.2209,-2.2337,-2.2695,-2.2972,-2.3141,-2.3212,-2.361,-2.3774,0.0,0.0,0.0,0.0,-1.2524,0.0,0.0,0.0,-1.0067,-0.8838,0.0,0.0,0.0,0.0,0.0,0.0,0.0,0.0,0.0,0.0,0.0,0.0,0.0,0.0,0.0,0.0,-1.2235,-1.2563,-1.1753,-1.1551,-1.2348,-1.2714,-1.2881,-1.2881,-1.2881,-1.3152,-1.3684,-1.3152,-1.3152,-1.3684,-1.3152,-1.2881,-1.2881,-1.2881,-1.2881,-1.2929,-1.3467,-1.3372,-1.2978,-1.3552,-1.342,-1.2968,-1.3552,-1.3457,-1.3017,-1.3065,-1.3113,-1.3113,-1.3113,-1.342,-1.3815,-1.3815,-1.4097,-1.4525,-1.4663,-1.4789,-1.488,-1.488,-1.488,-1.488,-1.488,-1.488,-1.5017,-1.5588,-1.572,-1.5864,-1.638,-1.6522,-1.6522,-1.6522,-1.7312,-1.8066,-1.8185,-1.865,-1.9169,-1.9639,-1.969,-1.969,-1.969,-1.969,-1.969,-1.969,-1.969,-1.969,-1.969,-1.969,-1.969,-1.969,-2.0089,-2.0314,-2.0314,-2.0781,-2.1462,-2.2282,-2.1899,-2.2005,-2.2695,-2.2746,-2.2923,-2.323,-2.3837,-2.3996,0.0,0.0,0.0,0.0,0.0,0.0,-1.0508,0.0,-0.9755,0.0,0.0,0.0,0.0,0.0,0.0,0.0,0.0,0.0,0.0,0.0,0.0,0.0,0.0,0.0,0.0,0.0,0.0,0.0,0.0,-1.1991,-1.3161,-1.3407,-1.3609,-1.392,-1.36,-1.3552,-1.3815,-1.32,-1.3017,-1.3286,-1.3017,-1.2881,-1.2881,-1.2881,-1.2881,-1.2929,-1.3152,-1.3152,-1.2929,-1.3152,-1.3152,-1.2929,-1.32,-1.3104,-1.2881,-1.2881,-1.2881,-1.2881,-1.2881,-1.3065,-1.3286,-1.3286,-1.3695,-1.419,-1.419,-1.4422,-1.4698,-1.4698,-1.4698,-1.4698,-1.4698,-1.4698,-1.4744,-1.5017,-1.5365,-1.5676,-1.5908,-1.6238,-1.6522,-1.6522,-1.6879,-1.7271,-1.7585,-1.8612,-1.9332,-1.9244,-1.9479,-1.9603,-1.9281,-1.953,-1.969,-1.969,-1.969,-1.969,-1.969,-1.969,-1.9818,-2.0035,-2.0449,-2.0813,-2.1023,-2.1228,-2.1645,-2.2282,-2.2106,-2.2254,-2.2695,-2.2695,-2.2873,-2.3212,-2.3692,-2.3837,-1.214,0.0,0.0,0.0,0.0,0.0,0.0,0.0,0.0,0.0,0.0,0.0,0.0,0.0,0.0,0.0,0.0,0.0,0.0,0.0,0.0,0.0,0.0,0.0,0.0,0.0,0.0,0.0,0.0,-1.1637,-1.3087,-1.3463,-1.3905,-1.444,-1.4218,-1.4143,-1.4272,-1.3515,-1.3248,-1.3382,-1.3065,-1.2881,-1.2881,-1.2881,-1.2881,-1.2881,-1.2881,-1.2881,-1.2881,-1.2881,-1.2881,-1.2881,-1.2881,-1.2881,-1.2881,-1.2881,-1.2881,-1.2881,-1.2881,-1.2881,-1.2881,-1.2881,-1.32,-1.3552,-1.3552,-1.3884,-1.4212,-1.4212,-1.4212,-1.4212,-1.4212,-1.4212,-1.4294,-1.4617,-1.5005,-1.5454,-1.5776,-1.6194,-1.6522,-1.6522,-1.6637,-1.6837,-1.7229,-1.8263,-1.9006,-1.8893,-1.9244,-1.9406,-1.9169,-1.9442,-1.969,-1.969,-1.969,-1.969,-1.969,-1.969,-1.9874,-2.028,-2.0616,-2.1055,-2.1582,-2.1582,-2.1823,-2.2282,-2.231,-2.2415,-2.2599,-2.2643,-2.2822,-2.3069,-2.35,-2.3692,0.0,0.0,0.0,-1.2021,0.0,0.0,0.0,0.0,-1.1211,0.0,0.0,0.0,0.0,0.0,-0.8912,-0.8386,-0.8298,0.0,0.0,0.0,0.0,0.0,0.0,0.0,0.0,0.0,0.0,0.0,-0.8887,0.0,-1.0993,-1.2305,-1.3297,-1.3894,-1.4406,-1.4971,-1.5543,-1.4365,-1.405,-1.4606,-1.3478,-1.2881,-1.2881,-1.2881,-1.2881,-1.2881,-1.2881,-1.2881,-1.2881,-1.2881,-1.2881,-1.2881,-1.2881,-1.2881,-1.2881,-1.2881,-1.2881,-1.2881,-1.2881,-1.2881,-1.2881,-1.2881,-1.2929,-1.2929,-1.2929,-1.2929,-1.2978,-1.2978,-1.2978,-1.2978,-1.2978,-1.2978,-1.3248,-1.4433,-1.4698,-1.5062,-1.6194,-1.6479,-1.6522,-1.6522,-1.6909,-1.7271,-1.7312,-1.7353,-1.7706,-1.8727,-1.8893,-1.9132,-1.9603,-1.969,-1.969,-1.969,-1.969,-1.969,-1.969,-1.969,-1.9874,-2.028,-2.0314,-2.0699,-2.1552,-2.1582,-2.1823,-2.2282,-2.231,-2.231,-2.2293,-2.2573,-2.2721,-2.2721,-2.3392,-2.3692,0.0,0.0,-1.377,-1.2454,0.0,0.0,0.0,0.0,0.0,0.0,0.0,0.0,0.0,0.0,-0.8924,-0.8386,-0.7964,-0.745,0.0,0.0,0.0,0.0,0.0,0.0,0.0,0.0,0.0,-0.8661,-0.905,-1.0044,0.0,-1.307,-1.4132,-1.5054,-1.4877,-1.4829,-1.5005,-1.419,-1.3695,-1.3515,-1.3113,-1.2881,-1.2881,-1.2881,-1.2881,-1.2881,-1.2881,-1.2881,-1.2881,-1.2881,-1.2881,-1.2881,-1.2881,-1.2881,-1.2881,-1.2881,-1.2881,-1.2881,-1.2881,-1.2881,-1.2881,-1.2881,-1.2881,-1.2881,-1.2881,-1.2881,-1.2881,-1.2881,-1.2881,-1.2881,-1.2881,-1.2881,-1.3027,-1.343,-1.3826,-1.4236,-1.4641,-1.532,-1.5908,-1.5908,-1.6355,-1.6752,-1.6752,-1.6752,-1.7105,-1.8224,-1.8968,-1.9369,-1.9207,-1.9479,-1.969,-1.969,-1.969,-1.969,-1.969,-1.9929,-2.0158,-2.028,-2.083,-2.129,-2.1582,-2.1899,-2.2135,-2.231,-2.249,-2.2546,-2.2563,-2.289,-2.3141,-2.3369,-2.3726,-2.3908,-1.3198,-1.3378,0.0,-1.2386,-1.2,0.0,-1.0672,0.0,0.0,0.0,0.0,0.0,0.0,0.0,-0.8917,-0.8411,-0.781,-0.7206,0.0,0.0,0.0,0.0,0.0,0.0,0.0,0.0,0.0,-0.8343,-0.8764,-0.9839,0.0,0.0,-1.3828,-1.5073,-1.4755,-1.4612,-1.4698,-1.4097,-1.3589,-1.3238,-1.3017,-1.2881,-1.2881,-1.2881,-1.2881,-1.2881,-1.2881,-1.2881,-1.2881,-1.2881,-1.2774,-1.2501,-1.2501,-1.2353,-1.2157,-1.2403,-1.2501,-1.2501,-1.2501,-1.2666,-1.2881,-1.2881,-1.2881,-1.2881,-1.2881,-1.2881,-1.2881,-1.2881,-1.2881,-1.2881,-1.2881,-1.2881,-1.2978,-1.3152,-1.3695,-1.419,-1.4411,-1.5231,-1.5908,-1.5908,-1.6238,-1.6522,-1.6522,-1.668,-1.7034,-1.7706,-1.8574,-1.908,-1.893,-1.9369,-1.969,-1.969,-1.969,-1.9747,-1.9909,-2.0158,-2.0314,-2.0314,-2.083,-2.1134,-2.1134,-2.1584,-2.1915,-2.2032,-2.2375,-2.2563,-2.2563,-2.3058,-2.3428,-2.3642,-2.4081,-2.4295]}]]